GFSGL_850_thetae_000.txt.gz
Theta_e
317 316 316 315 314 318 318 319 320 322 324 323 326 327 327 327 327 327 327 327 329 329 328 328 327 326 325 326 327 326 321 317 310 310 312 313 315 316 315 315 315 316 318
309 311 314 315 316 315 317 317 318 318 320 320 322 325 326 325 326 328 325 322 324 327 327 327 326 326 326 326 324 322 311 306 309 311 312 314 317 317 317 317 317 318 319
313 312 309 310 315 313 318 318 317 321 319 319 316 315 318 321 324 325 327 322 316 317 316 316 314 315 316 314 313 311 317 312 313 315 314 315 316 317 318 318 319 320 317
315 316 312 309 313 313 315 317 318 320 320 320 318 317 315 314 315 316 317 317 317 317 316 316 317 318 318 319 319 319 318 317 318 318 317 316 317 318 319 319 320 318 313
316 318 315 310 310 314 315 315 316 320 319 319 317 316 317 317 317 317 317 318 318 319 319 319 319 320 319 319 318 317 318 318 318 318 319 319 318 317 318 319 319 315 311
316 318 317 311 309 313 315 317 319 320 320 319 321 320 318 316 315 315 317 318 319 319 319 319 319 319 319 318 317 315 315 316 317 318 319 319 318 317 318 319 317 312 308
315 318 318 311 309 310 313 315 315 316 319 320 318 318 316 313 312 312 312 312 312 313 313 313 311 312 312 310 309 309 309 308 309 311 314 315 316 317 317 317 314 311 306
313 318 318 312 309 311 314 313 314 315 314 314 314 314 312 309 308 306 305 305 305 305 304 304 304 304 304 305 305 306 307 307 308 309 310 310 310 311 312 311 309 302 300
314 315 316 312 308 311 311 312 312 311 310 309 309 307 306 305 305 306 306 306 306 307 309 311 312 313 313 313 313 312 312 311 309 308 307 306 305 304 305 303 301 300 299
316 313 313 311 308 309 310 310 309 309 308 307 307 307 307 309 310 312 313 314 315 315 316 316 316 316 316 315 315 315 315 314 314 314 313 312 310 307 304 301 300 299 298
317 316 312 311 308 309 310 309 309 309 309 309 310 310 310 311 313 314 315 316 316 316 316 316 316 315 315 315 314 314 314 313 312 312 312 312 311 308 305 302 299 299 298
318 317 315 311 310 309 311 311 310 310 311 312 313 313 314 314 314 314 314 314 314 313 313 313 314 314 313 313 313 313 312 312 311 310 309 309 308 307 305 300 297 297 296
319 319 317 314 312 310 311 313 313 313 313 314 314 314 314 314 314 314 314 314 314 313 313 313 313 313 312 312 311 311 310 310 310 309 309 309 308 304 301 299 298 296 296
318 319 319 318 315 314 312 312 315 315 315 315 315 315 314 315 315 315 315 315 314 314 314 314 314 314 315 316 316 314 313 312 311 314 316 313 310 308 304 301 299 297 296
318 319 320 319 319 318 316 315 313 314 314 315 316 316 317 317 318 317 316 316 316 315 315 315 317 320 325 327 326 323 320 319 320 317 313 314 310 308 308 305 301 300 299
317 318 319 320 320 319 321 322 320 319 317 318 319 319 319 319 320 320 320 320 320 319 320 322 323 325 326 326 325 324 323 322 322 318 316 315 313 311 309 307 304 300 300
318 318 318 319 320 320 320 321 323 323 324 323 322 321 321 321 319 319 319 320 320 320 322 323 326 326 326 324 324 324 324 322 318 317 316 311 308 306 305 304 303 301 299
319 319 318 318 318 319 320 320 321 322 322 323 323 323 323 323 322 322 322 322 322 323 323 326 325 323 322 321 321 321 321 315 312 309 307 305 304 302 301 301 300 299 298
320 319 319 319 318 318 318 319 320 320 321 321 321 321 321 321 321 322 323 325 325 326 325 325 322 321 323 320 314 310 306 304 305 305 304 302 301 300 300 300 300 299 297
320 320 320 320 319 318 318 319 319 319 320 321 321 322 322 322 324 327 327 325 325 324 323 322 322 317 310 307 305 305 306 306 306 305 304 302 301 300 300 300 300 299 297
320 319 319 319 319 319 319 319 319 319 320 321 321 322 324 327 326 323 322 318 314 311 309 306 306 307 307 306 306 306 305 305 305 305 304 303 302 302 301 300 300 299 297
320 319 318 318 319 318 319 319 319 320 320 322 324 325 323 321 319 319 319 318 315 312 311 310 306 306 305 304 304 304 304 303 302 302 302 302 302 301 299 298 298 298 297
320 319 318 318 318 318 318 319 320 322 324 323 322 321 320 321 320 319 316 317 312 310 308 305 304 303 303 302 300 300 299 299 299 299 299 299 298 297 297 297 297 297 296
321 321 320 320 320 321 323 324 323 323 322 321 321 320 319 315 311 309 306 305 303 303 303 301 300 299 298 297 296 296 296 297 297 297 297 297 297 296 296 296 296 295 294
325 325 324 324 324 323 323 323 322 322 321 319 317 311 309 306 306 305 302 300 299 298 297 296 295 294 294 294 294 294 295 295 295 295 296 297 296 295 295 294 293 293 293
326 325 325 325 325 325 325 323 318 318 316 314 309 308 307 304 300 299 297 296 296 295 293 293 292 292 292 292 292 292 292 293 295 295 294 294 293 292 292 292 293 292 293

GFSGL_850_thetae_003.txt.gz
Theta_e
314 314 315 315 317 318 319 320 320 319 322 326 327 327 327 327 328 328 328 328 328 329 329 328 328 328 327 327 327 326 325 325 320 313 307 309 310 312 313 314 313 314 316
309 311 313 315 314 317 317 317 317 321 322 325 326 326 327 327 326 327 329 329 328 328 327 327 328 327 326 326 327 325 321 317 312 308 311 312 314 315 315 315 316 316 318
311 310 309 314 313 317 317 316 319 318 316 317 321 320 325 328 328 324 325 329 330 329 328 327 326 325 325 326 323 321 311 307 307 310 312 313 314 316 317 317 317 318 319
313 312 309 310 313 313 316 317 320 319 317 315 313 313 317 318 322 326 320 319 318 318 318 319 319 321 319 314 310 311 315 313 314 315 313 313 315 316 317 318 318 319 319
314 315 312 309 312 312 313 314 319 318 319 316 316 315 315 315 315 317 318 318 317 316 316 317 317 317 318 318 318 318 318 315 317 318 317 316 316 317 317 318 318 318 318
315 316 314 309 310 313 313 313 317 319 317 318 315 314 315 314 316 317 317 318 319 318 318 318 318 319 318 318 317 317 318 318 317 318 318 318 319 318 317 317 318 318 315
315 316 315 311 308 312 314 316 318 319 319 320 320 317 315 314 314 316 318 319 319 319 319 319 318 318 317 314 313 312 312 314 314 314 313 312 314 316 316 316 317 318 317
313 316 315 311 308 309 313 314 314 315 317 318 318 316 313 311 310 311 311 311 312 312 312 309 307 306 305 304 304 306 307 308 308 309 309 310 310 312 313 314 315 315 314
313 314 315 312 307 309 310 311 313 314 314 314 314 313 311 307 305 304 304 304 304 304 304 305 307 309 310 311 311 311 312 312 312 312 311 310 309 308 307 306 307 308 306
314 312 314 312 307 309 309 311 310 310 310 309 308 307 306 305 305 305 306 307 309 311 313 314 314 315 315 315 315 315 315 314 314 314 314 314 314 313 310 308 304 302 302
315 313 312 312 308 309 309 309 308 308 307 307 307 307 308 309 311 312 313 314 315 315 315 315 315 315 315 314 314 314 313 313 312 312 312 312 311 310 309 307 304 301 299
316 314 312 311 309 309 309 309 309 309 308 308 308 309 311 313 314 315 315 315 314 314 314 314 314 313 313 312 312 312 311 311 311 311 310 310 310 309 308 306 304 302 300
317 316 313 311 310 309 310 309 309 309 310 310 312 313 314 314 314 314 314 313 313 313 312 312 312 312 312 312 312 312 313 312 311 312 313 315 315 314 311 308 307 303 301
315 318 316 313 311 309 310 311 310 310 312 313 313 313 313 313 313 313 314 314 314 314 313 313 313 313 313 314 315 317 323 323 318 314 314 314 313 312 315 312 308 305 303
316 316 317 317 314 311 310 311 312 311 313 313 314 313 313 313 313 313 314 315 315 315 315 316 317 318 319 321 324 326 326 325 321 319 316 316 315 313 314 311 311 309 305
316 316 317 318 317 316 313 313 311 312 313 314 314 314 314 315 316 317 318 318 318 318 318 318 319 320 322 324 325 325 324 324 322 321 321 318 315 312 310 307 305 304 303
316 316 316 317 318 318 318 315 316 313 312 313 315 316 316 316 318 319 318 318 318 319 321 320 320 321 323 324 324 324 322 322 322 320 317 310 307 306 305 304 302 301 301
319 316 316 317 317 318 319 319 319 320 322 322 323 322 322 323 323 322 321 322 321 321 321 320 320 321 323 322 320 319 316 311 309 309 307 307 305 303 302 301 300 300 300
320 319 317 316 317 317 317 318 319 320 322 323 323 322 322 322 322 321 321 321 322 323 322 322 322 322 319 317 315 306 304 307 309 307 305 304 303 303 302 301 301 300 301
322 321 320 318 317 317 318 318 319 319 319 322 323 321 321 321 322 322 323 324 325 325 324 319 323 315 307 306 306 304 305 306 306 305 304 303 303 303 301 301 301 300 300
320 320 319 319 318 318 318 319 321 323 323 323 321 321 321 321 322 324 325 322 318 315 310 311 309 310 310 310 307 306 304 301 300 299 298 298 299 299 299 299 298 299 299
322 320 320 319 319 319 321 321 322 321 321 320 321 321 323 324 323 318 314 313 315 315 313 313 311 309 306 304 300 298 297 296 296 296 296 296 297 298 298 298 298 297 296
320 319 319 319 320 320 320 320 319 319 319 320 320 322 321 318 318 318 316 314 313 312 306 304 303 300 297 296 295 294 294 294 294 294 295 296 296 297 297 296 296 296 295
318 318 318 318 318 318 318 318 318 318 319 320 320 319 320 319 316 311 308 306 303 302 300 298 296 294 294 293 293 293 293 293 294 295 295 295 295 294 295 295 294 293 293
319 318 317 317 317 317 317 318 319 320 319 320 319 318 314 311 308 305 302 300 299 297 295 294 293 293 292 292 292 292 292 293 293 293 293 292 292 293 293 293 293 292 292
320 321 320 318 317 318 319 321 321 321 320 318 316 313 310 312 305 300 298 296 295 293 293 292 292 292 292 292 292 292 292 292 292 292 291 292 293 294 292 292 293 292 293

GFSGL_850_thetae_006.txt.gz
Theta_e
320 321 321 320 322 321 323 322 320 324 326 324 326 325 326 327 328 328 329 328 329 329 329 329 329 329 329 327 327 326 325 323 324 321 321 323 320 316 308 317 316 314 313
318 320 321 320 321 321 323 322 322 325 327 327 325 326 327 328 327 328 329 329 329 329 329 328 328 328 327 327 326 324 324 323 323 319 319 319 319 319 318 322 320 320 319
317 318 320 320 321 319 318 320 321 317 324 327 326 327 327 324 327 329 328 329 329 329 329 328 328 329 329 329 328 325 323 320 320 318 318 319 320 319 318 316 316 317 317
317 317 318 321 320 319 322 323 322 320 317 323 325 326 329 325 323 329 330 330 330 329 330 329 330 329 329 327 327 323 317 317 318 319 319 319 318 316 319 319 317 317 318
317 317 317 319 319 319 320 322 322 322 320 318 317 320 319 323 321 318 318 318 319 323 324 325 326 326 322 320 317 316 311 319 320 319 319 319 319 317 316 320 319 319 317
319 319 317 316 319 319 319 321 318 321 320 321 321 320 318 318 318 318 318 317 316 317 316 317 318 318 318 318 318 318 317 320 321 320 320 320 321 319 319 320 320 319 318
319 320 317 315 317 319 319 320 322 320 321 321 320 319 313 316 319 319 319 320 319 318 318 319 319 318 318 317 316 316 317 317 318 318 321 322 322 322 320 319 319 319 319
320 320 318 315 315 318 319 321 319 318 319 320 321 321 318 313 314 315 316 317 317 317 316 315 314 313 312 310 309 309 310 310 311 310 311 312 311 314 311 314 316 319 318
319 319 319 316 315 317 318 320 317 317 318 319 322 317 316 310 310 310 311 311 311 310 308 307 307 307 309 309 309 310 310 311 311 312 313 313 313 312 311 309 315 316 316
319 319 319 317 316 317 318 317 312 313 315 318 319 315 312 308 305 305 305 311 305 305 305 306 308 310 312 313 313 314 314 314 314 314 314 314 313 313 311 310 308 312 313
319 318 319 318 316 317 319 312 309 310 317 316 314 309 306 305 305 305 305 310 309 309 311 313 314 315 315 315 315 314 314 313 313 312 312 311 311 311 310 310 308 304 308
320 318 319 319 315 316 311 309 309 311 312 308 308 308 308 309 311 312 312 313 314 314 314 315 315 314 313 312 312 311 311 311 311 311 311 311 311 310 309 308 308 309 308
321 319 320 319 316 316 310 309 311 307 315 313 313 315 315 313 314 314 314 314 314 314 316 314 312 312 312 311 311 312 313 316 318 319 315 315 314 312 311 314 317 316 315
322 321 321 320 318 315 317 315 317 315 316 316 316 316 316 315 314 314 314 313 313 312 312 312 312 313 313 314 314 319 321 322 320 318 317 315 313 314 314 313 312 310 309
322 323 322 321 315 314 314 317 316 315 317 317 317 317 317 317 316 314 313 313 313 314 316 317 317 318 318 318 320 319 318 318 317 317 316 316 317 314 313 311 309 307 308
321 322 322 320 320 318 316 316 314 316 312 314 317 318 317 317 317 315 314 316 317 318 318 318 320 320 319 320 322 323 321 319 317 315 313 311 309 309 307 306 306 306 306
318 320 321 321 321 318 318 316 316 311 311 311 312 313 317 318 316 316 317 317 317 318 320 321 320 319 320 320 321 320 317 313 311 307 306 306 306 305 305 305 305 304 305
322 319 319 320 321 321 319 318 317 316 313 312 313 314 314 315 315 315 316 319 320 321 320 320 321 321 321 320 315 310 308 306 308 308 307 305 304 304 304 304 304 304 303
325 323 320 321 320 321 320 320 319 318 318 316 316 313 314 316 319 321 322 321 323 322 320 320 319 319 319 314 313 309 308 308 308 306 304 299 298 301 302 302 302 302 302
325 324 323 321 322 321 322 321 321 320 320 321 324 324 323 323 322 321 321 323 323 322 322 320 320 316 311 310 312 313 314 310 301 297 297 296 296 298 299 298 301 302 301
325 325 323 322 322 322 322 322 322 322 322 322 322 325 324 324 323 321 321 322 320 320 310 312 310 313 312 309 302 297 297 297 296 294 295 295 295 295 296 297 300 300 299
325 325 324 323 322 323 323 323 323 323 323 324 326 325 324 322 320 319 314 314 314 312 313 313 310 304 299 297 296 296 294 294 294 294 294 294 295 295 299 299 299 298 297
324 325 325 324 322 323 323 323 323 324 326 324 323 323 318 315 314 315 315 314 314 313 308 304 300 297 295 294 295 295 294 293 293 293 293 294 298 297 298 298 297 297 296
324 325 325 324 323 323 324 323 324 325 323 319 317 317 315 313 313 316 315 313 306 302 300 299 297 295 295 294 294 293 293 293 293 292 294 297 297 297 297 297 296 296 295
323 323 324 323 323 324 324 324 324 321 318 317 316 314 313 315 314 309 308 307 307 309 298 295 294 293 293 293 293 293 292 292 292 292 295 296 296 297 296 296 295 295 295
323 323 324 324 323 323 322 320 318 317 316 314 312 313 316 311 308 307 305 302 297 295 294 293 293 293 293 293 292 292 292 292 291 291 292 296 296 295 295 294 294 294 294

GFSGL_850_thetae_009.txt.gz
Theta_e
323 324 324 325 328 328 329 327 326 326 325 325 326 328 329 330 329 329 329 329 328 324 327 325 328 329 328 329 329 327 326 326 325 327 326 325 325 323 315 320 318 312 312
322 323 323 324 326 328 329 328 327 328 325 326 327 328 328 330 329 330 330 329 327 328 326 328 329 329 328 329 328 326 325 324 325 323 325 325 322 318 311 319 321 317 318
319 322 323 323 325 325 326 321 330 330 328 326 326 327 328 328 329 330 329 329 329 329 329 329 329 328 328 327 326 325 326 325 324 322 324 323 321 323 317 322 324 323 323
319 320 323 322 323 326 326 324 326 328 329 329 328 323 328 329 328 331 331 330 329 329 329 328 328 328 328 328 327 326 323 323 323 321 321 322 324 323 324 323 319 317 321
319 319 322 322 322 326 326 325 323 322 324 324 325 328 327 330 330 329 329 331 330 329 328 329 330 330 331 330 329 323 321 321 321 321 321 322 321 322 320 323 322 322 321
319 319 320 321 320 322 325 326 324 323 322 322 323 323 322 321 327 327 328 329 330 330 331 331 330 330 329 323 321 318 320 321 321 321 321 321 321 321 323 322 322 323 322
320 320 318 320 321 321 322 322 323 323 323 323 323 322 318 319 317 317 318 319 322 318 317 318 320 317 316 317 317 317 317 320 323 323 323 323 323 324 323 323 320 323 322
320 320 318 318 321 321 321 322 324 325 323 323 322 323 319 319 320 321 326 323 319 318 317 320 317 316 316 316 316 316 317 317 317 317 316 316 316 314 322 319 317 317 317
321 321 319 316 319 321 322 324 326 327 326 325 324 323 320 316 318 318 323 323 322 319 320 319 316 314 313 313 319 318 314 312 311 313 314 314 313 313 312 312 319 321 321
321 321 320 317 318 320 322 325 326 326 326 324 324 323 322 312 312 313 316 318 315 316 311 309 308 310 308 309 317 315 316 316 314 315 314 314 314 314 312 310 308 311 313
321 321 320 318 318 319 320 323 324 324 322 322 322 322 321 319 307 308 310 314 314 313 311 307 310 312 313 314 315 315 315 314 313 313 313 312 313 313 312 312 311 309 307
321 320 321 320 318 319 320 322 322 321 321 322 321 320 319 309 304 305 308 313 313 314 314 315 315 315 315 314 313 313 312 312 312 311 315 317 317 317 316 314 312 311 312
322 321 321 321 319 321 322 322 320 319 320 320 318 318 316 308 306 306 308 314 314 317 319 317 315 314 313 312 311 311 312 313 313 315 318 320 320 318 316 315 315 314 314
322 321 321 322 319 321 322 322 320 319 319 317 317 317 317 318 317 313 314 314 314 317 318 313 312 312 312 313 316 316 316 318 318 319 319 320 319 318 318 316 314 313 311
323 322 322 322 320 320 321 320 319 318 318 318 317 318 318 318 318 315 315 314 314 313 312 313 315 317 318 319 319 319 320 321 321 321 320 318 315 313 312 309 308 308 308
323 323 322 322 322 319 320 320 318 319 318 318 318 318 319 319 318 316 315 314 313 314 317 320 322 322 323 322 323 325 324 321 319 316 312 310 308 308 307 306 304 304 305
324 324 323 322 322 319 319 319 319 318 318 318 318 318 318 318 318 317 315 314 316 317 316 321 324 325 324 324 324 324 320 318 316 310 309 308 309 310 305 302 304 304 304
325 324 323 323 322 321 320 318 318 318 318 316 316 317 318 319 317 318 317 316 316 316 319 323 325 324 325 324 318 313 312 311 310 311 313 312 304 298 300 303 303 302 302
327 325 324 324 322 322 321 320 319 318 318 317 317 313 315 318 319 317 316 314 319 323 323 324 325 323 318 314 313 312 311 310 312 307 297 298 302 302 302 302 302 302 302
327 327 325 323 323 322 322 321 321 319 319 318 317 315 312 313 313 314 314 315 322 326 324 323 319 314 312 310 309 312 309 298 297 302 301 295 296 301 299 301 301 301 300
328 328 327 325 323 323 322 323 322 322 320 320 320 319 317 314 313 316 320 325 326 324 319 316 312 311 311 313 303 297 296 296 296 295 295 294 295 295 300 301 300 300 299
329 328 328 327 325 324 323 323 323 323 322 322 322 324 325 324 325 326 325 324 320 315 311 311 313 312 303 299 298 297 296 296 295 294 296 300 299 297 300 301 300 299 299
329 329 329 327 326 325 325 324 324 324 324 323 325 324 325 327 326 322 315 313 312 312 314 312 308 303 297 297 304 302 296 294 294 294 297 297 299 299 299 299 299 298 298
328 328 328 328 326 326 325 324 323 323 324 324 325 325 325 323 317 312 311 311 310 308 307 301 297 300 302 301 296 295 294 294 294 294 297 298 298 299 299 298 298 297 297
328 328 328 328 327 325 325 325 324 324 324 327 324 323 319 315 314 313 310 307 308 304 301 302 302 299 297 294 294 294 294 294 293 293 296 298 298 298 298 297 296 296 296
327 328 328 328 328 327 326 325 326 326 325 322 320 318 315 314 312 311 311 307 303 304 302 300 297 295 295 294 294 294 294 294 293 293 294 297 296 296 295 293 294 293 293

GFSGL_850_thetae_012.txt.gz
Theta_e
325 326 327 329 329 329 327 326 323 326 327 327 325 327 326 326 327 327 328 327 326 326 327 327 328 328 328 328 328 327 327 328 328 328 328 329 328 328 327 326 319 314 312
324 325 325 328 329 329 326 327 324 326 326 329 328 327 327 325 326 328 324 324 324 326 325 326 328 328 327 328 327 327 327 327 326 327 326 328 328 327 321 319 315 312 312
322 324 324 326 327 328 324 328 326 326 326 328 329 330 330 329 329 329 329 327 327 325 326 325 327 328 328 328 326 325 325 324 326 325 325 325 324 319 314 314 318 318 319
321 323 323 325 326 326 324 329 329 327 327 325 328 328 329 329 329 329 329 329 329 328 328 328 328 328 328 328 326 326 326 326 324 323 323 322 318 318 320 314 321 318 320
320 321 323 323 327 327 325 324 328 327 325 327 329 330 329 330 331 330 328 328 328 328 328 328 329 328 328 326 326 326 325 324 322 321 321 322 323 324 322 320 318 320 319
320 320 323 323 325 327 326 324 322 323 324 323 326 328 330 330 330 330 329 328 327 329 329 328 328 329 328 329 327 324 322 321 321 321 322 322 321 319 319 318 321 323 323
320 320 322 321 322 326 326 325 323 322 323 323 322 321 329 328 328 329 330 330 330 330 330 330 330 329 329 328 324 319 323 321 323 321 321 321 322 322 322 323 323 322 323
321 320 320 321 322 323 323 324 324 324 324 322 319 318 318 319 322 323 323 319 319 320 321 319 318 319 318 317 317 318 319 320 321 322 323 322 324 325 325 325 324 322 322
321 321 319 320 322 321 322 322 322 323 323 323 320 319 319 320 324 324 323 321 319 321 323 320 318 318 318 317 317 316 316 316 315 314 313 313 312 312 314 316 317 315 318
321 322 320 318 321 322 322 324 323 324 324 325 324 320 317 318 319 320 320 323 318 320 319 318 315 313 313 312 313 313 313 313 313 312 313 312 312 312 313 313 312 309 308
322 322 321 318 318 321 323 323 324 327 326 325 324 323 322 313 314 316 319 321 316 313 310 309 309 309 309 315 316 316 319 319 317 314 313 316 317 318 317 315 314 314 313
322 322 322 320 317 320 321 322 323 323 326 324 323 322 322 318 310 311 315 317 313 312 309 308 310 312 313 314 314 313 312 312 311 311 313 318 319 320 318 317 315 313 315
322 321 321 321 319 319 320 321 322 320 324 321 322 320 320 312 307 307 312 314 313 314 315 315 314 314 314 313 312 312 312 312 312 315 319 321 321 320 319 318 318 317 314
323 322 321 321 320 320 319 319 319 318 320 322 321 319 318 316 306 305 308 313 314 317 317 317 315 313 312 312 312 315 315 314 319 321 321 321 320 320 319 318 315 310 309
323 323 322 321 321 321 320 320 316 319 311 321 319 317 318 316 309 308 309 314 315 318 319 315 312 312 313 316 317 318 319 321 322 322 321 320 317 314 311 311 309 305 303
324 324 322 323 322 320 320 323 320 321 317 319 318 317 318 317 316 314 314 315 315 314 313 313 315 318 320 322 323 322 321 322 322 320 319 315 311 310 310 307 302 302 304
325 325 323 323 323 321 322 322 321 320 320 318 318 318 320 319 318 316 315 314 313 312 313 316 320 322 323 324 325 324 323 322 322 319 312 311 312 309 298 302 303 303 300
325 326 325 323 324 323 321 321 322 318 319 318 318 318 318 319 319 318 318 315 314 314 316 317 321 324 325 324 325 324 322 320 317 312 312 304 299 301 302 299 300 300 299
327 326 325 325 323 324 322 321 320 321 318 318 317 318 318 318 318 317 317 316 315 315 316 316 323 325 325 325 324 321 320 316 312 309 297 297 297 298 298 298 299 298 297
329 327 326 325 325 324 324 322 320 319 321 319 317 316 318 317 318 318 317 317 316 317 321 323 325 325 325 323 321 318 313 311 299 297 297 296 296 295 296 296 298 299 299
331 329 327 326 327 326 324 323 322 321 319 320 319 318 315 315 317 317 319 318 317 315 324 325 325 324 321 318 315 312 302 297 298 298 296 295 295 295 298 299 299 299 298
331 331 329 327 326 326 326 324 324 322 322 320 321 319 319 318 314 314 315 315 314 322 325 324 322 318 315 313 306 297 297 298 298 296 296 296 297 297 298 297 297 298 298
330 331 331 329 328 327 325 325 324 324 324 323 322 321 320 318 318 316 318 323 325 325 324 319 316 314 309 301 298 298 300 298 297 296 296 297 300 298 297 298 298 297 297
330 330 331 331 330 328 328 325 325 323 324 324 323 323 322 320 325 326 326 326 326 323 319 314 313 311 302 299 304 306 302 297 296 295 297 298 297 297 298 298 297 295 295
329 330 330 329 330 329 328 327 326 326 324 324 324 324 323 325 326 326 325 323 319 316 314 313 305 298 301 305 302 299 297 295 294 295 296 297 297 297 297 296 293 293 293
328 328 330 328 329 329 328 327 326 326 324 326 325 324 325 323 321 321 321 319 315 312 310 300 300 304 304 301 299 297 294 294 294 294 296 296 296 295 293 292 292 291 290

GFSGL_850_thetae_015.txt.gz
Theta_e
326 326 327 329 329 327 326 324 326 328 324 327 326 326 326 326 326 326 326 326 326 327 327 328 329 329 329 329 327 328 327 326 328 327 326 326 327 327 326 327 328 329 325
325 325 326 328 328 327 326 325 327 326 327 325 326 326 326 325 325 327 326 326 326 327 327 328 328 328 329 327 327 327 326 327 327 328 329 328 329 328 328 327 327 316 313
324 324 325 326 328 326 326 326 326 327 328 327 327 326 324 325 326 327 326 325 325 325 327 328 328 328 328 328 327 327 327 327 327 326 327 328 328 326 323 322 316 312 312
322 323 324 325 325 325 328 327 326 326 328 328 329 328 328 327 327 327 326 325 325 325 326 327 328 328 328 327 327 326 325 325 326 327 325 327 327 324 316 312 311 314 313
321 321 322 324 326 324 327 328 325 326 329 329 328 329 329 329 329 328 328 328 328 327 326 326 326 327 326 325 326 326 325 326 325 323 324 324 322 315 313 311 311 315 317
320 320 320 323 327 326 322 325 323 323 328 328 329 328 330 329 328 328 329 328 328 328 329 328 328 327 326 326 326 326 326 325 322 320 319 317 315 313 314 314 316 318 320
320 320 319 323 327 326 323 321 323 324 323 323 327 329 329 329 328 327 327 328 328 329 328 328 328 327 326 326 324 324 325 322 321 320 321 320 321 321 321 320 321 322 322
320 319 319 321 323 326 325 323 323 323 322 320 328 329 328 329 329 329 329 329 330 329 329 329 327 328 328 328 324 321 322 321 323 323 322 322 324 322 322 322 323 324 325
320 320 319 319 321 325 325 324 324 323 322 319 319 323 322 323 322 319 320 320 320 319 319 324 328 326 323 323 319 321 322 321 323 323 324 323 323 325 325 323 322 322 320
320 321 320 319 321 321 322 322 323 323 320 319 319 318 319 319 320 318 318 319 320 321 320 317 317 317 317 318 317 316 317 318 317 316 314 312 312 313 314 315 315 314 314
320 322 320 318 321 321 321 322 320 322 324 324 319 318 320 321 324 323 323 320 317 320 320 317 317 317 315 314 313 313 313 313 313 314 314 315 318 318 317 316 315 313 314
321 321 321 319 318 321 321 322 322 322 324 326 324 322 319 316 318 320 321 321 316 313 312 312 311 311 311 313 314 315 316 316 315 312 312 317 320 319 318 317 317 317 315
322 322 322 321 318 317 319 321 322 320 325 325 325 323 321 317 314 314 317 317 313 311 308 309 310 311 314 315 315 314 313 312 310 314 320 321 320 320 320 319 317 315 313
323 322 322 321 320 318 319 319 319 318 323 324 323 322 320 314 311 309 312 315 312 313 313 312 312 313 313 313 312 311 310 310 311 317 320 320 321 320 319 318 316 311 310
323 323 322 321 321 320 318 318 318 316 314 317 319 318 316 315 309 306 309 313 313 315 316 315 314 314 312 311 311 312 316 319 320 321 321 321 320 316 312 312 311 305 299
324 323 323 321 321 321 319 319 320 317 314 314 317 315 313 314 313 306 305 310 313 316 317 317 317 312 312 313 318 320 320 321 321 322 321 318 315 312 312 303 299 298 297
324 324 323 322 321 321 320 318 318 319 317 319 316 317 317 317 317 313 308 307 313 315 318 316 312 313 319 323 322 322 322 321 321 321 320 316 313 309 298 298 297 296 296
323 324 324 323 322 321 321 320 317 318 317 320 316 318 319 318 319 317 315 312 312 313 315 313 312 318 322 322 323 323 322 321 321 322 318 314 304 298 297 296 296 296 296
326 325 325 324 323 322 322 321 319 318 318 318 317 317 318 318 319 319 318 316 314 314 314 313 315 319 321 324 324 324 323 322 320 316 313 300 298 297 296 296 296 297 296
328 327 325 325 324 323 324 323 322 320 321 320 318 317 318 318 318 318 319 318 318 316 314 313 316 317 323 324 324 323 321 319 316 309 298 298 297 296 296 296 297 296 296
330 329 328 325 325 324 324 324 323 322 320 322 321 318 316 317 318 318 318 318 317 317 315 315 318 318 322 324 324 321 319 317 303 300 302 297 296 296 296 296 296 296 295
332 331 330 327 326 325 325 324 324 323 322 320 320 321 320 319 316 316 317 318 317 316 316 318 321 323 323 325 323 321 318 302 302 303 298 296 296 296 296 296 296 295 294
332 331 332 330 328 326 326 326 325 324 323 322 320 319 320 320 319 318 316 317 317 316 316 316 318 323 324 322 321 319 306 301 306 302 296 296 297 296 296 297 296 295 293
332 332 331 332 331 328 327 326 327 325 325 324 322 322 321 321 321 320 318 316 317 317 317 317 320 323 322 318 315 301 298 307 304 297 296 297 297 297 297 297 295 293 293
332 331 330 331 331 331 330 328 327 327 325 325 325 324 323 321 321 319 318 316 315 319 321 318 320 319 316 313 301 298 307 307 301 297 296 297 297 296 296 295 293 293 292
330 329 330 330 330 330 331 330 329 328 328 326 325 324 324 323 321 319 317 317 319 323 321 317 316 315 311 302 298 307 308 302 298 296 296 297 296 296 294 293 293 292 292

GFSGL_850_thetae_021.txt.gz
Theta_e
325 326 327 327 327 325 326 326 325 326 326 326 323 320 323 325 324 323 324 325 325 323 324 326 328 326 328 327 328 329 328 328 327 327 327 327 328 326 326 328 327 327 327
324 325 327 327 327 326 326 326 325 326 326 326 324 323 322 323 324 325 325 325 324 323 323 326 328 328 328 327 328 328 328 327 328 327 327 328 327 327 326 327 326 327 328
322 323 325 325 327 326 326 326 325 326 325 326 326 325 325 325 325 324 323 323 324 327 328 328 329 328 328 328 329 328 328 328 327 327 327 328 327 327 325 325 326 327 323
321 323 324 324 325 326 326 327 326 327 325 325 326 325 325 325 325 325 326 326 326 326 327 329 328 328 328 329 327 328 328 327 327 328 327 328 327 327 326 326 326 326 313
321 322 322 324 327 327 326 328 328 328 326 325 325 325 325 326 325 326 326 324 325 326 328 328 328 328 329 328 327 326 326 327 328 327 326 326 327 326 326 326 325 313 313
321 321 321 324 327 327 323 327 328 328 328 328 326 324 325 325 326 327 326 324 325 327 328 328 328 328 328 327 326 325 326 326 326 326 327 328 328 326 317 316 311 311 316
321 320 318 324 323 325 323 325 326 328 328 328 328 328 328 328 326 326 327 326 326 327 327 327 325 328 327 325 324 325 325 325 326 323 324 325 318 313 314 314 315 319 321
321 320 318 325 324 321 322 323 322 321 328 329 328 327 327 328 328 328 328 326 325 327 327 327 325 326 326 325 326 326 324 322 321 319 318 319 318 319 320 321 321 321 322
321 319 318 321 325 322 321 322 321 321 328 328 328 327 327 327 328 328 327 327 326 326 327 326 325 325 325 325 325 323 321 321 322 321 321 321 323 322 322 323 323 323 322
321 319 318 318 325 325 322 321 320 321 328 328 329 328 328 328 329 328 328 328 328 327 326 326 325 325 325 323 322 321 321 322 324 323 322 322 323 318 313 312 312 313 314
323 320 319 317 319 324 324 322 321 318 322 322 323 322 321 321 321 327 328 328 328 327 326 326 326 327 327 322 320 322 321 323 322 321 320 319 314 313 314 317 318 318 317
323 320 319 318 316 322 324 323 322 319 318 318 319 319 319 317 316 317 317 317 323 327 327 327 326 324 320 318 319 321 321 320 320 317 314 313 314 316 318 319 319 317 317
323 320 320 319 316 317 320 321 321 320 317 318 318 320 321 322 320 319 318 319 318 316 320 322 317 316 317 316 316 317 317 316 314 313 314 313 314 317 320 319 318 318 315
323 321 320 320 318 318 319 319 320 318 317 318 316 318 321 322 322 321 320 320 318 318 317 316 316 316 316 316 316 315 315 315 315 315 313 311 317 320 319 319 318 315 310
322 322 319 321 320 319 318 317 318 317 312 314 318 318 316 316 316 317 317 318 317 314 313 315 314 314 313 315 316 315 315 315 314 312 311 313 319 319 319 318 313 310 307
322 323 320 320 321 319 319 319 318 317 317 315 314 317 320 318 316 313 313 315 316 312 311 309 311 311 312 314 315 315 314 312 311 310 311 314 319 320 318 312 309 306 300
321 321 321 320 320 321 319 319 318 318 319 318 317 317 318 317 318 317 311 311 312 314 311 310 310 312 312 313 314 313 312 311 310 312 313 318 320 319 315 311 307 298 296
322 320 320 319 320 321 321 320 319 319 316 316 317 317 317 318 318 317 314 311 310 311 312 313 312 313 312 312 313 312 311 310 311 315 318 320 320 319 315 311 300 297 296
323 322 321 321 320 321 321 321 320 319 319 316 315 314 313 313 316 315 317 316 308 308 311 312 314 314 314 313 313 312 311 312 316 318 319 320 319 316 313 302 297 296 296
324 323 322 322 322 322 322 322 321 320 320 319 317 313 311 310 313 313 315 317 316 311 307 310 312 315 316 316 316 314 313 317 320 320 320 320 318 314 306 298 296 296 295
326 325 324 323 323 323 322 322 322 321 320 320 320 318 313 312 310 312 314 316 317 316 314 307 307 312 314 316 317 314 312 318 321 320 319 318 316 312 300 297 297 296 296
328 328 327 326 324 324 324 323 324 323 322 321 321 321 319 315 314 312 314 315 317 317 318 317 314 310 309 313 314 316 314 313 317 320 318 316 312 306 298 297 300 296 295
330 330 329 328 328 327 325 324 324 324 324 323 323 323 322 321 318 315 314 313 315 316 317 318 319 318 317 315 311 312 313 313 317 318 317 312 308 300 297 305 298 296 295
331 331 331 331 331 330 329 327 326 326 325 325 325 324 324 323 323 321 320 319 318 317 316 316 317 317 318 318 318 315 313 314 318 318 317 310 303 298 305 300 296 295 294
332 332 332 332 331 331 331 330 329 328 328 327 327 326 325 325 324 324 324 323 322 320 320 320 319 318 317 317 317 316 314 315 318 319 314 306 299 303 301 296 296 295 294
332 332 332 332 331 332 331 331 330 330 330 330 330 329 328 326 326 325 324 324 324 323 323 322 320 319 318 317 316 315 315 315 318 317 308 301 301 302 297 296 296 295 293

GFSGL_850_thetae_024.txt.gz
Theta_e
326 326 326 327 326 325 326 326 324 327 326 323 321 323 325 324 323 323 323 324 324 323 325 324 325 328 328 327 327 327 327 328 328 327 327 327 327 325 325 325 325 326 326
325 325 326 326 326 326 326 325 326 326 326 326 321 320 323 324 323 323 324 325 324 323 323 325 327 326 328 327 328 328 327 328 328 328 328 326 325 326 326 327 327 327 327
323 323 326 325 326 326 326 325 325 326 326 325 324 323 321 324 324 325 325 324 323 323 322 324 327 328 328 327 328 328 328 328 327 328 326 326 326 326 327 327 326 327 321
321 323 325 324 326 326 326 325 326 325 325 325 325 325 325 325 324 324 324 324 325 327 327 327 328 328 328 328 329 328 328 327 327 327 327 327 326 326 326 326 326 327 314
321 323 324 325 326 326 327 326 327 325 324 325 324 325 326 325 326 326 325 325 325 326 327 328 328 328 328 328 328 328 328 327 327 327 327 327 327 326 325 326 326 323 313
321 322 323 326 326 324 327 327 328 328 325 324 326 325 326 326 325 326 325 324 325 328 328 327 327 328 328 327 327 328 326 327 327 327 327 327 326 326 326 326 324 312 315
321 321 322 324 326 323 327 328 328 328 328 328 327 326 325 324 324 326 326 325 326 328 326 328 328 327 327 326 326 326 326 326 326 327 327 327 326 326 323 318 311 314 319
322 320 321 324 323 323 323 322 322 327 328 328 327 328 328 327 323 324 326 325 326 326 326 326 327 326 325 325 325 325 324 325 325 325 327 323 318 313 314 315 318 321 321
323 320 319 325 322 321 322 322 320 328 329 327 326 327 328 328 326 327 326 326 327 327 327 326 327 324 324 325 324 324 321 319 319 319 319 317 317 319 320 320 319 320 322
324 320 319 321 324 320 320 319 322 328 328 328 327 327 328 328 327 327 326 326 326 325 325 325 325 325 325 324 322 320 320 320 321 321 321 322 321 321 321 320 318 316 315
324 320 318 318 325 324 319 318 320 327 327 328 327 327 327 328 327 328 328 325 326 326 325 325 325 325 323 322 321 321 322 323 322 321 321 323 318 313 313 315 317 316 317
324 321 318 318 322 325 322 319 317 322 322 324 321 320 318 322 327 328 328 327 325 326 325 325 326 326 323 320 321 321 322 322 320 320 319 315 313 314 317 318 319 319 320
323 321 318 319 317 321 324 322 320 317 319 318 318 316 316 316 315 316 318 326 327 326 326 325 326 325 322 320 320 321 321 320 319 317 313 313 314 315 316 319 319 320 319
323 322 318 319 317 318 323 322 320 318 316 317 318 319 319 318 317 316 316 317 317 326 327 327 322 317 316 316 318 318 318 317 316 314 314 313 313 314 317 319 320 319 316
322 322 319 319 318 316 318 318 318 317 314 314 315 317 318 320 319 318 317 316 316 317 317 318 317 315 315 315 315 315 315 314 315 316 315 313 311 315 319 319 319 317 312
322 322 321 319 320 318 317 318 319 318 317 314 315 314 313 315 317 318 318 318 318 316 315 315 315 314 314 314 314 314 314 315 317 316 313 311 312 315 318 319 317 313 310
321 321 322 319 320 320 318 318 318 318 319 319 317 315 318 319 318 316 315 315 316 317 314 311 311 312 312 312 313 314 314 315 315 313 310 310 313 316 319 318 315 310 306
322 321 321 319 319 320 320 319 319 318 317 316 317 317 315 318 321 320 319 317 315 313 314 312 311 310 311 312 313 314 314 314 313 311 310 311 314 316 319 318 314 310 301
323 322 321 320 319 319 319 320 320 319 318 316 315 315 315 315 318 319 319 318 313 311 311 312 311 311 311 311 311 312 313 314 313 311 310 311 314 317 318 316 311 307 297
325 323 322 321 320 319 319 320 320 320 320 319 318 316 314 314 313 313 315 314 312 310 309 309 310 311 313 313 311 311 310 311 311 310 310 312 315 318 318 316 310 302 296
326 325 323 322 321 320 319 319 320 320 320 320 319 319 318 315 311 310 310 310 309 309 309 308 307 309 311 312 314 314 313 312 313 312 311 313 316 317 317 313 307 298 296
327 326 325 324 322 322 321 321 321 321 321 321 321 320 320 319 318 313 310 309 309 310 311 312 312 311 308 308 310 313 315 316 316 316 313 316 317 318 316 308 303 297 296
327 327 326 325 325 324 323 323 323 322 322 322 322 322 321 321 320 320 316 313 311 310 311 313 315 316 317 317 316 310 308 310 312 315 315 316 318 317 312 307 299 296 301
328 327 327 328 327 326 326 325 325 325 324 324 323 323 323 322 322 322 322 321 318 315 314 313 314 315 316 317 318 318 318 316 316 311 315 316 317 316 313 303 297 300 303
328 328 328 329 329 329 329 329 329 328 328 327 325 325 326 325 324 324 323 323 323 323 322 321 320 319 319 318 317 317 317 317 319 314 311 314 315 315 310 303 299 301 300
329 330 330 330 330 329 330 330 330 330 330 329 329 328 328 328 327 326 325 324 324 324 323 324 324 323 322 321 320 319 318 317 316 314 312 313 315 311 307 301 301 301 297

GFSGL_850_thetae_027.txt.gz
Theta_e
326 326 327 327 326 325 326 324 325 326 324 323 322 325 323 323 324 324 324 323 323 325 325 325 325 326 328 328 326 327 326 327 327 328 327 327 326 325 326 325 324 325 325
325 326 326 326 326 326 326 325 326 326 325 323 322 324 325 323 323 323 323 324 324 324 325 324 327 328 328 327 327 327 327 326 325 327 327 325 325 326 325 325 326 326 325
325 325 326 326 326 326 325 325 326 326 325 325 321 322 323 324 323 324 324 326 323 324 325 326 327 327 327 327 328 328 328 328 327 327 326 326 325 324 324 325 326 326 326
323 323 325 325 326 326 325 326 325 325 326 326 324 323 323 325 325 325 324 323 322 323 324 326 327 327 328 327 328 328 328 328 328 327 326 325 324 325 325 326 326 320 322
322 323 324 325 326 327 326 328 325 325 325 326 325 325 325 325 325 325 325 325 326 327 328 327 328 328 328 328 328 328 328 328 327 326 326 326 325 326 326 326 326 313 314
322 322 324 327 325 327 327 328 327 324 325 325 326 326 325 326 325 325 325 325 326 328 327 327 328 328 328 328 328 328 327 327 327 327 326 325 326 326 326 326 324 315 319
322 321 325 326 324 326 328 327 328 328 326 326 327 325 325 326 326 325 325 325 326 328 327 327 328 328 327 328 328 327 327 327 327 327 327 326 326 325 325 326 319 316 320
323 321 323 326 324 325 325 325 328 328 328 328 327 327 326 324 324 326 325 326 326 329 328 327 327 327 326 327 326 326 327 327 326 326 325 326 326 326 326 325 313 317 320
324 321 320 323 324 323 322 321 327 328 328 327 328 328 326 324 323 324 325 326 326 325 328 326 325 326 326 326 325 325 325 326 327 327 327 326 323 318 318 313 314 321 321
324 321 319 324 321 322 321 321 328 328 327 327 327 328 326 327 326 326 326 326 326 326 326 327 324 325 325 324 324 322 323 324 325 322 319 315 315 317 319 320 320 321 322
323 322 319 321 323 320 319 321 328 328 327 327 327 328 328 327 326 326 327 327 326 326 326 324 324 325 324 322 321 320 319 318 318 318 319 320 320 321 321 321 319 318 316
323 323 320 319 324 321 319 318 327 327 327 327 326 327 328 328 328 326 326 324 325 325 325 325 325 323 322 321 321 322 321 321 321 321 322 322 319 315 314 316 317 318 318
323 324 320 318 323 325 320 317 321 323 326 322 320 319 326 328 328 328 326 326 325 325 325 324 325 323 321 321 321 323 322 321 321 321 321 314 313 315 317 317 318 318 319
323 324 321 318 319 324 325 321 316 319 319 317 317 317 315 315 319 326 327 326 326 325 325 326 327 325 321 321 321 321 320 320 319 317 314 313 314 315 315 318 319 319 318
322 323 322 318 318 319 322 323 320 315 317 318 318 318 316 315 314 314 320 327 326 326 326 326 325 321 319 319 319 320 319 318 317 315 314 314 313 313 315 317 318 318 317
321 322 323 319 319 316 317 321 320 318 315 314 316 317 318 319 316 315 314 315 316 320 326 326 324 317 314 314 315 316 316 316 315 315 315 315 314 312 314 317 318 318 315
319 321 322 321 318 318 317 319 317 317 317 316 314 315 315 316 318 318 318 318 318 317 317 316 316 315 314 314 315 315 315 314 315 316 317 316 312 311 313 316 317 316 314
321 319 320 321 318 319 318 317 321 320 318 316 316 314 316 318 317 316 316 316 317 317 316 318 314 313 313 313 314 314 314 314 315 316 316 313 310 311 313 315 317 318 315
323 321 320 319 318 318 319 319 320 321 321 321 317 315 315 316 320 322 321 319 316 314 314 314 313 311 310 311 312 312 312 314 315 315 315 312 310 311 313 315 315 316 312
325 323 322 320 319 318 319 320 321 321 321 322 320 315 314 315 315 317 320 320 321 319 314 312 312 312 312 311 311 311 311 312 313 315 315 313 310 310 312 314 314 315 310
326 325 323 322 320 319 318 319 320 320 320 320 319 318 317 314 313 313 312 314 315 316 314 312 310 310 311 311 312 312 312 311 310 309 310 310 310 309 311 313 315 314 306
327 326 324 323 322 320 319 318 318 318 319 319 320 320 319 319 318 318 316 313 311 310 311 311 310 309 309 309 310 311 312 313 313 313 312 310 309 309 310 312 314 312 309
327 326 325 324 323 322 321 320 319 318 318 319 319 320 319 320 319 319 319 319 317 313 310 310 310 310 310 311 311 311 310 309 309 311 314 315 315 315 314 312 313 309 306
327 327 326 325 324 324 323 322 322 321 321 321 321 321 321 321 321 321 321 321 321 320 318 313 311 310 310 312 314 315 316 317 318 317 311 309 313 312 313 313 312 309 305
326 327 327 326 325 325 325 325 324 324 324 323 323 323 323 323 323 323 323 322 322 322 322 321 319 317 315 314 314 314 315 316 316 317 317 315 311 315 316 313 313 308 305
324 324 325 326 325 326 326 326 327 327 326 326 326 326 325 325 324 324 324 324 324 324 323 323 323 323 322 322 321 321 320 320 318 317 316 315 314 315 313 312 310 308 302

GFSGL_850_thetae_030.txt.gz
Theta_e
331 331 331 332 331 331 331 330 329 328 330 328 329 328 329 329 328 327 328 328 328 328 327 329 326 327 329 327 326 326 327 329 327 327 326 327 325 326 325 325 325 325 322
330 330 331 332 331 331 331 331 329 329 329 328 329 329 329 329 329 329 329 329 328 326 325 325 326 327 328 328 328 327 328 328 327 327 326 326 326 325 323 323 324 324 324
327 329 331 332 331 332 331 330 330 329 330 328 329 328 328 328 328 328 328 325 326 324 325 327 327 328 328 328 328 328 327 325 327 326 326 325 324 323 324 324 325 325 323
326 328 330 331 331 331 331 330 330 330 329 328 325 323 324 324 324 324 325 326 323 324 326 328 328 330 329 328 329 328 328 327 326 326 325 325 325 325 325 325 324 324 321
326 328 330 331 331 331 332 331 329 331 328 325 323 322 325 325 325 324 324 326 325 327 327 328 329 329 328 328 329 328 328 327 326 325 325 325 325 325 325 325 324 324 321
326 327 329 331 331 333 332 331 328 326 328 328 326 326 325 325 325 325 326 326 328 329 328 328 329 328 328 328 328 328 328 327 326 325 325 325 324 324 324 323 318 314 320
326 327 329 331 331 332 332 333 328 326 325 327 327 326 326 325 325 325 325 328 329 328 328 328 328 328 328 328 328 327 328 327 327 326 325 324 324 325 326 324 314 320 321
325 325 330 330 330 332 332 332 329 328 328 327 326 325 325 326 326 326 327 327 327 327 327 329 327 327 328 328 328 327 327 327 327 326 324 324 325 325 325 325 318 324 321
325 324 328 329 329 330 329 330 332 329 329 328 328 328 326 325 325 325 327 327 328 327 327 327 326 328 326 327 327 326 327 327 326 326 326 325 326 326 326 326 316 322 322
325 324 326 328 329 329 328 330 332 331 330 328 328 326 325 324 325 325 326 327 327 327 326 327 326 326 325 325 326 326 326 326 326 326 326 326 326 326 326 321 317 323 324
324 324 324 328 328 328 327 330 332 332 332 330 328 328 327 326 326 327 326 326 326 326 326 326 326 325 324 323 324 325 327 326 326 327 326 325 320 318 316 318 324 326 324
324 324 324 328 326 327 326 331 332 333 332 330 329 328 328 326 326 327 327 326 326 326 325 326 325 324 322 320 320 323 325 323 321 321 319 317 319 322 322 321 322 323 321
324 324 324 326 327 326 326 330 332 333 330 328 331 331 328 327 326 326 326 328 327 326 328 328 324 322 321 321 321 319 318 323 323 323 324 323 322 321 318 317 317 317 317
325 325 325 325 327 328 325 325 328 330 328 324 324 330 331 331 327 325 325 325 328 328 325 324 323 321 322 321 323 323 324 321 321 322 322 318 315 314 315 317 317 317 318
326 326 325 324 325 329 328 323 322 326 326 323 321 321 326 330 330 328 327 328 328 328 326 326 325 323 322 322 322 322 323 322 322 322 320 315 314 316 316 316 316 316 314
326 326 325 323 324 325 328 327 324 322 323 323 323 323 321 320 322 327 326 326 327 326 327 328 328 325 323 323 323 323 323 321 321 321 320 318 317 317 316 315 316 316 315
326 326 325 323 323 323 324 327 326 321 316 316 318 320 324 320 316 313 316 323 326 326 328 328 327 323 321 321 321 322 322 322 321 320 320 319 318 317 315 315 315 316 314
326 325 325 323 323 323 322 322 323 323 321 318 314 315 317 319 320 318 317 316 316 317 321 321 322 321 319 318 319 320 320 320 320 320 320 320 319 317 315 315 316 315 314
326 325 323 324 323 322 322 321 321 321 321 321 320 314 315 315 317 319 320 321 320 320 319 319 321 320 320 320 319 319 320 320 321 320 320 320 319 317 316 315 316 314 312
328 326 323 324 323 322 322 322 321 321 321 321 321 322 316 315 316 316 315 315 320 319 318 318 318 318 319 319 318 319 319 319 319 320 319 319 319 317 316 316 315 313 311
329 327 324 325 324 323 322 322 322 322 322 322 321 322 321 314 318 320 321 320 320 320 321 320 319 318 318 318 318 317 317 318 318 318 318 318 318 317 316 316 315 313 309
329 328 325 325 325 324 322 322 322 322 322 322 322 323 322 319 319 319 319 320 321 321 321 321 320 319 318 317 317 316 316 316 317 317 316 317 317 316 315 314 314 311 309
329 329 327 326 325 325 324 321 322 322 322 322 322 322 323 323 322 321 321 321 321 321 321 320 320 320 319 317 317 316 315 315 315 315 316 316 315 315 314 314 312 308 308
329 329 328 326 326 325 325 324 323 322 322 322 322 322 323 324 323 323 322 323 323 324 323 322 321 320 319 318 318 317 316 315 314 314 314 314 315 314 314 312 311 308 308
328 328 328 327 327 326 326 326 326 325 324 324 324 324 324 324 325 324 323 323 324 325 325 324 323 322 319 317 318 318 317 314 313 318 317 316 316 314 312 312 309 308 306
328 328 329 328 328 327 327 327 327 327 327 327 326 326 326 326 326 326 325 325 325 325 325 324 322 322 322 322 319 318 317 314 314 314 316 317 316 315 314 311 309 308 309

GFSGL_850_thetae_033.txt.gz
Theta_e
332 331 332 332 332 332 331 332 330 332 329 330 330 330 330 330 330 327 328 329 324 326 326 327 328 328 329 328 326 325 326 329 329 326 325 326 328 327 324 324 323 324 324
331 331 331 332 332 331 331 331 331 330 329 329 330 330 329 330 329 330 331 331 331 331 330 328 325 329 328 326 328 328 328 329 329 325 325 326 325 324 324 323 323 324 323
330 329 332 332 333 332 332 333 333 330 330 329 329 330 330 330 330 329 330 330 328 324 324 326 326 328 328 328 329 327 328 328 327 326 325 325 324 324 323 323 323 323 322
328 330 331 332 333 332 332 333 331 331 330 329 330 330 330 330 330 329 329 328 325 325 326 328 327 328 327 327 328 326 326 327 326 325 325 325 324 324 324 324 323 322 322
328 330 332 332 333 332 332 332 332 331 330 330 329 330 326 328 326 329 329 324 330 331 329 330 330 329 327 329 328 327 326 326 325 325 325 325 324 324 323 323 322 320 317
329 330 332 332 333 332 332 333 328 332 331 329 325 325 326 329 324 324 326 329 330 332 330 329 329 329 328 328 328 328 327 326 326 325 325 324 324 324 324 324 322 321 319
328 331 332 331 333 331 333 332 327 328 328 328 329 326 329 326 325 326 328 328 329 329 329 329 329 329 328 328 328 328 327 326 326 325 324 324 324 325 324 324 320 318 321
328 330 332 332 332 332 332 332 329 326 326 325 326 327 328 325 325 327 330 328 329 329 329 328 328 328 328 328 327 328 327 326 325 325 325 325 324 324 324 323 318 323 321
327 329 331 330 332 332 332 331 331 332 331 327 325 324 327 326 326 328 329 327 328 328 329 328 327 328 328 329 327 328 327 326 326 325 324 325 324 324 324 319 323 324 320
326 326 330 330 330 331 332 332 331 331 330 330 329 327 325 325 325 328 328 328 328 328 327 328 326 326 327 327 327 327 327 326 326 325 325 324 324 325 325 322 323 323 322
326 326 328 329 330 331 331 333 331 331 330 330 327 326 326 325 325 326 328 328 328 327 327 326 325 326 326 326 327 327 326 326 324 325 325 325 325 326 326 324 322 325 326
327 326 327 329 329 331 331 333 333 331 330 330 328 327 326 324 326 326 326 328 327 327 327 326 324 323 324 326 327 326 326 326 326 326 326 326 326 326 325 322 323 326 326
326 326 327 330 328 329 330 333 332 331 330 331 330 328 326 326 326 326 327 327 326 328 326 326 325 322 320 322 325 326 326 328 328 327 326 323 321 322 323 321 321 324 324
326 327 327 330 328 328 327 331 331 330 327 330 332 332 330 329 327 327 327 326 326 328 327 324 323 320 322 318 321 324 322 322 322 322 322 323 325 324 323 321 320 320 319
326 327 327 328 329 328 325 327 329 330 327 324 331 332 331 330 329 328 329 328 328 329 327 323 322 321 322 322 320 321 325 325 326 325 324 324 322 319 318 316 317 317 317
327 327 327 327 328 330 328 324 325 328 327 323 322 327 332 331 330 327 327 329 330 327 327 327 326 325 324 324 325 324 325 325 325 325 323 321 319 319 320 319 319 319 318
327 327 326 325 327 328 330 329 324 323 325 324 323 322 321 323 326 326 327 328 329 327 329 328 327 325 323 322 323 323 324 324 324 324 323 322 320 320 319 319 319 319 319
328 327 327 324 325 325 328 329 328 325 322 323 323 323 323 320 318 319 327 326 327 327 328 329 327 326 324 322 322 323 324 324 324 323 323 323 321 320 319 319 318 318 319
328 327 327 326 324 324 324 325 327 327 324 320 320 319 322 323 320 315 313 321 325 327 328 328 326 326 325 322 321 322 323 323 323 323 322 322 322 322 320 319 318 318 318
327 326 326 326 324 324 324 323 323 323 324 323 322 320 315 317 318 319 317 316 320 320 319 320 321 322 322 321 320 320 320 321 322 322 322 322 322 322 322 320 318 318 317
329 328 326 326 325 324 323 324 323 323 323 323 323 323 321 313 318 319 319 318 320 322 321 321 320 320 321 322 321 321 321 320 321 321 322 322 322 322 321 320 319 318 318
331 330 327 326 327 325 324 323 324 323 322 323 323 323 322 322 319 319 320 320 319 319 319 321 321 320 319 319 320 321 320 320 321 321 321 321 321 321 321 320 319 318 318
331 331 330 327 327 327 325 323 323 324 323 323 323 323 322 322 323 320 319 320 322 322 322 321 321 322 321 320 319 319 319 319 319 319 320 320 320 320 320 320 319 318 318
332 332 332 330 328 328 326 325 323 323 323 323 323 323 324 323 324 322 321 320 320 321 321 322 322 322 321 321 321 319 319 318 317 317 318 318 319 319 318 319 318 317 316
331 332 331 331 330 328 327 326 325 323 323 323 323 324 324 324 325 325 324 322 322 323 323 323 323 322 321 321 321 321 320 318 318 317 316 316 316 317 317 317 317 316 315
330 331 331 331 330 329 327 327 327 326 326 325 324 324 325 324 324 325 326 325 324 323 323 324 325 326 326 325 323 322 320 319 319 318 317 317 318 317 318 318 317 315 313

GFSGL_850_thetae_036.txt.gz
Theta_e
333 332 331 330 332 332 330 331 330 329 330 328 327 327 328 329 328 326 326 325 325 325 324 325 326 327 329 329 329 328 328 329 328 328 327 326 327 329 327 326 323 324 324
333 332 331 330 333 331 330 330 329 328 329 328 330 329 329 328 328 327 329 326 328 328 327 327 327 327 328 326 327 326 326 329 328 328 326 327 326 328 325 323 324 324 324
331 331 330 330 332 331 332 331 330 329 329 330 329 329 329 328 327 330 330 329 328 327 325 326 326 328 327 327 328 327 327 327 328 325 327 326 324 324 324 324 324 324 323
330 330 331 331 332 331 331 330 330 329 329 330 329 329 329 329 330 330 329 327 326 324 325 326 326 328 325 325 327 326 327 329 327 324 325 324 324 324 324 324 323 323 321
329 332 331 332 331 331 331 331 330 328 329 330 330 328 329 328 329 328 327 326 328 329 328 326 329 327 327 328 328 325 327 326 325 324 324 323 324 323 323 323 322 321 320
330 332 332 333 333 331 332 332 330 329 330 330 328 328 329 329 325 325 328 327 328 329 329 329 329 328 328 329 328 326 327 326 324 324 324 324 323 323 323 323 322 321 318
330 333 332 331 331 331 331 331 329 329 329 326 323 327 329 328 325 324 329 329 329 329 330 329 329 328 328 329 328 327 326 326 325 324 324 324 323 324 323 323 323 321 318
330 333 333 331 331 331 331 331 327 326 328 328 327 330 326 325 325 327 328 329 329 329 328 328 328 328 329 328 327 326 325 325 325 325 325 324 323 324 324 322 320 319 317
330 332 333 332 331 332 331 331 328 329 327 325 326 328 325 325 326 330 329 329 330 329 328 328 327 328 327 328 328 326 326 325 325 325 325 324 324 324 324 318 318 320 322
329 332 331 332 331 332 332 330 330 330 330 328 325 325 326 326 327 327 328 329 328 328 327 327 327 327 328 326 328 327 326 325 325 324 324 324 324 324 320 319 320 321 319
327 331 331 331 332 333 331 330 330 330 330 329 328 326 325 325 326 327 328 329 327 327 326 326 327 327 327 327 326 326 326 325 325 325 324 323 325 321 319 322 324 323 320
327 328 330 331 331 332 332 331 331 330 329 328 325 327 326 325 325 326 328 328 327 327 325 326 326 326 326 327 327 326 326 325 325 325 324 324 324 325 325 322 324 325 325
327 327 330 330 331 329 333 331 331 329 330 328 327 326 326 325 324 326 328 328 327 327 325 323 325 326 327 326 326 326 326 325 325 325 325 325 325 326 326 321 321 324 325
327 327 330 329 331 328 334 330 329 333 332 331 329 328 327 326 326 327 327 327 327 327 325 324 321 322 325 325 327 327 325 325 325 325 326 326 326 326 325 321 320 322 324
328 327 329 329 330 327 331 332 332 330 330 333 332 329 328 327 328 327 325 326 327 326 325 323 320 321 322 326 327 325 325 324 323 323 322 321 320 320 321 320 321 321 322
327 328 328 331 329 327 327 330 329 330 327 331 333 330 328 328 327 326 325 327 327 326 324 321 321 321 318 323 323 324 326 325 324 325 324 323 324 324 323 323 320 318 318
327 328 328 330 330 329 327 325 327 329 328 323 326 332 331 330 327 327 326 328 330 327 325 327 325 323 320 319 317 320 324 324 325 325 324 324 323 321 317 317 318 318 319
326 327 328 328 328 332 330 327 324 326 326 325 322 322 324 331 331 327 327 329 330 329 328 329 328 326 324 323 322 322 325 325 322 325 326 324 323 320 319 320 320 319 320
328 328 327 325 328 327 330 331 329 325 324 325 323 322 322 321 321 318 326 327 328 328 328 330 330 330 326 324 323 323 324 324 325 324 323 324 323 322 320 320 319 319 319
328 328 327 328 325 326 326 328 330 328 327 322 323 323 322 323 321 318 315 326 327 327 326 327 329 329 328 327 324 323 323 324 324 324 324 323 323 323 322 321 321 320 319
329 327 328 329 326 326 325 325 326 327 328 325 322 321 317 318 319 319 315 311 315 322 322 323 325 325 323 323 323 322 321 321 322 323 323 323 322 322 322 323 322 321 320
329 328 327 326 328 326 325 325 325 324 324 326 325 323 323 322 315 315 315 315 313 311 319 321 321 320 319 321 323 322 322 321 320 321 321 323 323 323 322 323 323 322 321
330 330 329 327 326 327 326 324 325 324 324 323 324 324 324 323 323 321 317 314 312 313 313 316 321 322 322 321 320 319 321 322 322 322 322 322 322 322 322 323 322 322 321
331 332 331 330 329 327 327 325 324 324 324 324 323 324 323 323 323 322 322 321 318 318 319 319 318 316 320 322 322 322 321 320 320 320 321 320 321 322 321 321 322 322 321
332 332 333 332 330 330 328 328 326 324 324 324 324 324 324 324 323 323 323 323 322 320 321 322 322 321 320 318 320 322 322 322 321 320 319 319 319 320 320 320 319 320 320
332 333 332 334 333 331 329 329 328 326 325 324 324 324 324 324 324 324 324 324 323 322 322 322 322 322 322 322 322 320 321 322 322 321 320 319 318 317 318 318 319 318 318

GFSGL_850_thetae_039.txt.gz
Theta_e
334 331 331 329 330 331 330 329 328 329 328 326 325 325 328 328 327 326 326 326 323 325 323 325 326 327 327 327 327 328 327 327 328 327 327 327 327 327 326 327 328 326 325
333 331 330 329 330 332 330 329 328 329 328 327 327 327 326 327 327 325 326 325 324 326 325 325 323 324 327 328 328 328 328 328 328 327 326 328 326 325 325 326 323 323 323
332 331 329 329 331 331 330 330 328 329 329 329 327 328 328 327 327 328 327 327 327 326 325 325 327 327 326 327 327 326 327 328 328 327 325 326 327 326 323 322 323 323 323
331 331 329 329 330 330 331 331 329 329 329 329 329 327 328 328 329 329 329 328 325 325 326 326 327 327 327 325 326 327 327 328 327 326 326 326 324 323 324 324 324 323 322
331 330 330 330 330 330 330 330 329 330 330 329 329 328 328 328 329 328 327 326 326 324 325 327 327 326 326 325 327 326 328 328 327 325 324 324 323 324 323 323 323 322 321
330 331 331 331 331 331 331 330 329 329 330 330 329 328 328 326 327 326 325 328 328 327 328 328 328 327 329 328 326 326 327 328 325 324 324 323 323 323 324 323 322 322 318
330 332 331 331 331 331 330 329 329 329 330 330 327 327 327 328 324 326 328 329 329 329 329 329 328 329 328 328 326 327 326 326 325 324 323 324 324 324 323 322 322 323 322
330 333 331 330 330 331 331 330 328 327 328 325 324 326 327 325 326 328 328 329 329 329 329 328 328 328 328 327 326 326 325 325 324 324 324 325 324 324 323 324 323 323 320
332 333 332 330 330 331 331 331 327 327 327 326 326 327 325 326 329 328 329 329 329 328 328 328 327 327 327 327 326 325 324 324 324 324 324 324 324 323 324 323 320 317 315
332 332 332 330 330 331 330 330 329 329 327 326 328 325 325 326 329 328 328 327 327 327 327 327 327 326 327 327 326 325 325 324 324 324 324 323 323 323 322 320 317 315 316
330 332 333 330 329 332 330 330 330 329 330 326 326 326 326 326 327 327 328 328 327 326 326 327 326 326 326 327 326 325 325 325 325 324 324 324 324 322 319 319 318 318 317
328 332 332 332 331 331 330 329 330 329 328 327 326 325 326 325 326 327 327 327 327 326 327 326 327 326 327 327 326 326 325 325 324 324 324 324 324 322 319 322 323 323 321
327 331 331 331 330 330 330 329 328 329 328 325 326 325 325 324 325 326 327 327 326 325 326 326 326 326 327 325 326 326 325 324 324 324 324 324 321 318 322 323 325 324 325
327 330 330 330 331 327 330 328 328 330 329 326 326 326 325 325 324 327 327 327 326 324 325 326 326 327 326 326 326 325 326 325 324 324 323 322 323 324 323 323 322 323 324
326 328 330 329 330 326 328 329 330 331 331 330 328 326 325 324 325 326 327 326 326 323 322 323 325 326 326 326 326 325 325 325 325 324 323 324 325 325 325 324 319 319 322
327 327 328 328 330 325 331 332 333 330 331 332 330 326 326 326 326 326 326 326 326 325 321 321 324 325 325 325 324 324 324 324 324 325 325 325 325 325 324 323 321 319 319
328 327 327 327 328 326 330 330 329 328 327 332 331 329 326 326 326 325 326 325 325 324 323 319 320 323 325 325 325 323 322 322 322 323 321 320 319 318 320 322 322 322 322
326 327 327 327 329 327 327 327 328 329 328 332 331 331 330 329 326 325 326 327 326 324 322 320 319 318 318 324 324 322 324 325 324 325 325 325 324 324 324 323 322 317 317
326 326 327 327 330 329 327 326 325 327 327 326 323 328 330 331 331 327 325 326 326 326 324 327 327 327 324 321 317 317 318 321 323 324 325 324 325 324 323 322 319 319 319
327 326 326 327 329 329 331 329 328 327 325 325 325 322 323 327 329 327 326 326 327 327 324 326 328 330 328 327 324 322 322 322 322 323 323 323 324 325 324 323 322 320 320
327 327 326 326 326 329 327 331 330 330 328 327 323 319 321 320 320 320 320 324 325 325 326 325 327 328 329 329 327 325 324 323 323 323 324 324 324 323 323 323 323 323 322
327 327 327 327 328 325 327 326 327 329 330 329 328 326 323 318 318 318 317 315 313 321 324 324 325 325 328 327 325 327 326 324 322 323 323 323 324 324 324 323 323 322 322
328 327 327 326 327 329 326 326 325 326 326 327 328 327 326 323 322 321 318 314 314 314 311 312 313 314 317 324 326 323 323 323 322 321 321 320 320 321 322 322 323 322 322
329 329 328 328 326 327 328 326 326 324 325 324 324 326 325 324 323 323 322 322 321 317 314 312 312 311 314 318 320 321 320 320 320 321 322 322 322 322 322 321 322 323 322
330 329 329 329 329 328 326 328 327 325 324 325 324 323 323 324 324 323 323 322 322 322 321 318 313 312 312 312 315 319 321 323 323 322 320 319 320 321 321 321 321 321 322
332 332 333 330 330 330 330 328 327 328 326 324 324 324 324 323 323 323 323 323 323 323 322 323 321 317 317 318 318 318 316 318 322 323 323 322 321 320 320 320 320 320 321

GFSGL_850_thetae_042.txt.gz
Theta_e
331 327 328 330 330 330 331 329 328 329 327 326 326 324 327 327 326 326 325 326 324 327 326 326 326 326 326 326 325 327 326 325 327 328 329 330 330 330 328 326 329 330 328
329 330 330 328 329 330 330 329 328 327 327 325 325 326 327 327 327 324 325 325 324 325 325 325 326 326 327 327 327 325 327 326 325 328 326 326 327 327 324 327 328 326 325
331 330 329 328 330 331 330 329 328 327 329 329 328 328 327 326 326 327 326 325 327 326 326 325 324 325 325 327 328 328 327 326 326 327 325 325 324 324 325 325 324 324 322
331 330 329 329 329 330 330 328 328 328 329 329 328 327 328 327 327 329 328 327 326 324 326 326 326 326 327 327 327 327 327 327 327 326 325 324 325 325 325 323 321 322 322
330 330 328 329 330 330 330 330 327 329 329 327 328 326 327 328 328 328 327 326 324 325 325 326 327 327 326 325 325 327 327 327 327 327 324 324 323 322 322 321 322 322 322
331 330 330 330 330 330 329 329 328 329 330 327 329 328 328 328 328 327 326 327 328 325 327 327 327 326 327 325 325 326 327 327 327 324 324 323 323 322 323 323 322 322 319
331 330 331 330 330 330 330 329 329 329 330 329 329 327 327 326 325 326 327 328 328 328 328 328 327 328 328 327 326 326 328 328 327 325 323 323 322 323 323 322 322 322 320
330 331 331 330 331 331 330 328 329 329 330 329 329 327 326 326 325 329 328 328 329 328 328 328 328 327 327 326 326 327 326 327 326 325 323 324 323 323 324 322 321 322 321
330 331 331 330 330 330 330 330 328 328 327 325 325 324 325 325 325 328 328 327 328 327 327 327 328 327 326 326 325 325 325 325 324 323 324 323 324 323 322 322 322 321 319
330 332 331 330 330 330 330 330 327 327 327 326 328 325 325 326 327 327 328 327 327 327 327 326 326 326 326 326 324 324 324 324 324 324 324 323 323 322 323 323 323 323 321
329 332 332 329 330 330 330 329 329 328 327 326 327 325 326 328 328 327 327 327 327 326 326 326 326 326 326 326 325 324 324 324 324 324 324 324 323 323 323 322 318 315 313
329 331 332 329 329 330 329 329 330 329 329 326 327 325 327 327 327 327 327 327 326 326 326 325 326 326 327 326 325 325 324 324 324 324 324 323 323 322 321 318 318 319 319
330 331 333 330 331 330 328 328 329 329 328 327 325 325 326 326 326 327 327 326 325 326 326 326 326 326 326 325 325 325 324 324 324 323 323 324 322 320 319 319 321 321 322
329 331 332 331 331 327 329 327 328 329 328 325 324 325 325 325 326 327 327 326 325 326 326 326 326 326 326 326 325 325 325 324 324 323 323 323 323 319 320 322 323 323 324
328 330 330 330 330 328 328 326 328 330 330 327 326 325 324 324 324 326 326 325 325 325 325 326 325 325 326 326 325 325 325 324 324 323 323 322 320 318 320 321 321 322 324
327 329 330 330 329 328 327 327 329 331 332 330 327 325 325 325 324 325 326 325 323 323 324 326 326 327 327 327 324 325 325 324 323 323 323 323 323 323 324 324 323 320 318
327 327 329 329 328 327 328 329 330 331 331 332 328 326 326 324 325 326 326 325 324 321 323 325 325 325 325 325 325 325 325 325 324 324 324 323 323 324 324 324 324 322 318
326 327 327 327 327 326 325 331 331 328 326 332 329 326 326 326 326 326 326 326 325 324 320 323 324 324 324 324 323 323 323 323 324 324 324 325 325 323 321 320 318 319 320
326 326 326 326 326 326 323 328 329 328 328 325 329 328 327 326 325 325 325 325 325 324 324 321 319 323 324 324 323 323 323 322 322 321 320 320 320 322 322 323 323 322 322
326 327 326 326 326 327 327 325 326 326 327 327 325 325 329 328 326 324 325 325 324 324 324 322 320 319 318 317 319 323 322 320 321 322 321 321 322 323 324 324 324 323 323
327 327 326 326 326 325 328 328 326 326 325 326 326 325 322 322 327 329 327 325 325 325 325 323 324 324 325 326 325 321 318 316 315 314 318 320 321 321 321 323 324 324 324
327 327 327 326 326 325 326 328 329 329 328 328 326 325 324 323 321 320 321 324 324 324 325 326 324 324 324 326 327 329 329 327 322 321 321 322 323 323 323 323 324 323 323
328 327 327 327 326 326 326 327 328 329 330 329 329 329 327 324 322 321 319 318 316 316 315 320 324 325 325 327 328 329 328 328 327 325 324 323 322 322 323 323 324 324 324
328 328 327 327 327 326 326 327 326 327 326 327 327 328 328 328 327 326 323 322 320 318 315 314 313 312 315 320 324 325 328 328 325 324 325 325 324 322 321 321 320 320 320
329 329 328 327 327 327 327 327 328 326 326 325 326 326 325 325 325 325 325 324 323 322 321 321 318 314 312 311 311 311 315 325 327 325 323 322 322 322 322 322 322 322 321
331 331 330 330 329 328 327 327 326 328 328 326 326 325 325 324 324 323 323 323 323 323 323 322 322 322 321 320 318 313 312 312 316 320 321 322 322 322 321 320 320 320 321

GFSGL_850_thetae_045.txt.gz
Theta_e
335 334 331 327 327 329 329 330 328 326 326 325 325 323 325 325 326 326 325 326 324 326 326 326 326 326 326 324 326 325 325 324 325 327 329 329 330 329 329 332 331 330 331
333 325 326 329 329 329 330 328 327 328 325 325 324 324 327 327 327 326 326 325 323 326 324 325 325 326 325 325 325 325 325 325 325 325 328 329 330 326 326 329 330 330 329
325 329 328 328 329 330 330 328 327 327 326 326 326 327 326 327 326 325 326 325 324 326 325 326 325 325 326 326 326 325 326 326 326 327 326 327 326 326 326 327 328 325 327
327 330 328 328 329 329 330 329 327 328 328 328 327 327 327 326 327 327 326 326 327 326 325 326 326 324 324 324 327 326 326 326 326 328 324 325 325 323 324 320 320 322 322
328 329 328 328 329 329 329 328 328 328 328 328 327 326 327 328 328 327 328 327 326 325 325 326 326 326 327 327 327 327 327 326 326 327 324 323 323 322 322 321 321 321 321
330 330 328 329 329 329 330 330 327 328 327 327 327 327 327 327 327 327 326 325 325 324 325 326 327 326 326 326 325 327 327 326 328 325 323 323 322 322 322 322 322 322 321
330 330 329 330 329 329 329 329 328 328 328 328 328 328 328 327 325 326 326 327 328 328 328 328 327 327 327 326 324 326 327 327 326 326 324 324 324 324 323 322 322 322 321
330 330 330 330 330 329 330 329 328 328 329 329 329 328 327 326 324 325 328 328 328 328 328 328 328 327 326 326 326 326 326 326 327 325 324 323 323 323 323 322 322 322 321
329 330 331 330 331 330 330 328 328 328 329 329 329 328 325 326 324 326 328 327 328 327 327 327 327 326 326 326 327 327 327 326 325 324 323 323 323 322 323 323 322 321 319
328 330 330 329 330 330 330 330 327 328 328 326 325 325 325 325 325 327 327 326 326 326 326 326 326 325 324 324 326 325 325 325 325 324 323 323 322 323 323 322 322 322 322
328 330 330 329 330 330 330 330 327 327 327 325 328 324 325 327 327 327 326 327 327 326 326 326 325 325 324 324 324 325 324 324 324 323 323 323 323 323 322 322 322 322 322
329 330 331 329 329 330 330 330 328 328 326 326 327 325 326 329 327 327 327 327 326 326 325 324 324 325 324 324 324 324 324 324 323 323 323 323 323 323 323 323 322 321 319
329 331 331 329 328 329 329 329 329 329 328 326 326 325 326 326 326 327 327 326 325 326 325 324 325 326 325 324 324 323 323 324 324 323 324 323 323 323 322 320 316 315 315
328 330 331 331 330 330 329 329 328 328 328 328 326 325 326 326 325 326 326 325 326 325 325 324 326 326 325 325 324 324 324 324 324 323 324 323 323 321 319 317 318 319 319
328 330 331 332 330 326 327 327 327 329 328 326 325 325 325 325 325 326 326 325 326 326 325 325 325 325 325 325 325 324 324 324 323 324 323 323 322 319 318 317 319 321 322
327 329 331 331 330 328 324 325 327 329 330 328 325 326 324 324 324 326 326 325 325 325 325 324 324 324 324 325 324 325 324 324 323 323 323 322 322 319 317 319 320 322 322
326 328 329 330 329 328 324 325 328 330 331 331 327 325 325 324 324 325 326 324 324 324 325 325 324 324 325 324 324 324 325 324 324 323 323 322 319 317 318 321 322 321 319
326 326 327 328 329 327 322 324 328 330 329 331 329 326 325 325 324 325 326 325 323 322 324 325 326 326 326 325 324 324 324 323 323 322 323 322 322 322 323 323 324 323 321
325 325 327 327 327 327 325 323 327 330 327 328 327 326 326 325 324 325 326 325 324 322 321 323 324 325 325 324 324 324 323 323 323 323 323 323 323 322 322 323 324 321 320
325 324 325 327 327 327 326 324 326 329 327 327 325 327 325 326 325 325 326 326 324 324 322 320 322 323 323 323 323 323 324 324 324 324 323 323 324 324 323 320 319 320 322
328 325 324 326 326 326 326 326 322 326 328 327 327 324 325 326 325 324 324 324 325 325 324 324 322 319 319 323 324 324 324 323 323 323 322 321 320 319 319 321 323 323 323
328 328 325 325 326 326 326 325 325 324 323 324 324 325 325 324 323 324 325 325 324 324 324 324 323 323 321 319 318 317 317 318 320 320 318 317 317 316 318 320 321 321 322
330 328 327 326 327 326 326 325 324 326 327 327 327 326 326 325 324 323 322 320 319 319 322 324 324 325 324 323 323 323 324 324 324 325 326 325 321 319 319 321 322 322 322
331 329 328 327 327 327 326 326 325 325 326 326 327 328 328 328 328 328 327 325 324 322 320 318 317 317 321 324 324 324 324 324 326 327 328 328 327 327 326 324 323 323 323
328 328 328 328 328 327 327 327 326 326 326 326 327 327 326 326 326 326 325 326 325 325 324 322 321 320 318 315 314 315 320 323 324 326 327 327 327 327 324 323 324 324 323
328 328 328 328 327 327 327 327 327 327 327 327 327 327 326 326 325 325 325 325 324 324 323 323 323 323 322 322 321 320 318 316 314 313 315 318 321 325 324 322 321 320 320

GFSGL_850_thetae_051.txt.gz
Theta_e
336 334 334 334 333 332 332 331 329 328 328 327 325 324 323 323 324 325 325 326 326 326 325 325 326 326 324 324 324 325 326 327 327 326 325 328 328 327 328 328 327 325 327
334 333 333 332 331 331 329 327 328 328 325 324 325 323 324 325 326 325 325 325 324 326 326 326 326 326 326 326 326 325 325 326 325 325 327 328 328 329 331 328 329 328 330
334 333 331 329 324 326 328 329 328 326 326 325 324 324 326 327 326 326 325 325 324 325 325 325 325 325 326 326 326 325 326 325 325 327 326 327 328 327 332 331 331 331 330
333 330 322 323 328 329 329 328 327 326 325 323 324 326 325 326 326 326 326 325 325 325 324 325 325 326 325 325 325 325 325 325 326 324 324 326 326 327 329 329 328 329 325
329 322 325 328 329 330 329 327 326 326 326 326 326 326 326 326 327 327 327 326 327 327 324 325 326 326 325 325 326 326 326 325 326 325 326 326 325 324 325 323 324 324 319
323 327 327 328 329 329 329 328 327 328 327 326 326 326 326 327 327 327 326 327 327 324 324 327 326 326 325 324 326 326 326 326 326 327 326 324 324 324 323 322 321 320 319
326 328 328 329 329 329 329 328 327 327 327 326 327 326 327 327 327 325 326 327 326 327 327 327 327 326 325 326 327 326 326 326 326 326 325 323 323 325 324 321 322 321 319
329 328 328 329 329 329 329 328 327 327 327 327 327 327 328 326 325 325 326 327 328 328 327 327 326 326 326 325 327 326 326 326 325 325 324 323 323 323 323 323 322 321 320
331 330 328 330 329 328 328 328 327 328 328 328 328 328 328 326 325 325 328 328 326 327 328 327 327 326 326 326 326 326 326 325 324 324 323 323 323 321 322 323 321 321 320
332 331 329 330 329 328 328 328 328 328 328 328 329 328 328 326 325 327 326 326 326 326 327 326 325 326 327 326 325 325 325 325 325 324 323 322 322 322 322 322 321 321 321
332 331 329 330 330 329 329 329 328 328 329 328 328 326 325 324 326 327 326 326 326 325 325 324 324 326 326 327 325 325 325 325 325 324 323 322 322 322 322 322 322 321 321
331 330 330 329 330 330 330 330 329 328 328 326 326 325 325 325 325 325 325 325 325 326 324 324 323 325 326 326 325 325 325 325 324 322 323 322 322 322 322 322 322 321 321
330 329 330 329 329 330 330 330 329 328 328 327 326 325 325 325 326 326 326 326 325 326 324 323 323 324 325 325 325 325 325 325 323 323 323 322 322 323 322 322 322 322 321
329 329 331 329 328 329 330 330 329 328 328 327 326 325 325 326 327 325 326 326 325 325 325 324 323 324 324 324 324 325 325 324 323 323 322 323 322 322 322 322 322 321 320
328 329 330 331 329 329 329 329 328 328 327 326 327 326 325 326 326 326 325 326 325 324 325 324 323 324 323 323 323 323 323 323 322 322 322 323 323 322 322 322 321 322 320
327 329 330 331 330 330 328 328 328 328 326 326 326 326 325 325 326 326 325 325 326 325 325 324 324 323 322 323 323 322 322 322 323 322 322 322 322 321 322 322 321 320 320
326 328 329 330 331 330 326 327 328 329 327 326 325 324 325 325 325 325 325 325 325 325 325 325 324 323 322 323 323 323 323 323 323 323 324 323 323 323 321 320 318 320 321
326 327 328 329 331 330 327 326 328 329 330 327 325 325 324 325 324 326 324 325 324 324 324 325 324 324 323 323 323 323 323 323 323 323 324 324 323 323 319 320 320 321 322
326 327 327 327 329 331 328 326 330 330 330 330 326 325 324 324 324 325 325 324 324 324 323 323 324 324 324 324 324 324 323 323 323 323 324 324 323 323 323 321 321 320 321
325 325 326 326 328 330 329 325 328 329 329 328 327 325 325 324 324 324 325 325 323 322 323 324 324 323 323 324 323 324 323 324 323 323 324 324 323 323 324 324 323 323 322
324 324 325 325 326 329 328 327 325 326 328 326 326 325 325 325 324 324 324 325 324 324 322 323 324 324 324 323 323 323 324 325 325 324 324 324 323 323 321 324 325 325 325
325 323 323 324 325 327 328 327 325 324 328 327 327 326 325 325 325 324 324 325 325 324 324 323 322 321 322 323 323 323 324 323 323 323 323 324 324 323 324 325 325 326 326
327 325 325 324 324 324 326 328 327 326 325 327 327 325 325 324 323 322 321 322 323 324 324 324 324 324 323 323 321 321 321 322 322 323 323 323 323 324 324 325 325 325 325
327 327 326 326 326 325 325 327 328 327 327 325 324 323 323 324 324 325 325 325 324 323 322 321 320 321 322 323 324 324 323 322 320 320 320 321 323 324 322 324 324 323 323
327 327 326 326 326 326 326 327 327 327 327 326 326 326 326 326 326 326 326 326 326 326 326 326 326 326 325 324 323 321 320 319 321 323 324 323 322 322 324 325 325 326 326
327 327 327 326 326 326 326 326 326 326 326 326 326 327 327 327 326 326 326 327 326 326 326 325 325 325 324 324 325 325 325 324 324 324 323 324 325 325 325 325 326 326 326

GFSGL_850_thetae_054.txt.gz
Theta_e
344 343 341 339 337 335 335 335 334 330 332 334 334 332 331 330 330 330 332 331 331 330 330 329 329 328 328 330 329 330 330 330 331 329 327 325 325 325 327 328 326 324 324
341 339 339 338 338 337 337 336 331 334 334 333 331 331 330 331 332 332 332 331 331 331 330 329 329 328 328 329 330 324 331 330 330 326 326 327 327 327 329 330 326 326 326
339 338 338 338 337 336 335 334 334 334 332 331 331 330 330 331 332 331 331 331 331 327 325 326 327 326 327 328 330 328 329 328 330 326 327 328 328 330 331 328 329 327 331
337 336 336 335 333 333 334 335 333 333 332 331 331 329 330 331 332 331 331 331 328 325 325 325 324 325 325 327 328 326 330 329 328 327 327 328 325 328 331 330 330 330 331
336 334 332 332 334 335 335 334 333 332 331 330 330 330 331 331 331 331 331 329 330 326 324 325 325 326 325 326 328 329 327 328 326 326 327 327 326 326 328 330 329 328 326
332 331 332 333 335 335 334 333 332 331 332 331 331 331 331 330 327 326 327 330 330 326 324 326 326 326 325 325 327 328 329 328 326 325 325 326 326 327 326 328 328 326 320
330 331 333 334 334 334 334 333 332 332 332 331 331 331 331 327 326 325 326 330 330 326 326 326 327 326 325 325 326 327 326 326 326 326 326 325 325 326 326 323 324 323 320
330 331 333 333 333 333 333 333 333 331 332 328 328 328 329 326 325 325 326 329 328 328 327 326 326 326 326 327 327 327 326 326 326 326 326 325 324 324 325 325 323 322 320
331 332 333 333 333 333 334 333 332 331 329 331 331 330 330 327 325 326 328 328 327 328 328 326 326 326 326 327 327 326 327 326 326 325 324 323 324 323 323 323 322 322 319
331 332 333 333 333 333 333 333 332 331 330 331 331 329 329 325 325 327 327 326 326 326 326 327 326 326 326 326 329 327 327 325 325 324 322 322 322 322 322 322 322 321 320
332 331 333 333 334 334 333 333 332 331 330 330 330 330 328 327 326 326 326 326 326 326 326 325 325 327 326 326 327 326 325 324 324 323 322 322 321 321 321 321 321 321 321
331 331 332 334 334 333 333 333 331 330 329 328 329 328 326 325 326 326 326 325 326 325 324 324 325 326 327 326 326 326 325 324 324 323 322 322 322 322 322 321 321 322 324
331 331 332 334 334 334 334 332 330 329 330 328 328 328 325 326 325 326 326 325 325 325 324 323 325 326 326 326 326 325 325 325 324 323 323 322 322 322 322 321 322 322 321
331 331 331 333 334 333 333 331 331 330 329 329 329 328 326 326 326 326 326 326 325 325 324 324 325 325 325 325 325 325 325 325 323 323 323 323 322 322 322 322 322 322 324
331 331 332 332 332 332 332 331 330 328 329 329 329 329 328 326 326 326 326 326 325 325 324 323 324 325 324 324 324 325 325 324 323 323 322 322 322 322 322 323 324 325 324
331 331 331 331 333 331 331 329 328 328 327 327 327 329 328 327 326 325 326 325 325 325 323 323 324 324 323 322 323 324 323 323 323 323 323 323 324 324 324 323 325 325 325
331 330 330 332 332 331 331 330 328 328 326 326 326 328 325 325 326 325 326 326 325 325 324 324 323 323 323 323 323 323 323 323 323 323 325 325 325 324 323 325 326 326 325
331 331 330 330 331 332 329 331 331 328 327 325 325 325 325 325 326 325 325 325 325 325 325 324 323 322 322 322 322 322 324 324 325 326 326 324 324 325 325 326 326 324 322
330 330 329 330 330 330 328 330 332 332 330 328 325 324 325 325 326 325 325 326 324 324 325 325 325 325 324 322 324 326 326 326 326 326 325 325 325 327 326 325 323 322 322
329 329 330 330 331 330 328 330 332 333 332 329 327 326 324 324 325 325 324 326 326 326 325 324 324 326 325 325 326 326 327 326 327 326 326 326 326 325 324 323 322 322 323
328 329 330 330 330 330 328 328 330 331 331 331 330 327 325 326 326 324 325 325 327 327 329 328 327 326 326 327 327 326 326 326 326 327 327 328 327 326 326 325 325 325 324
327 328 328 329 329 330 329 327 326 329 329 330 330 325 325 328 328 328 327 327 328 329 328 327 328 329 328 327 327 327 326 326 327 327 327 328 327 327 327 326 326 325 325
326 328 327 328 328 329 329 329 327 326 327 328 329 324 325 329 329 329 328 328 329 330 330 329 328 327 327 328 328 328 328 328 327 327 328 328 328 328 328 327 327 326 327
329 326 327 327 328 328 328 329 329 328 326 327 328 327 327 328 328 327 327 327 328 328 329 329 329 329 328 328 328 328 328 327 328 328 328 328 328 328 328 328 327 327 327
331 330 329 329 329 328 330 331 331 330 328 328 328 328 328 328 329 330 331 331 331 331 331 330 330 329 329 329 328 327 327 326 326 327 327 327 327 327 326 325 325 325 325
330 331 331 330 331 331 331 331 331 331 330 329 329 329 329 329 329 329 329 329 329 330 330 330 330 330 329 329 328 328 328 328 327 325 324 326 326 326 325 325 326 326 325

GFSGL_850_thetae_057.txt.gz
Theta_e
348 348 348 347 346 344 341 341 341 339 338 336 336 336 336 334 333 330 332 332 331 331 331 330 331 328 329 329 331 332 332 328 331 330 327 328 329 329 327 328 329 328 321
347 347 346 344 342 342 341 340 338 337 336 335 336 335 333 332 332 332 332 332 332 332 331 331 331 328 325 328 329 329 330 330 329 329 327 326 325 328 328 326 328 326 322
344 343 342 342 341 340 339 337 336 335 335 335 334 332 331 331 332 332 332 331 333 331 329 327 329 330 328 327 330 332 330 329 330 327 325 326 327 331 328 329 327 327 327
342 341 341 341 339 338 336 335 334 335 334 333 332 331 331 331 331 332 331 333 332 326 325 325 324 326 325 327 328 331 328 328 329 326 327 328 329 329 329 329 328 329 330
340 340 339 338 336 335 335 335 335 335 333 332 332 331 331 331 331 331 333 332 332 326 324 325 325 325 324 325 329 328 329 330 329 327 328 327 327 329 330 329 330 329 330
338 337 335 334 335 335 335 334 334 333 333 331 330 330 331 331 331 329 329 332 331 329 325 325 324 325 326 325 327 329 329 331 329 326 327 325 326 327 330 328 328 328 323
335 333 333 334 335 334 334 333 334 334 331 331 331 331 332 331 326 326 326 330 330 330 324 324 326 325 325 325 326 328 329 329 326 325 325 326 326 326 328 328 328 327 326
333 332 333 334 335 335 334 333 334 335 334 333 334 333 332 327 325 324 326 329 329 329 327 325 325 327 326 325 326 328 328 327 326 326 326 327 326 326 328 328 327 327 324
331 333 333 334 334 334 334 333 334 333 331 333 333 333 333 326 324 325 326 329 329 328 327 325 326 328 326 327 327 328 327 326 327 326 326 325 325 326 326 327 327 326 321
332 332 333 333 334 334 334 334 335 334 333 333 332 333 332 327 325 326 329 329 328 327 327 327 326 326 326 327 328 328 328 327 327 325 323 323 324 325 325 325 326 325 321
332 332 333 332 333 333 334 335 334 333 333 332 331 332 330 329 326 326 326 330 327 327 327 326 326 326 326 327 327 328 327 326 325 323 322 323 324 322 321 322 322 322 321
331 332 334 333 334 335 334 333 332 333 334 332 331 330 329 328 326 326 326 327 326 326 327 326 325 327 326 327 327 328 326 325 324 323 322 322 322 321 321 321 322 322 321
331 332 334 333 334 334 335 333 335 334 332 332 330 329 328 327 326 326 325 325 326 328 325 324 326 327 326 327 327 326 324 324 324 323 321 320 321 321 321 321 321 322 324
332 332 334 333 334 335 333 333 332 332 332 330 330 329 328 329 326 326 326 326 325 325 324 324 327 327 327 326 326 325 324 324 324 325 324 322 322 322 321 321 321 324 325
332 331 331 334 334 334 333 332 332 331 331 330 329 328 329 329 329 327 326 327 325 325 324 324 326 326 325 325 325 325 325 325 323 324 323 323 322 321 321 321 323 324 325
331 331 331 331 332 333 332 331 330 328 328 330 330 329 329 329 326 326 326 326 325 325 324 324 325 325 325 324 324 325 325 324 323 323 323 323 323 322 322 323 324 325 325
331 330 331 331 330 330 332 332 329 327 326 328 329 329 327 325 326 326 325 325 325 325 324 324 324 324 324 324 325 325 325 324 324 324 323 323 323 323 323 324 325 325 325
331 331 330 332 330 329 332 332 331 329 328 326 327 327 325 326 325 327 326 326 324 324 324 324 324 323 323 324 324 324 324 324 324 325 325 324 325 326 324 325 325 325 326
331 330 329 330 330 329 331 332 331 330 329 328 326 326 325 326 325 325 326 326 325 325 325 325 324 323 323 323 323 323 325 326 326 326 326 326 326 325 326 326 327 327 326
331 329 330 329 330 330 330 331 333 330 330 329 327 326 325 325 325 325 326 327 327 325 326 328 326 325 323 324 325 326 327 327 326 327 327 328 326 326 328 327 327 326 325
330 329 330 330 329 330 330 332 333 332 331 330 329 327 324 326 326 325 327 326 327 327 326 328 328 328 326 325 326 326 326 327 327 328 327 326 327 328 328 327 325 324 323
329 328 330 330 329 329 328 331 332 332 331 331 331 328 325 328 329 328 327 328 328 328 329 329 328 328 329 328 327 328 327 328 328 328 328 328 328 329 328 326 325 325 326
328 328 329 330 329 329 328 327 329 330 330 332 330 325 327 329 330 330 330 330 330 329 329 329 330 329 329 328 328 328 329 328 328 329 329 328 329 328 327 327 327 327 327
328 328 328 329 328 330 328 328 326 327 328 330 329 327 329 331 330 330 330 330 330 330 330 329 328 328 328 328 329 329 329 329 329 329 329 329 329 329 328 329 329 328 328
327 328 327 328 328 328 328 329 328 327 326 328 329 327 327 327 328 328 329 328 329 329 329 329 329 329 330 330 328 328 328 328 328 329 329 330 329 328 328 328 328 327 327
328 328 327 329 329 330 330 331 330 329 330 329 329 328 328 329 329 330 330 330 330 330 331 329 328 328 328 328 328 328 328 328 327 327 327 327 328 328 328 327 327 327 326

GFSGL_850_thetae_060.txt.gz
Theta_e
349 350 350 351 350 350 349 345 342 341 341 337 338 336 335 334 334 331 333 332 331 330 330 330 329 328 326 327 329 331 330 327 329 330 328 328 330 328 327 327 328 322 319
351 350 350 349 348 348 344 341 340 339 339 337 336 333 334 335 333 332 331 332 331 330 330 330 330 329 326 327 328 330 331 329 326 329 331 328 327 328 327 328 328 326 319
349 348 348 347 344 342 342 341 339 338 336 335 335 334 334 333 331 331 331 332 333 330 330 329 328 328 327 325 327 327 329 328 328 328 327 327 327 330 328 330 329 327 321
347 345 344 342 341 341 340 338 337 336 335 335 335 333 332 331 330 330 332 331 331 329 326 325 326 327 326 326 326 329 329 328 330 329 326 325 327 328 331 328 328 326 324
344 343 341 341 340 339 338 336 335 335 334 334 332 332 331 332 329 331 332 332 331 329 325 324 324 324 325 326 327 327 329 328 329 327 326 328 327 328 329 328 329 328 327
342 342 341 340 339 336 335 335 335 335 334 333 332 331 330 331 331 330 331 331 330 329 325 325 323 324 325 324 326 328 328 329 328 330 327 329 328 327 328 327 328 326 327
340 340 338 335 336 336 336 334 335 334 333 332 330 330 330 332 331 330 327 326 329 329 328 324 324 326 325 325 325 328 328 329 328 327 327 326 326 326 327 328 327 328 326
338 335 335 336 336 334 334 334 333 333 331 330 331 331 331 330 327 325 325 326 329 329 327 325 325 326 325 326 326 327 328 327 326 326 325 326 326 327 328 327 326 327 327
334 334 334 336 335 334 333 333 333 333 333 332 333 332 330 326 324 324 325 327 329 328 327 326 327 327 326 327 327 328 326 326 325 326 326 326 326 326 327 327 325 326 325
333 334 334 335 335 335 333 333 334 332 330 330 331 331 330 327 324 325 328 329 328 328 327 327 326 327 326 328 328 328 327 326 326 325 325 325 325 325 326 327 326 326 325
333 333 334 333 333 334 333 334 333 333 331 330 331 331 330 327 325 328 329 329 328 327 327 326 326 326 327 327 328 327 326 327 326 323 323 323 324 324 324 325 326 326 325
333 333 335 332 332 333 334 334 334 333 331 331 332 330 330 328 326 326 326 329 327 326 328 326 325 326 327 327 328 328 326 325 323 321 321 322 322 323 322 323 324 325 323
332 335 332 331 331 333 333 333 331 332 331 331 330 330 329 327 326 326 326 325 327 328 326 325 325 326 326 327 328 326 325 324 322 322 322 323 323 322 321 322 323 321 321
335 334 332 331 334 333 333 332 332 331 331 331 330 329 328 328 326 325 325 325 325 326 324 325 326 325 326 326 327 325 325 324 323 321 321 321 322 321 322 323 322 321 323
335 335 332 331 333 333 333 332 331 331 331 330 330 329 327 328 327 326 326 325 325 325 324 326 326 326 326 326 325 324 324 323 323 321 322 322 322 323 322 322 321 324 325
334 335 332 332 334 333 332 332 332 331 331 330 329 330 329 328 328 328 325 326 325 325 324 326 326 326 325 325 324 325 324 324 323 322 321 323 322 323 322 322 322 323 324
331 332 332 334 334 333 332 330 331 328 329 329 329 328 328 329 326 326 326 326 325 324 323 324 325 325 325 325 325 323 324 325 325 325 325 324 323 323 323 322 323 323 324
332 330 331 331 333 332 331 331 329 327 327 328 328 328 326 326 325 325 325 325 325 324 324 324 324 325 324 324 323 324 325 325 324 323 323 323 323 323 322 322 323 325 324
332 331 330 331 330 332 332 331 329 329 328 327 328 327 325 325 326 326 326 325 325 324 323 324 324 324 324 324 324 325 324 324 324 324 324 323 323 324 324 324 325 324 324
331 330 330 331 329 331 332 331 331 330 329 327 326 326 325 325 325 325 325 325 325 325 326 325 323 324 325 325 325 324 325 324 325 326 325 325 325 326 326 325 325 326 325
330 330 330 331 330 331 332 333 333 331 331 328 327 325 325 325 325 326 325 326 326 326 327 328 326 324 323 324 324 325 326 326 326 326 326 326 327 326 325 327 326 326 327
331 328 330 331 330 331 331 331 332 331 331 330 329 327 325 327 326 326 327 327 328 328 328 328 327 327 326 324 326 326 326 327 327 327 327 326 325 326 327 327 328 328 327
330 328 330 331 330 330 332 332 332 332 332 331 330 325 328 329 329 328 326 327 329 328 329 329 328 328 328 327 327 327 327 327 327 327 327 327 327 327 327 328 328 327 326
329 327 330 331 329 328 328 331 332 333 332 330 324 325 328 329 330 330 328 328 329 330 329 330 330 329 329 329 328 328 328 328 328 328 328 328 329 328 328 329 328 328 328
329 328 328 329 330 329 328 327 327 331 331 328 326 330 328 330 331 331 331 330 329 330 329 328 328 328 329 328 328 328 328 328 329 329 329 329 329 328 327 328 329 329 329
332 328 328 329 330 330 329 329 328 329 329 328 328 328 329 329 330 329 329 329 329 328 328 329 328 328 327 329 328 326 327 326 327 327 327 328 328 329 329 328 328 328 328

GFSGL_850_thetae_063.txt.gz
Theta_e
328 330 331 340 341 348 352 348 347 348 345 342 343 342 337 335 335 334 332 332 332 330 330 329 327 328 329 328 329 329 329 328 329 327 327 327 326 326 329 328 324 324 323
330 341 345 344 350 351 348 349 348 346 345 343 339 337 333 333 333 333 331 332 331 330 328 329 328 329 326 326 328 329 329 328 328 327 327 327 328 328 327 327 324 321 322
345 344 348 349 350 349 349 343 342 341 340 336 335 335 331 332 333 331 330 332 331 330 330 329 327 327 327 325 326 328 329 330 328 326 329 328 329 328 326 327 328 321 321
342 346 349 350 347 347 342 341 340 339 337 335 335 333 333 333 330 330 330 331 331 330 329 328 328 328 327 326 326 327 328 328 328 328 327 328 329 329 328 328 329 324 322
345 346 349 347 344 343 341 340 337 333 333 335 335 333 332 331 329 329 329 330 331 330 328 325 324 324 325 326 326 325 328 327 328 329 327 329 330 327 328 329 328 324 328
345 345 344 341 341 340 338 336 335 334 334 334 332 331 331 331 330 328 329 329 331 330 326 324 324 324 324 325 326 326 327 327 328 329 324 325 325 326 328 326 329 328 326
343 342 341 340 339 338 335 334 334 334 333 332 332 330 330 331 330 330 329 330 326 329 329 325 325 325 325 325 325 327 326 327 328 327 325 324 325 326 326 326 326 325 326
341 339 340 339 336 335 335 334 335 334 332 331 331 330 330 330 330 330 328 326 326 328 328 326 325 325 325 325 325 328 328 328 326 326 327 327 326 326 325 326 325 324 325
339 338 336 335 335 335 335 333 334 333 331 331 330 330 330 330 328 325 324 324 327 328 329 327 326 327 325 326 328 327 327 326 326 326 325 326 326 326 326 326 325 324 325
335 334 335 336 334 333 332 333 332 333 331 330 330 331 331 327 324 323 324 326 328 328 327 326 326 326 326 327 328 326 327 326 325 326 325 326 326 325 326 327 326 325 325
333 334 336 336 332 332 331 332 334 333 332 331 331 330 329 328 324 324 327 328 328 327 326 327 326 326 325 327 327 327 326 324 325 325 324 325 325 324 325 326 325 324 326
333 334 334 333 331 332 333 333 333 332 330 331 331 330 330 328 325 327 329 329 327 327 326 326 326 326 327 327 327 326 325 325 324 323 322 323 324 324 324 325 325 325 325
333 333 334 332 331 332 333 333 333 333 331 331 331 330 330 328 326 326 326 327 326 326 326 325 325 326 327 328 327 327 326 325 323 323 322 323 323 324 323 324 325 324 325
334 334 332 330 331 332 333 333 331 331 330 331 331 330 328 327 326 326 325 325 326 327 325 324 325 326 325 326 326 325 325 324 322 322 322 322 322 322 323 324 324 323 322
334 333 331 330 332 333 332 332 331 331 331 330 330 329 327 326 326 325 325 325 325 325 324 325 326 325 327 327 326 325 323 322 321 320 320 321 321 321 323 323 322 321 324
334 332 330 332 333 333 332 331 331 330 331 330 330 328 327 327 327 326 325 324 325 324 325 326 325 325 325 325 324 323 322 322 321 320 321 320 322 322 322 322 321 323 324
333 331 330 332 332 330 331 331 330 331 331 330 329 329 328 327 328 327 325 326 325 324 325 326 325 325 325 324 323 323 323 323 322 321 321 321 321 322 321 321 323 323 323
332 329 329 331 331 330 330 329 330 328 329 329 328 327 328 327 326 326 326 325 324 323 323 324 326 325 325 324 323 323 323 324 325 323 322 322 323 322 322 321 322 323 323
330 329 330 332 332 331 331 329 328 327 328 328 327 327 325 325 325 325 325 325 324 323 323 324 325 325 325 325 325 324 324 325 325 323 323 323 323 323 322 322 322 322 323
330 331 331 332 332 331 331 329 328 327 327 327 327 327 325 325 326 324 324 325 324 324 324 324 324 325 324 324 324 325 325 324 323 323 323 323 323 323 323 322 323 323 323
330 331 331 330 331 331 331 330 329 329 328 326 327 325 325 325 325 325 325 325 325 326 327 324 324 325 325 325 324 324 324 324 324 325 325 324 323 323 324 324 324 324 324
330 331 331 330 329 330 332 332 331 330 327 325 326 324 324 325 325 325 325 326 325 326 327 326 325 324 324 324 323 324 326 325 325 326 326 325 325 325 325 324 324 326 327
330 330 331 330 330 330 332 333 331 331 329 325 324 324 325 325 326 327 328 328 328 328 328 328 327 325 324 324 326 326 326 326 326 326 326 326 325 325 325 325 325 326 326
331 328 330 331 331 330 331 331 331 331 331 329 325 326 328 328 327 327 327 328 329 329 329 329 329 328 327 326 326 327 327 327 327 327 327 327 328 327 327 327 326 327 328
331 328 330 330 330 330 331 332 332 333 331 329 326 327 328 328 328 329 330 329 329 330 329 329 329 328 329 329 328 328 328 328 328 328 328 328 328 328 329 329 329 329 329
328 328 329 329 329 329 329 332 332 329 327 325 326 328 328 329 330 330 328 328 329 329 328 326 326 326 327 327 326 326 326 326 326 327 327 328 328 329 329 328 328 327 327

GFSGL_850_thetae_069.txt.gz
Theta_e
324 330 333 332 330 328 327 327 328 328 328 336 346 346 344 339 340 339 339 340 335 332 331 330 329 329 329 329 329 329 329 329 329 328 327 327 327 329 327 329 329 325 324
324 327 332 331 329 328 328 327 329 331 329 334 347 345 342 340 340 340 338 332 331 331 330 329 329 328 327 329 329 328 329 329 329 328 326 327 328 328 328 329 327 323 325
326 330 331 330 328 328 326 328 333 334 328 341 346 342 342 342 340 335 332 331 331 331 330 329 328 328 328 328 326 326 327 328 329 328 327 327 326 327 327 326 326 322 322
325 329 329 327 327 327 328 333 333 331 336 347 343 342 343 341 334 330 331 332 330 330 330 330 329 328 327 327 327 326 327 328 328 328 327 326 327 327 327 328 325 324 323
330 329 328 328 327 331 338 340 338 345 347 345 342 342 340 335 329 331 332 331 329 330 329 329 328 328 327 327 327 326 326 327 328 328 327 327 327 328 328 328 324 324 325
331 329 328 329 338 340 339 343 349 348 346 343 342 338 332 329 331 326 327 327 329 329 330 330 328 326 325 324 324 324 326 326 327 328 327 326 329 326 327 327 326 325 325
333 332 334 340 340 341 345 345 345 346 344 339 334 330 332 331 328 327 327 328 328 328 329 328 326 324 324 325 324 325 326 327 327 327 327 327 326 327 326 326 327 323 322
339 339 342 342 343 346 345 343 342 339 337 334 331 332 330 330 330 328 328 329 329 329 328 328 327 324 325 325 325 324 325 325 326 327 328 328 326 326 325 325 325 326 322
338 341 342 342 345 342 341 339 337 336 334 333 334 332 331 329 329 330 329 329 329 329 326 328 328 327 326 325 325 325 325 325 326 325 326 326 326 325 326 326 325 325 323
336 339 340 341 341 340 338 335 333 332 331 330 330 329 329 329 330 330 329 330 328 325 325 327 328 326 327 325 325 325 326 326 326 325 326 323 323 324 324 324 325 324 324
338 338 339 339 339 336 333 332 333 332 332 331 330 330 330 330 329 329 328 324 324 325 327 328 326 326 325 325 327 327 328 326 325 324 324 325 324 323 324 324 324 323 323
326 338 338 338 336 333 331 333 332 331 331 330 330 330 330 330 328 325 323 325 327 327 327 326 326 325 325 325 325 325 326 326 325 325 324 325 324 324 325 325 323 323 322
332 338 335 332 333 333 331 332 332 332 331 330 330 330 330 329 327 324 325 328 327 326 326 326 326 325 325 325 325 324 325 325 324 324 324 324 324 324 324 325 325 324 322
334 333 333 333 334 332 331 332 332 332 332 331 331 331 329 329 327 325 327 328 327 326 326 325 325 325 325 325 325 324 323 324 324 323 321 322 324 323 323 324 325 324 323
333 334 334 331 331 331 331 332 332 332 332 331 330 329 329 328 328 325 325 325 325 326 325 325 325 325 324 326 325 324 324 322 322 321 322 322 323 322 323 322 323 322 322
334 334 331 330 330 331 331 332 332 332 330 330 329 329 328 326 326 326 325 324 324 325 325 324 324 325 324 325 326 323 322 321 320 320 320 322 322 322 323 324 324 324 324
333 333 331 330 331 332 332 332 331 330 330 330 330 329 327 325 324 325 324 323 324 324 323 324 323 326 324 324 324 322 321 320 319 319 319 320 321 322 322 323 323 324 323
333 334 330 330 330 331 331 330 329 329 329 329 330 329 327 325 325 325 324 323 324 323 322 324 323 326 324 324 323 322 321 321 320 319 319 319 320 320 322 323 323 323 323
333 331 330 330 331 331 331 330 330 329 329 328 328 328 326 327 326 327 325 324 325 323 323 323 325 324 325 326 323 322 322 322 322 320 319 320 320 320 322 323 322 322 323
332 330 328 330 331 330 330 330 330 330 330 328 327 326 326 327 326 325 325 325 324 322 322 324 325 324 325 324 324 323 323 322 324 324 322 321 321 321 321 321 321 322 323
330 330 329 330 330 330 329 330 330 330 329 328 326 326 326 325 324 325 325 324 323 323 323 323 324 325 325 325 325 323 323 322 324 324 323 322 323 322 323 322 321 321 322
329 328 330 330 330 329 329 328 327 328 328 327 326 326 324 325 324 324 325 324 325 325 324 324 324 324 324 325 325 325 324 324 324 323 324 324 324 323 323 323 323 323 322
330 329 329 331 331 330 328 327 326 326 326 326 326 324 325 324 324 325 325 325 325 326 326 324 324 324 324 324 324 324 324 324 324 324 325 325 324 323 323 323 323 323 324
331 330 330 331 332 330 329 328 326 326 326 326 324 324 324 324 325 326 326 326 326 327 326 324 323 323 324 324 324 324 325 326 326 325 325 326 325 325 326 326 326 326 327
331 331 331 330 331 331 330 329 327 325 324 323 324 324 324 325 326 327 327 328 328 328 328 327 325 323 324 325 325 326 326 325 326 326 326 326 326 327 326 327 327 327 327
330 330 331 330 330 331 330 329 327 324 323 323 324 325 325 326 326 327 327 328 328 328 328 327 327 327 325 325 326 326 326 326 326 326 326 326 325 325 323 326 326 326 326

GFSGL_850_thetae_072.txt.gz
Theta_e
320 315 318 321 324 325 329 334 336 332 327 326 326 330 343 345 343 339 340 338 338 338 338 332 330 329 329 328 328 328 328 329 329 329 327 326 327 328 328 329 329 327 327
322 315 318 322 324 328 333 336 334 329 327 327 327 333 344 344 341 338 338 337 338 337 331 330 329 329 328 328 328 328 328 329 329 329 327 326 328 329 327 328 328 326 326
324 319 321 323 325 332 333 334 330 328 327 328 329 337 344 343 339 338 337 337 333 330 330 329 328 328 327 326 327 327 327 328 328 329 328 327 328 328 329 328 326 323 325
327 322 322 323 325 331 333 329 328 327 327 330 332 340 345 342 339 338 336 329 331 330 330 329 329 328 327 327 326 326 326 326 328 328 328 327 327 327 327 326 326 323 323
328 322 322 324 327 331 330 328 326 327 331 334 331 345 342 342 341 337 329 330 331 330 329 329 329 328 328 327 326 326 326 326 327 328 327 327 327 326 327 325 326 323 324
329 324 322 329 330 329 328 326 328 331 334 333 345 344 342 342 338 329 330 331 330 329 328 329 329 328 327 327 325 324 324 325 326 327 328 327 328 327 328 328 326 325 328
335 330 327 329 329 328 327 328 332 336 340 345 344 342 341 335 328 329 327 327 328 328 330 329 328 327 325 324 324 324 324 326 326 327 327 327 326 326 327 327 326 322 322
337 335 330 329 328 328 333 337 341 348 347 346 343 341 332 329 331 327 326 327 328 329 329 329 327 326 324 324 325 325 325 326 327 326 327 327 327 326 324 326 326 324 322
337 337 334 331 333 337 337 343 341 346 344 343 337 331 330 330 328 329 327 328 329 329 329 328 327 327 325 326 326 325 324 325 326 327 327 327 326 325 325 325 325 325 322
338 339 338 338 339 340 342 342 342 344 341 334 329 331 330 329 329 329 329 329 329 329 329 325 327 328 327 326 325 325 325 325 325 326 325 325 325 324 324 324 325 325 325
335 336 338 337 339 338 342 340 340 337 334 331 333 332 330 330 328 329 330 329 329 327 324 325 327 326 326 325 325 325 325 326 326 325 325 323 324 325 325 324 325 325 324
332 336 336 338 339 339 339 337 335 332 333 333 332 330 328 329 329 329 329 327 324 324 326 327 326 326 325 325 326 327 327 326 325 325 324 323 322 323 323 323 323 325 323
328 331 336 337 337 337 335 332 331 331 331 330 330 329 329 329 329 328 324 323 325 327 327 326 326 325 324 324 324 324 325 326 325 324 324 324 323 323 323 324 325 324 323
326 327 331 337 335 332 331 332 332 332 330 330 330 330 329 330 328 325 324 326 327 326 326 326 325 325 324 324 324 324 323 323 323 323 325 322 322 323 324 324 325 323 323
328 324 328 334 332 332 333 332 331 330 330 330 330 330 330 329 328 325 324 327 327 326 325 325 325 323 324 324 324 323 322 322 322 321 321 322 322 323 323 323 325 323 323
331 327 331 333 332 331 331 332 331 331 331 331 331 330 329 328 327 326 326 326 325 325 325 324 324 323 324 324 325 323 322 321 320 320 321 322 322 322 323 323 323 323 322
331 331 332 332 331 331 331 332 332 332 331 330 330 329 329 325 325 326 325 323 324 324 325 324 324 325 323 324 325 323 321 320 319 319 320 321 323 323 323 323 322 322 323
330 330 329 330 330 331 331 332 332 330 329 330 330 329 326 324 324 325 324 323 323 323 323 322 323 323 324 324 324 322 320 319 319 318 319 320 320 322 322 323 323 323 323
331 332 331 330 330 331 332 332 330 329 329 329 330 328 326 325 324 325 324 323 323 323 322 323 323 324 323 324 323 322 320 321 320 319 319 319 319 320 321 323 322 323 323
332 331 331 331 331 332 331 330 329 329 328 328 328 328 325 325 326 326 325 324 325 323 323 323 325 324 324 325 323 322 321 322 322 321 320 320 319 319 321 322 322 322 322
330 331 331 330 331 331 330 330 329 329 328 327 327 326 325 326 326 325 324 324 323 322 322 323 324 324 325 325 325 323 323 322 323 324 323 322 322 321 321 321 321 321 322
331 331 330 330 330 330 330 330 330 329 329 327 326 326 325 325 324 324 324 324 323 323 323 323 324 324 324 324 325 323 323 322 323 324 323 323 323 323 323 323 322 321 322
331 330 330 330 329 329 329 329 329 329 328 326 326 324 324 324 324 324 324 324 325 325 324 324 324 324 324 323 324 324 324 324 324 323 324 324 325 324 323 323 323 323 322
330 330 330 330 329 328 327 327 327 328 327 326 325 324 324 324 324 324 325 325 324 325 322 324 324 324 324 324 324 324 324 324 324 324 325 325 325 325 324 324 324 324 324
329 329 330 331 330 328 326 325 325 326 326 325 324 324 324 325 325 325 325 326 326 326 324 323 323 323 324 324 324 325 326 326 326 326 326 325 325 325 325 326 326 326 325
330 330 331 331 330 329 326 325 325 325 325 324 324 324 324 325 326 327 327 327 327 327 325 325 323 323 324 324 325 325 325 325 325 325 325 325 325 325 324 325 324 324 324

GFSGL_850_thetae_075.txt.gz
Theta_e
320 320 318 316 315 315 317 321 323 325 327 333 337 329 325 326 338 344 342 340 339 340 339 337 337 333 330 328 328 329 329 329 331 330 328 327 326 326 327 327 329 328 326
322 325 325 318 317 316 315 320 323 324 326 336 333 327 326 330 340 344 342 338 337 338 339 338 334 330 329 328 328 328 329 329 331 332 328 327 327 328 329 328 329 328 328
323 327 329 324 320 317 315 320 323 326 332 336 328 327 327 333 342 344 339 338 338 337 338 335 331 329 328 328 327 328 329 328 329 330 329 328 329 329 327 328 328 328 327
325 328 332 328 322 316 315 321 326 332 336 330 328 327 330 337 344 341 337 338 337 335 331 331 330 328 328 327 326 327 327 328 327 329 328 328 329 328 328 328 327 324 325
325 330 333 333 327 318 318 324 332 336 333 329 328 330 334 341 343 338 339 338 334 329 330 330 329 329 328 327 327 327 326 327 328 329 328 328 327 329 328 327 326 323 325
325 330 331 332 329 320 322 330 335 333 329 328 330 332 334 341 343 339 338 335 328 331 330 329 329 328 328 328 327 326 326 325 326 326 327 328 327 327 326 327 326 323 326
323 334 331 331 332 324 327 333 332 329 328 330 333 333 334 343 340 340 331 329 330 330 329 329 329 329 327 327 327 324 324 324 324 325 326 327 327 326 327 326 326 325 324
325 332 332 332 335 328 331 331 329 328 332 334 334 335 340 342 340 329 328 327 329 329 329 329 329 327 327 325 324 325 325 325 326 326 326 327 327 326 327 327 326 325 323
333 335 335 337 336 330 331 330 330 333 335 333 335 340 342 338 329 327 327 328 329 329 329 329 328 327 326 324 324 326 325 325 325 327 326 327 327 326 326 326 326 324 324
337 341 339 338 333 331 332 331 334 336 339 338 343 342 338 328 329 326 326 327 328 329 329 329 327 327 327 326 326 326 325 325 325 327 327 327 326 325 325 325 325 325 323
335 341 341 338 335 334 337 337 341 341 343 343 342 335 329 331 327 328 328 329 329 329 329 329 325 327 327 326 325 325 325 325 324 325 325 325 325 324 324 324 324 325 325
331 338 338 341 341 339 339 342 340 343 342 338 331 331 331 329 330 330 330 330 329 329 326 325 326 327 326 325 326 326 325 325 326 326 324 323 324 323 324 324 325 325 324
329 334 335 337 340 342 341 340 341 340 333 331 332 331 331 331 330 330 330 329 326 323 325 327 327 326 324 325 326 327 327 326 326 325 325 323 323 323 324 324 323 324 325
328 333 334 335 338 339 337 338 338 333 332 333 332 331 329 329 329 329 329 325 323 326 327 327 326 325 324 324 324 324 324 325 325 324 324 323 323 323 323 324 323 323 324
327 332 334 334 335 335 335 336 334 333 331 331 329 329 329 329 329 329 326 323 326 326 326 326 325 324 325 324 324 323 323 323 323 323 323 322 323 322 323 324 323 324 323
327 330 331 331 334 333 332 332 331 330 330 330 330 330 329 329 328 326 324 327 327 326 325 325 325 324 324 324 324 322 322 322 321 321 321 322 321 322 323 323 323 323 324
328 331 332 331 331 333 332 331 330 330 330 330 330 330 329 328 327 325 326 326 326 326 325 325 324 324 324 323 324 323 322 321 320 320 320 321 322 322 322 322 323 324 323
328 326 324 329 331 332 332 331 331 331 331 331 330 329 326 324 324 326 325 324 324 325 325 324 324 324 324 323 325 323 321 320 320 319 320 321 322 322 322 322 322 322 322
327 327 330 331 331 331 331 331 331 331 330 330 329 327 324 323 325 325 324 323 323 323 323 322 323 323 325 324 325 322 320 320 319 319 319 319 320 321 322 322 323 323 323
330 330 331 331 331 331 331 331 329 329 330 330 328 326 324 323 324 324 324 323 323 324 323 323 324 323 325 324 323 321 320 321 321 320 319 319 319 320 321 322 322 322 323
330 331 330 330 331 331 331 330 328 329 329 329 328 326 324 324 325 325 324 324 324 323 323 323 324 324 324 324 322 322 321 322 322 322 321 321 320 320 321 321 322 322 322
331 331 331 331 331 331 329 328 329 329 328 327 328 326 325 326 325 324 323 323 322 322 323 323 325 324 324 324 324 323 323 323 323 324 324 323 322 322 321 321 322 322 322
331 331 331 330 330 330 330 329 329 328 327 327 326 325 326 325 324 324 324 324 323 323 323 323 324 324 324 324 324 325 323 323 322 324 323 324 324 323 323 323 323 323 322
330 330 330 329 329 330 330 328 328 328 327 326 325 324 324 325 324 324 324 324 325 323 323 323 323 324 324 324 325 324 323 323 324 324 324 325 325 324 324 324 323 323 323
330 330 330 329 328 329 329 329 329 327 326 325 324 325 324 323 324 324 325 323 324 323 323 324 323 324 323 324 324 324 324 324 324 325 325 325 325 325 325 324 324 325 325
330 330 330 329 327 326 327 327 327 326 325 324 324 325 324 324 324 325 325 325 325 324 322 323 323 323 323 324 324 325 325 325 324 325 325 325 325 325 324 324 325 325 324

GFSGL_850_thetae_078.txt.gz
Theta_e
318 319 322 323 324 324 316 314 315 316 318 328 341 333 338 335 329 329 336 339 343 345 341 338 340 340 339 335 335 334 333 332 332 335 333 328 327 328 327 327 328 330 329
317 319 322 324 326 327 326 315 314 315 316 323 342 334 336 331 329 330 333 345 345 344 340 341 341 340 338 336 335 335 333 333 332 334 331 328 327 328 328 327 328 330 332
316 318 320 322 324 329 331 319 316 318 317 325 341 343 339 342 338 340 335 346 346 343 340 339 340 340 337 335 335 334 334 334 333 333 332 330 328 329 330 329 329 329 329
316 317 319 321 324 327 331 323 326 332 334 338 342 343 344 344 346 346 345 346 345 340 337 337 340 337 336 336 334 334 334 334 333 332 331 330 328 329 329 329 329 329 328
316 316 318 320 323 329 333 332 331 332 334 339 343 344 344 345 345 345 346 345 341 339 338 337 336 335 334 334 333 333 333 333 331 331 332 331 329 328 329 328 328 326 325
313 316 317 320 322 327 334 334 333 334 337 342 345 344 345 344 343 344 344 343 341 340 337 336 335 329 329 328 328 332 332 334 333 331 330 331 331 329 330 328 327 325 325
313 315 316 319 323 328 335 334 335 336 339 344 344 344 346 345 342 341 340 343 339 338 336 335 334 331 328 328 328 327 327 325 325 329 330 330 331 328 328 327 327 326 322
310 311 316 320 324 329 336 334 336 340 343 344 344 345 346 344 339 341 339 338 336 334 336 335 334 333 328 332 331 329 329 325 325 325 326 327 327 327 326 327 327 328 326
310 313 318 322 325 333 335 336 342 344 345 344 345 345 344 336 342 339 338 336 336 335 335 334 333 333 330 327 330 329 329 326 326 326 326 326 327 327 327 327 327 327 325
315 320 321 323 328 335 336 341 344 343 344 344 344 343 344 341 341 340 333 333 334 334 334 332 329 332 327 326 327 329 327 326 325 325 327 326 326 327 326 328 327 326 324
317 321 325 330 333 336 342 344 343 343 343 343 344 344 341 342 335 328 329 332 332 333 332 332 330 328 326 327 327 329 327 326 325 325 327 327 326 326 325 325 327 327 328
332 334 335 335 338 339 343 343 343 343 339 343 340 340 339 332 328 327 327 332 333 333 332 332 331 325 327 327 326 326 326 325 325 325 325 325 326 326 325 325 325 328 327
331 336 338 337 338 342 342 343 342 340 338 339 339 335 330 330 328 327 327 330 331 333 332 330 327 327 326 325 327 326 325 325 326 325 325 324 324 325 325 324 324 324 325
328 333 336 341 339 343 343 341 340 339 339 337 336 332 331 331 328 329 330 330 330 329 327 326 327 326 325 325 327 327 327 326 327 327 325 324 323 324 324 325 325 323 324
328 333 336 338 339 341 341 341 341 338 339 335 332 331 331 330 331 330 330 330 329 327 325 327 326 325 324 325 325 324 327 325 324 326 325 324 323 323 324 325 325 324 323
328 332 334 335 337 339 338 336 335 333 332 332 332 332 331 331 329 330 329 328 325 326 327 326 326 325 324 325 324 326 326 325 324 323 326 322 323 323 323 324 324 324 323
327 331 332 332 333 334 333 333 331 332 331 330 330 329 329 330 329 328 325 325 327 326 328 326 326 325 325 325 325 326 326 326 324 322 321 321 322 322 323 323 323 323 323
327 331 332 333 333 333 331 331 331 330 329 329 329 330 329 329 328 326 326 327 326 326 328 325 325 325 324 324 324 326 325 324 324 323 322 322 322 323 322 322 322 323 323
328 330 330 332 332 331 332 331 331 330 330 330 329 328 327 326 326 326 326 325 325 325 325 325 326 324 324 324 324 323 323 321 323 322 322 321 321 323 322 322 322 323 324
330 330 331 332 332 332 332 332 330 331 330 329 328 325 324 326 328 326 324 326 326 325 323 323 324 324 324 324 324 323 323 322 322 322 321 322 320 321 322 322 323 323 323
328 328 331 332 332 333 333 333 332 331 330 330 326 324 324 326 325 324 324 324 327 326 324 325 323 323 324 324 323 323 323 325 325 325 323 321 320 320 321 322 323 323 323
330 332 332 332 333 333 332 331 331 330 330 326 325 324 324 324 325 325 324 324 324 324 324 323 324 323 324 324 323 323 323 322 324 324 323 323 323 321 321 321 322 323 325
331 331 332 332 332 331 331 330 330 330 326 327 325 325 325 326 325 323 323 323 323 323 324 324 324 324 324 324 323 323 323 323 323 323 324 323 323 324 322 322 323 324 322
331 331 332 331 331 331 331 330 327 327 328 327 326 325 326 325 324 323 323 323 323 323 323 323 324 324 324 324 325 323 324 324 323 323 325 325 324 324 324 324 324 323 323
331 331 331 331 331 329 327 326 327 326 325 325 326 325 325 324 324 324 324 323 323 324 323 323 323 324 324 324 324 324 324 323 324 324 324 325 325 325 325 325 324 324 323
331 331 330 329 327 327 326 327 326 325 324 324 324 325 325 324 324 324 324 323 323 323 323 323 324 323 324 324 324 323 324 324 325 325 325 325 325 325 325 325 325 323 323

GFSGL_850_thetae_081.txt.gz
Theta_e
317 318 320 321 322 324 325 325 322 316 315 327 333 343 346 347 351 349 350 349 333 344 347 348 345 344 344 341 340 335 334 335 333 334 336 334 329 328 333 331 330 331 330
316 317 318 319 321 323 326 327 327 326 321 317 327 327 347 351 349 349 348 346 342 348 349 347 345 345 342 340 338 334 334 334 334 333 335 333 329 328 331 330 329 330 333
315 315 317 319 320 321 324 326 329 331 328 329 329 334 343 349 350 347 341 346 348 348 348 346 344 343 342 340 338 334 334 335 334 334 335 333 332 332 328 329 331 330 331
315 315 318 320 320 320 322 324 327 331 332 332 332 331 340 347 349 348 344 348 349 348 347 345 345 343 340 339 339 334 336 334 332 332 334 334 331 332 328 332 331 332 330
315 314 315 317 318 319 321 324 327 330 333 330 335 332 340 345 346 349 348 348 347 347 345 344 342 342 341 338 336 335 333 334 332 332 332 331 332 331 329 330 329 333 330
314 313 314 315 316 317 320 322 325 329 335 333 335 337 342 345 345 348 348 348 347 346 343 342 342 339 337 333 334 334 333 333 333 331 331 332 331 330 331 330 329 330 330
314 312 313 313 314 316 319 321 324 330 336 335 335 337 343 346 345 347 348 348 345 343 342 341 339 338 333 331 329 330 332 331 331 332 331 331 331 331 331 329 329 329 327
313 312 311 312 313 313 314 319 323 329 336 336 336 341 345 348 347 345 347 346 343 342 341 339 337 335 331 334 333 329 329 329 328 325 326 329 326 327 329 328 328 328 325
313 310 311 311 310 311 312 317 323 329 336 337 340 345 348 348 345 344 344 344 342 340 340 337 335 336 334 330 333 332 331 331 328 325 326 326 326 326 327 326 327 328 327
312 311 311 310 310 312 314 318 326 331 335 339 342 347 348 347 345 343 343 342 340 339 337 336 335 335 333 327 329 331 331 331 328 326 326 325 326 327 327 326 327 327 327
311 310 308 309 312 315 317 322 326 334 337 341 346 347 346 343 343 342 341 339 338 337 336 335 334 333 330 327 326 330 330 330 328 325 325 326 326 326 326 326 328 327 324
311 309 311 311 314 322 324 327 333 336 341 344 345 346 346 341 341 339 338 336 335 334 334 334 332 329 329 326 327 327 328 328 326 325 325 327 326 326 326 326 329 327 327
313 316 319 315 317 320 324 331 336 339 343 343 344 344 341 340 339 335 333 334 333 334 333 332 332 331 327 327 327 326 327 326 327 326 325 326 325 326 326 326 326 328 326
320 327 320 319 319 323 332 337 339 341 344 344 342 340 338 338 331 330 332 333 333 335 333 332 332 325 327 327 326 326 326 328 327 326 326 326 325 325 325 326 326 326 326
328 333 330 333 336 337 337 338 340 343 342 342 339 337 335 333 331 331 332 332 332 332 331 330 327 327 326 326 327 327 327 327 326 325 326 325 325 324 325 325 324 325 326
329 334 336 337 337 338 339 339 339 340 340 338 337 336 334 332 330 328 330 332 332 330 328 327 329 329 326 325 326 328 327 326 325 324 325 324 323 323 324 324 324 324 324
328 333 335 337 338 339 339 340 338 337 336 335 333 333 331 329 327 329 330 330 330 327 329 327 330 328 326 326 328 328 328 326 325 325 323 324 323 323 323 323 325 323 324
329 333 335 337 336 336 336 334 333 332 332 332 332 331 331 330 330 330 330 328 326 328 329 327 330 329 326 327 327 327 327 326 326 323 323 323 322 323 322 323 323 323 323
327 332 335 335 336 335 334 333 333 332 330 331 330 330 330 329 329 328 326 328 327 328 327 327 327 326 326 327 327 327 326 325 325 323 323 324 322 323 323 323 323 323 323
327 332 333 333 334 333 332 331 330 329 329 329 329 329 328 327 326 327 328 328 327 328 328 327 328 327 325 327 326 325 325 324 324 322 322 322 322 322 323 323 323 323 324
329 332 331 332 332 332 332 332 331 331 330 330 327 327 327 326 326 327 328 327 327 327 327 327 327 325 326 327 325 325 325 325 325 323 324 323 323 323 322 322 323 323 324
332 332 333 333 332 332 332 332 332 332 329 329 326 325 325 326 326 326 327 327 327 326 326 326 326 326 325 325 324 325 325 326 326 326 325 324 323 321 324 323 323 323 323
331 332 332 331 331 331 331 331 331 330 328 327 326 327 327 326 326 325 324 324 324 324 324 323 324 324 325 325 324 325 325 326 326 325 323 324 323 324 324 323 322 323 324
331 333 333 331 332 332 331 332 330 328 327 326 325 325 324 325 325 324 324 323 323 323 325 324 324 324 323 324 323 323 323 323 324 323 325 325 324 324 325 325 323 323 323
332 332 332 332 331 330 330 329 327 326 325 324 324 325 325 325 323 323 323 323 323 323 323 323 324 323 323 324 324 324 323 324 323 323 324 325 325 325 324 325 324 324 324
331 330 330 330 330 329 328 327 326 326 326 325 325 325 324 323 324 323 323 323 324 323 323 323 324 324 324 324 324 324 324 324 324 324 324 325 325 325 325 325 324 324 322

GFSGL_850_thetae_084.txt.gz
Theta_e
319 318 318 318 318 320 321 321 321 320 316 312 314 322 328 336 345 341 342 344 348 351 351 348 338 341 346 345 342 340 338 334 334 336 336 336 335 333 329 328 330 330 331
318 317 316 317 318 320 320 320 322 325 326 323 314 312 325 333 346 347 344 344 349 353 351 347 338 345 345 344 343 340 338 334 335 335 335 335 335 332 326 330 329 330 331
317 317 317 316 315 317 320 319 320 324 328 330 330 320 315 318 331 345 345 345 351 352 350 345 345 347 343 343 342 340 336 334 336 334 334 333 334 332 330 329 328 331 330
317 317 317 316 315 316 321 322 322 321 322 323 332 334 329 324 320 321 344 346 351 350 345 347 347 346 344 343 341 339 336 336 333 333 332 332 333 331 332 329 330 334 331
316 318 318 316 315 314 315 317 319 321 322 323 325 335 334 332 327 338 347 346 349 348 348 347 346 343 344 343 340 338 335 336 334 333 332 332 333 332 330 329 329 330 329
317 317 317 316 315 314 316 317 316 318 323 323 323 330 335 337 327 341 347 349 347 347 349 348 345 345 344 341 339 336 335 334 334 333 332 331 331 330 330 330 329 328 329
317 318 316 316 315 314 314 314 315 315 318 323 324 325 337 335 331 333 345 345 345 348 348 346 344 344 343 341 338 336 334 334 332 332 331 331 330 331 330 330 330 329 328
317 318 316 316 315 314 312 313 313 314 315 319 324 325 335 336 337 340 345 345 345 346 347 344 342 343 341 338 335 333 332 331 332 330 330 329 328 326 327 328 329 330 329
317 316 315 315 314 313 312 311 312 313 313 315 319 326 334 333 336 341 345 345 344 345 344 342 342 340 336 331 330 329 329 329 329 328 328 325 325 326 326 327 328 328 328
316 315 315 314 314 312 312 311 311 310 311 312 317 324 333 335 339 344 343 344 344 343 343 342 340 337 335 330 333 332 332 332 330 330 327 326 326 325 326 326 327 326 327
314 313 314 314 313 312 311 311 311 311 311 313 317 326 334 337 341 344 344 342 343 342 341 338 336 337 334 330 331 333 331 331 329 329 327 325 325 326 326 326 326 326 326
311 310 310 310 310 309 309 311 309 309 313 316 321 331 336 338 341 344 343 342 341 340 338 336 335 335 334 331 327 328 329 329 328 327 325 327 327 327 326 326 327 327 326
309 308 309 310 309 308 310 310 310 313 315 319 329 335 338 340 341 340 339 340 338 338 336 335 333 333 332 329 326 327 327 326 327 326 325 325 326 328 326 326 327 327 327
309 313 314 318 316 310 310 311 313 319 320 326 334 338 343 339 340 338 338 339 336 336 335 333 332 331 329 327 326 327 325 326 328 327 327 326 325 326 326 326 326 326 328
314 319 320 316 316 311 310 312 318 324 329 334 338 341 339 340 338 338 336 335 334 334 333 332 332 329 327 326 326 326 326 328 327 326 326 326 325 325 325 326 327 326 326
321 328 319 318 316 315 319 321 325 330 334 338 340 339 338 337 338 334 334 333 333 334 333 332 330 327 326 326 326 327 327 327 326 326 325 325 324 324 324 325 325 325 325
326 332 326 321 321 322 323 326 334 337 338 340 337 337 336 337 334 332 333 332 333 331 330 329 326 325 326 326 326 328 328 327 326 325 324 324 323 324 324 324 324 324 324
328 332 335 333 333 333 334 335 335 336 337 337 336 336 335 333 331 331 331 331 331 330 328 325 326 327 327 326 327 327 328 327 326 326 324 323 323 323 323 324 325 323 324
326 334 335 335 336 336 335 334 332 335 335 334 333 332 332 330 329 330 330 330 328 330 329 327 327 327 327 327 327 327 327 326 326 325 323 323 322 323 323 323 323 323 324
331 334 334 335 335 334 333 332 333 332 332 331 331 330 330 330 331 330 328 328 328 328 327 326 326 327 327 327 327 327 326 325 325 323 322 323 323 322 323 323 323 323 323
332 333 334 334 334 333 331 331 331 331 331 331 330 331 330 330 327 329 328 328 327 327 327 327 327 326 327 326 326 326 325 324 322 322 322 322 323 323 322 323 323 323 323
332 333 332 333 332 331 331 331 330 329 330 329 329 328 327 328 328 328 328 328 327 327 326 327 326 326 326 326 326 325 326 325 325 325 325 324 323 322 323 323 323 325 323
332 332 332 332 332 332 333 331 330 328 327 327 326 327 328 328 327 328 327 327 326 325 326 326 327 326 326 326 325 325 326 326 326 325 324 324 324 324 322 323 324 323 323
332 330 330 332 332 332 331 330 329 328 327 327 325 326 326 326 325 326 326 326 325 325 324 324 324 325 326 325 325 325 325 324 324 325 324 324 324 324 324 325 324 323 323
331 330 329 330 331 329 328 327 327 327 326 326 326 327 326 325 324 324 324 323 323 324 323 323 323 324 324 324 324 323 323 323 324 323 323 324 324 324 324 324 324 323 323
329 330 331 331 330 328 328 327 327 326 325 324 324 324 324 323 323 323 323 323 323 323 322 323 323 323 323 324 324 324 324 323 324 323 324 324 324 324 324 324 323 322 321

GFSGL_850_thetae_087.txt.gz
Theta_e
319 319 319 319 318 316 315 317 318 319 319 319 317 314 312 315 319 327 334 337 341 343 342 342 342 344 340 342 345 342 343 341 336 334 335 335 335 335 335 333 329 329 328
318 319 319 318 317 316 315 314 315 320 320 321 323 326 323 318 314 319 330 338 339 342 344 340 339 347 346 345 344 344 342 340 337 334 335 335 336 335 334 331 328 329 327
318 319 318 317 316 316 316 316 314 315 319 319 319 327 329 331 327 316 319 333 342 335 341 340 340 347 345 345 344 342 342 340 336 333 335 335 334 332 333 331 329 329 327
317 318 318 317 317 317 317 316 316 314 318 322 321 320 320 321 331 334 316 316 336 341 344 341 339 347 347 343 346 342 341 339 335 333 335 334 333 333 331 330 328 326 331
317 318 317 317 317 317 317 317 317 316 313 315 319 321 322 320 325 335 332 319 316 322 330 334 343 345 345 343 345 342 343 337 335 334 334 333 332 332 332 330 329 328 329
318 318 317 317 317 317 317 316 315 315 314 311 312 315 319 324 321 333 336 331 329 328 335 339 342 347 341 345 342 343 342 339 337 334 334 333 332 331 331 330 329 328 328
317 318 318 318 318 317 316 316 314 314 314 312 311 310 313 320 324 325 333 336 334 336 342 340 345 343 345 344 342 343 340 336 333 333 333 332 331 331 330 330 329 329 329
314 314 314 314 317 318 317 316 315 315 314 314 313 311 312 314 321 323 329 335 337 332 342 341 345 342 344 341 343 340 338 336 334 333 332 331 330 330 329 328 328 328 329
315 314 313 313 315 317 317 316 316 315 314 313 311 310 310 312 316 323 325 334 338 336 341 344 341 339 340 340 342 340 336 335 334 332 331 328 328 327 325 326 326 327 328
313 315 316 316 316 316 316 316 315 315 314 312 311 310 309 311 314 320 327 334 338 338 341 340 340 339 338 341 338 335 331 329 328 329 328 328 326 325 326 325 326 327 327
311 311 310 310 311 313 316 316 315 314 313 312 311 310 310 311 313 318 328 334 336 339 340 339 339 339 338 335 331 330 329 330 331 330 329 329 327 325 325 325 326 326 326
309 309 309 309 311 312 313 314 315 314 313 312 311 311 310 311 313 318 330 333 336 338 338 338 338 340 337 333 331 332 332 331 331 330 328 325 326 326 326 326 326 326 326
308 308 309 309 310 311 311 311 313 313 312 311 310 310 310 311 314 324 332 334 339 338 338 337 337 335 334 332 330 330 331 330 328 327 325 325 326 326 325 326 326 327 327
308 308 308 309 309 309 308 310 310 311 311 310 309 310 310 312 319 331 335 337 338 337 336 336 336 334 334 333 328 326 327 326 326 326 325 326 325 326 326 326 326 326 326
310 311 311 311 313 313 312 310 310 309 309 309 310 310 313 319 329 333 337 338 338 336 336 335 334 334 334 331 328 326 327 326 327 327 327 326 325 325 325 325 326 325 325
311 315 316 315 311 316 315 312 311 310 309 310 311 313 319 329 333 336 336 336 331 336 335 333 332 330 330 328 326 326 325 326 327 326 326 325 325 324 323 324 325 326 326
319 322 320 315 312 311 310 310 310 310 312 315 319 318 329 334 337 338 336 336 335 335 334 332 331 330 326 325 326 326 326 327 326 326 325 324 324 324 323 323 324 324 324
323 326 323 318 318 317 315 314 313 314 318 324 326 329 335 336 337 337 335 333 332 333 332 332 331 328 325 325 326 327 327 326 325 325 323 324 324 324 323 323 322 322 323
326 330 327 324 323 323 324 323 325 327 329 330 333 335 334 333 334 333 333 333 332 331 331 329 327 324 325 326 327 328 327 326 326 325 323 323 323 323 322 322 324 323 323
328 332 333 332 332 330 330 329 329 329 333 334 333 332 332 332 332 332 332 331 329 328 327 325 323 327 325 326 327 328 327 326 325 324 322 323 322 322 322 322 322 323 323
328 333 328 324 328 329 327 324 328 330 331 331 331 331 332 331 331 330 329 329 327 327 326 326 326 326 326 326 327 327 326 325 324 322 322 322 322 322 322 322 322 323 323
333 332 330 330 329 328 329 328 327 328 329 330 330 331 330 330 329 328 328 328 327 326 326 326 326 325 326 326 326 326 325 324 322 322 323 322 323 323 323 322 323 324 324
332 332 331 331 329 329 329 328 328 328 329 329 329 329 329 329 328 328 327 327 327 327 327 326 325 325 326 326 326 325 325 325 325 325 325 325 324 322 322 324 324 324 323
332 332 332 331 330 329 329 329 328 327 327 328 328 328 328 328 328 327 327 327 325 325 327 327 326 325 325 325 325 325 326 325 325 324 323 324 324 324 324 323 323 323 324
331 331 332 330 329 328 327 327 326 327 327 326 327 327 326 326 327 327 326 326 325 325 325 326 325 325 326 325 325 325 325 323 324 323 324 324 324 324 324 324 323 323 322
330 331 330 328 328 327 327 326 325 326 326 325 323 323 324 324 324 324 324 324 324 323 322 323 324 325 325 325 324 323 323 323 324 323 323 324 324 324 324 324 323 322 318

GFSGL_850_thetae_093.txt.gz
Theta_e
317 317 315 315 316 317 316 316 316 316 316 313 313 313 314 315 317 319 323 327 327 326 325 327 327 329 331 332 334 332 335 337 337 337 338 336 338 337 335 335 333 334 334
317 316 316 316 317 318 317 316 316 317 317 315 315 313 312 314 314 315 317 323 324 326 317 321 323 330 331 331 331 334 339 338 335 337 339 337 337 337 334 334 334 334 333
318 318 318 317 317 318 318 317 317 317 317 316 316 316 316 313 313 314 315 317 322 324 321 328 325 321 328 334 336 336 336 334 335 339 339 339 336 336 334 334 334 334 332
315 315 316 317 318 316 317 318 318 317 317 316 316 316 316 316 315 314 313 312 313 317 317 320 332 329 326 331 327 334 334 332 336 337 338 337 338 336 335 334 335 333 332
317 317 316 316 315 317 317 318 318 318 317 316 316 316 316 316 315 315 314 312 310 310 315 320 329 333 330 333 322 332 333 333 337 337 338 338 337 335 334 334 334 332 331
316 317 318 317 316 316 318 318 318 319 318 317 316 316 316 316 316 315 314 311 310 310 311 318 324 331 330 331 323 331 329 333 336 337 335 336 336 335 333 334 333 331 330
312 313 315 316 316 317 318 318 319 319 319 317 316 316 317 316 316 316 315 314 313 312 310 311 320 329 333 334 327 320 327 332 336 337 335 334 336 334 334 333 332 331 330
311 310 311 312 314 314 315 316 316 318 318 317 317 316 317 317 317 316 316 314 314 313 310 310 316 322 330 334 336 336 334 335 335 335 335 336 336 334 333 332 331 331 330
309 309 309 310 310 311 311 313 314 314 314 315 317 317 317 317 317 316 316 315 314 313 311 309 312 319 328 333 336 335 339 338 334 335 335 336 334 332 331 330 330 330 328
309 309 310 310 310 310 310 310 311 312 314 314 314 314 314 316 317 316 316 315 315 313 311 308 310 316 324 332 335 334 339 338 332 335 334 335 334 332 330 329 328 327 325
307 307 308 309 309 309 309 309 309 311 312 313 314 315 313 313 312 314 316 315 315 313 312 309 311 315 322 334 334 335 338 337 331 335 337 335 333 330 328 327 326 325 325
303 304 305 305 306 307 307 307 307 309 312 313 314 315 315 314 314 314 315 315 315 314 312 310 311 314 327 334 335 336 336 334 336 336 336 333 328 329 328 327 326 325 325
302 303 303 303 304 305 306 307 308 309 310 311 313 314 315 315 315 315 315 315 315 314 313 310 311 316 329 333 333 334 332 333 333 332 330 329 329 326 325 324 324 325 325
303 305 306 305 305 306 307 307 307 308 309 309 309 310 312 312 313 314 315 316 315 314 312 311 311 318 329 334 333 334 333 332 329 328 329 328 326 325 325 325 325 325 326
306 308 309 310 311 311 311 311 310 309 308 308 309 309 309 311 312 312 312 313 313 313 312 311 312 319 329 332 334 331 331 330 329 329 328 325 325 325 325 325 326 325 326
307 309 309 311 311 310 309 308 308 309 310 308 309 309 310 310 311 312 312 312 311 311 312 310 316 324 331 332 328 329 331 331 330 327 325 324 324 325 326 327 327 325 326
310 310 309 310 311 313 312 310 309 309 309 309 309 310 311 311 311 311 311 312 311 310 311 322 325 329 330 327 327 331 331 330 328 326 325 325 325 324 324 323 324 324 324
306 305 306 311 312 312 310 310 311 311 310 309 310 310 311 312 312 312 311 311 310 313 323 325 329 329 329 330 331 329 328 327 326 326 325 324 324 323 322 321 323 323 323
310 314 316 318 316 311 310 312 312 311 312 309 309 310 311 312 311 311 310 310 316 324 325 329 327 325 326 331 330 328 326 325 326 326 325 324 323 323 322 322 321 321 321
320 324 324 320 316 311 310 310 311 310 309 309 309 310 310 311 311 310 310 315 320 326 329 329 327 328 329 331 330 326 325 325 326 325 325 324 323 322 322 321 320 320 320
325 327 326 323 318 312 310 310 310 310 311 310 309 310 310 310 311 314 318 323 327 329 329 329 330 331 331 328 325 325 325 325 325 324 323 322 321 321 321 321 321 322 322
327 326 327 326 324 322 319 315 312 312 311 312 313 315 317 320 322 324 326 328 330 330 329 330 329 327 324 325 326 326 325 325 325 323 322 321 321 321 321 322 322 322 323
325 325 326 326 325 325 323 323 321 321 321 323 322 323 326 327 328 329 330 328 328 329 329 328 325 325 326 326 326 326 325 324 323 322 322 321 322 321 322 323 323 323 323
325 325 326 326 326 326 324 324 324 323 323 324 326 326 325 325 326 328 329 329 328 326 325 325 326 326 326 326 326 325 323 321 321 322 322 322 322 322 322 323 323 323 323
325 326 327 327 325 323 325 326 327 327 327 327 326 327 328 328 327 326 326 325 325 326 325 325 325 325 326 326 325 324 323 323 323 324 324 324 323 322 323 324 323 323 323
324 324 325 327 327 327 328 328 329 329 329 328 328 327 326 326 326 326 325 325 325 325 324 324 324 325 325 325 325 325 325 324 324 324 324 324 324 324 323 323 322 321 320

GFSGL_850_thetae_096.txt.gz
Theta_e
317 316 316 316 316 314 314 315 315 315 314 314 314 313 312 312 312 313 313 315 318 321 324 326 326 325 325 323 327 329 330 332 334 333 332 334 334 335 337 336 335 334 334
317 316 316 316 316 315 314 315 316 316 316 316 316 314 313 313 312 313 314 315 316 317 318 320 321 321 320 321 323 323 330 332 331 333 334 334 335 335 335 335 335 334 334
317 317 317 317 317 317 317 317 317 317 316 316 316 315 315 315 314 312 312 312 312 313 314 318 319 319 323 322 316 322 329 331 333 336 336 333 337 336 334 334 335 334 334
315 316 317 317 317 317 317 317 317 318 317 317 316 317 316 316 315 315 314 313 313 312 312 310 313 317 322 323 317 323 329 332 331 333 334 334 334 330 334 336 334 334 334
314 316 317 316 315 315 315 316 317 317 317 318 317 317 316 316 316 316 315 315 314 313 310 308 308 311 317 327 328 325 327 327 327 332 332 332 335 331 333 332 334 334 334
312 312 313 314 317 317 316 315 315 315 315 317 318 318 317 316 316 316 316 315 315 315 313 312 311 310 311 321 330 331 326 325 330 332 327 330 334 330 333 334 334 334 334
309 311 312 312 312 315 317 317 317 316 315 316 317 318 318 318 316 316 316 316 316 315 314 314 312 311 309 313 327 331 333 323 329 324 329 335 330 328 333 335 334 333 333
305 306 308 310 311 311 312 313 315 316 317 318 318 318 318 319 317 316 316 316 316 316 315 314 313 312 309 310 319 329 332 327 322 324 334 332 328 333 334 334 333 333 332
305 305 306 305 306 309 310 310 311 312 314 315 316 317 318 319 319 317 316 316 316 316 315 315 314 312 310 308 313 324 329 327 323 324 334 330 333 331 334 333 332 331 331
302 303 304 304 305 306 308 309 309 309 310 311 312 314 314 315 317 317 317 316 316 316 315 315 314 312 310 309 312 321 327 329 326 329 332 330 333 334 333 331 330 329 330
302 302 303 304 305 306 307 308 309 309 310 310 310 310 311 312 313 314 314 316 316 316 316 315 315 313 311 310 312 318 327 332 329 332 334 333 334 333 332 330 329 328 328
301 302 303 303 302 302 304 305 306 307 308 309 309 309 309 309 310 311 313 314 313 315 313 315 315 315 312 310 311 318 328 332 330 332 333 333 334 333 331 328 327 327 326
301 302 303 304 304 303 303 304 305 306 306 307 308 308 309 310 310 309 308 314 313 312 313 315 315 315 313 311 312 320 330 332 331 334 332 334 333 329 328 328 327 326 325
301 302 303 303 305 306 304 304 303 304 305 306 306 308 309 310 311 310 310 314 314 314 314 315 315 315 313 311 312 323 332 331 330 331 331 331 329 328 326 325 324 325 325
301 302 303 304 305 306 306 306 306 307 307 307 307 308 310 312 312 313 314 314 314 313 312 314 315 314 312 311 314 327 330 331 330 329 330 329 328 325 325 325 325 325 325
302 303 303 304 306 306 306 307 308 311 310 310 309 309 309 309 310 310 311 312 313 313 314 314 313 312 311 311 316 328 329 329 328 330 329 328 325 325 325 325 326 325 325
303 304 305 307 307 309 308 307 308 308 309 310 310 310 309 309 309 309 309 310 311 311 312 312 311 311 311 311 322 329 329 330 330 329 329 325 324 325 325 324 325 326 324
302 302 301 302 303 304 304 306 308 310 310 309 308 308 309 309 309 309 309 310 311 312 312 311 312 311 311 325 327 331 331 329 330 329 325 324 324 324 323 323 323 323 323
302 304 307 308 309 308 310 310 310 311 310 310 309 308 309 309 310 311 310 311 311 311 312 311 311 313 325 328 328 328 327 330 329 326 325 324 324 323 323 321 322 323 323
312 316 318 318 315 311 310 311 311 311 311 310 309 309 309 308 310 311 311 311 311 311 311 311 319 325 326 328 328 327 329 330 327 326 325 324 323 322 322 321 321 320 321
317 325 323 318 312 310 310 310 311 311 311 310 310 309 309 309 310 311 311 311 311 311 314 322 326 328 327 328 327 330 328 325 325 326 325 324 323 322 322 321 321 322 319
324 325 323 320 314 311 310 310 310 309 309 309 309 309 309 310 311 311 311 311 314 323 326 326 324 325 325 326 329 327 325 325 326 325 324 323 322 321 321 321 321 321 322
325 325 324 324 321 314 312 311 310 310 310 310 309 310 311 311 310 311 313 319 323 326 327 327 325 327 328 329 328 325 325 325 324 323 322 321 321 321 321 321 321 322 323
325 325 324 323 323 321 319 317 314 312 311 310 310 311 312 313 316 320 323 325 326 329 329 329 329 328 327 326 325 325 325 324 323 322 321 321 321 321 322 322 323 323 323
326 325 324 323 322 322 321 319 318 318 317 316 315 316 321 325 326 327 328 327 328 329 327 325 325 326 326 326 326 324 323 322 322 321 322 322 322 322 322 323 322 322 323
326 326 326 325 324 324 324 323 322 323 323 325 326 327 327 328 328 328 328 326 326 325 325 326 326 326 326 326 324 322 321 322 322 323 323 322 323 323 323 323 322 322 320

GFSGL_850_thetae_102.txt.gz
Theta_e
320 323 324 327 330 331 333 335 332 327 320 321 319 318 314 318 323 326 329 328 330 333 334 335 335 337 336 335 335 335 333 332 331 330 326 324 324 326 326 329 333 338 333
318 319 322 323 323 323 324 325 323 314 314 314 314 320 321 322 323 325 326 324 327 328 330 331 331 331 334 334 333 333 331 331 330 329 327 321 329 322 326 331 331 334 333
315 316 317 321 324 323 323 317 319 318 325 324 324 322 321 322 322 323 323 322 323 325 326 327 328 328 329 328 330 329 329 330 331 332 331 331 332 332 334 332 334 333 334
314 313 315 316 318 322 324 321 317 322 323 324 324 323 321 322 321 322 322 322 322 322 323 323 323 324 326 326 327 328 328 329 329 330 330 331 331 333 333 327 329 333 333
312 313 312 314 315 317 318 321 317 316 316 318 322 324 322 321 320 321 321 323 323 323 322 322 323 322 319 317 320 322 324 326 325 326 327 330 332 333 330 324 332 332 332
309 310 311 312 313 315 317 317 316 316 316 316 315 321 323 322 320 318 320 322 323 323 323 323 322 316 315 314 313 311 310 312 322 325 327 330 331 332 334 326 330 328 333
308 308 309 311 311 312 314 317 318 318 315 315 315 315 321 324 322 320 317 317 323 324 324 323 322 319 317 318 318 314 314 312 310 313 325 329 332 333 333 328 325 330 332
307 308 308 309 310 310 311 314 316 318 319 318 317 320 322 324 324 323 319 318 318 320 323 324 322 320 320 319 319 318 317 317 318 318 322 327 330 330 329 326 325 333 330
306 308 308 308 308 308 309 311 314 315 317 319 320 322 323 323 323 323 321 320 321 321 323 324 323 320 318 317 316 316 317 318 317 312 312 315 326 328 328 326 325 331 330
305 305 306 306 307 307 308 309 311 313 315 316 317 319 320 322 323 321 319 321 321 322 322 324 322 320 317 316 316 316 318 318 318 315 312 315 326 326 325 323 327 330 332
304 304 304 305 306 307 307 308 309 310 312 314 315 316 318 319 320 319 317 318 320 321 322 323 323 320 317 316 316 316 316 317 314 314 312 311 323 319 321 324 328 331 333
303 303 303 302 303 306 307 308 309 310 311 312 313 314 316 316 317 319 316 316 318 321 322 322 322 321 319 317 316 316 315 315 315 316 316 312 321 320 322 324 329 330 331
302 302 302 302 303 304 305 305 307 307 309 309 311 313 314 315 316 317 315 315 314 317 322 322 321 321 320 318 316 314 315 314 315 317 315 311 319 318 324 324 327 330 333
300 301 301 302 302 303 303 305 306 306 307 308 310 311 312 313 314 316 316 314 312 312 315 319 319 319 318 317 314 313 313 314 317 317 311 312 318 318 320 327 327 331 331
299 300 300 300 301 302 302 304 304 305 307 308 309 309 310 311 312 314 316 317 315 312 312 315 317 317 317 317 316 316 317 317 318 313 311 316 313 322 322 327 329 330 330
298 298 299 300 300 301 301 302 303 303 304 305 306 308 308 310 311 311 313 315 316 315 312 314 315 316 317 316 316 316 317 318 319 312 312 316 322 323 325 328 329 328 329
298 298 298 299 299 299 300 301 301 302 303 304 304 305 306 308 309 309 309 309 311 314 313 314 314 314 315 316 316 316 317 318 319 312 316 328 325 326 327 328 327 328 328
297 298 298 298 298 299 299 301 301 301 303 304 304 304 306 307 308 308 308 308 309 311 310 311 312 313 315 316 315 316 317 318 320 314 325 326 326 328 327 327 329 329 329
298 299 299 298 298 298 299 299 300 300 304 305 304 305 305 307 307 307 309 308 310 311 311 313 314 315 316 316 316 317 317 318 321 321 326 327 327 327 328 328 328 328 329
303 304 304 302 302 302 301 300 300 300 300 302 305 306 307 307 306 306 307 309 311 313 313 314 315 316 317 317 317 317 317 319 316 325 327 327 327 329 329 328 328 327 327
307 311 314 310 311 311 310 310 308 303 302 303 304 306 307 308 308 307 307 310 310 312 313 313 315 316 316 317 316 317 319 320 324 326 326 327 328 327 327 326 326 327 328
316 315 314 313 311 310 310 312 311 308 306 306 307 307 308 308 308 308 308 310 310 312 312 313 314 315 315 315 316 318 320 324 325 327 327 328 327 326 325 325 325 325 325
318 319 315 312 311 310 310 310 310 310 309 308 308 308 308 308 308 309 309 311 311 311 312 313 314 315 315 315 316 319 325 326 326 327 328 327 326 325 325 324 323 322 321
318 317 315 315 311 311 310 310 309 309 309 309 308 308 310 309 309 309 311 310 311 313 313 315 316 316 316 317 322 326 326 326 326 326 326 326 325 324 325 324 324 325 325
318 317 315 313 312 312 311 311 310 310 310 311 311 312 311 311 312 312 312 313 316 315 314 311 313 321 326 326 323 325 327 327 328 326 326 326 324 325 323 322 322 322 322
321 318 316 313 311 311 311 311 310 311 311 311 312 312 312 312 313 314 314 313 312 312 316 321 324 326 326 324 326 326 326 327 325 325 324 325 324 322 321 322 323 323 323

GFSGL_850_thetae_105.txt.gz
Theta_e
320 321 322 325 328 330 333 334 336 338 338 339 339 330 328 338 337 335 334 335 335 336 337 336 335 335 336 335 336 328 331 329 335 332 331 329 330 328 320 322 325 334 336
318 318 320 324 326 327 328 331 334 334 335 336 333 330 327 325 323 320 320 319 322 328 330 332 332 334 334 330 332 335 334 333 334 332 331 329 329 329 329 330 328 331 335
317 318 318 319 323 327 327 326 328 329 331 326 325 324 324 319 320 323 325 324 324 325 327 328 329 331 331 332 331 330 329 329 331 331 330 330 331 331 333 334 332 334 333
314 315 316 318 318 319 323 325 326 325 327 327 324 322 321 321 321 322 323 323 323 323 324 325 326 328 329 329 329 329 329 328 327 327 328 328 327 329 331 333 333 330 326
312 313 314 315 317 317 319 318 320 320 324 324 325 324 323 321 321 322 321 322 322 323 323 324 324 325 325 326 326 326 326 326 325 325 325 325 326 328 331 333 332 331 331
311 312 312 312 314 316 316 317 316 316 317 323 322 322 324 323 321 321 321 322 323 323 323 323 323 322 317 317 315 313 314 312 312 319 320 322 324 328 330 333 333 332 330
311 311 311 311 311 313 315 315 318 317 315 317 321 322 321 318 325 323 320 321 323 323 323 323 323 322 318 319 318 316 315 315 315 315 313 312 316 320 326 329 332 331 329
308 308 310 310 310 311 313 314 315 317 319 317 316 316 319 319 317 318 320 321 323 324 322 321 321 321 321 320 322 323 322 321 320 320 321 316 319 324 327 329 332 329 326
307 307 307 308 308 311 311 312 313 314 317 320 321 319 321 317 319 318 317 322 322 324 325 325 322 321 322 321 320 322 322 321 320 319 318 317 315 311 316 323 329 328 328
305 305 307 307 308 309 310 311 312 312 314 317 319 321 322 321 318 315 318 324 324 323 324 325 324 325 324 323 319 317 322 322 321 321 320 315 318 316 321 328 328 325 323
304 305 306 306 306 306 308 309 310 311 312 313 317 318 320 321 321 319 319 322 324 325 324 324 325 324 323 323 322 320 317 317 321 319 318 318 319 320 325 321 320 321 322
303 304 304 305 305 306 306 306 308 310 311 312 313 316 318 319 320 320 322 320 321 323 324 323 324 323 323 323 323 320 318 317 316 318 318 318 319 319 324 324 320 321 325
303 303 303 303 305 305 305 305 305 307 309 311 312 313 315 317 318 319 320 319 318 319 321 321 323 322 324 323 322 321 319 317 316 317 317 318 319 319 321 322 318 324 325
301 302 302 302 303 304 304 304 304 305 307 309 311 313 313 314 315 319 318 318 318 318 317 319 321 323 323 323 322 320 319 317 317 318 318 319 320 320 321 317 320 323 325
299 300 300 300 300 301 302 303 304 304 306 307 309 310 311 313 313 315 317 318 317 317 317 315 320 322 322 322 322 322 320 319 318 319 320 321 320 319 317 317 323 324 325
297 298 299 299 299 300 301 302 303 304 305 306 307 309 311 311 313 313 314 315 318 317 317 316 318 321 321 321 321 320 320 319 319 319 321 322 318 322 314 320 322 322 327
296 297 297 298 299 299 299 299 300 301 302 304 305 306 309 311 310 311 312 312 314 318 317 316 317 318 320 320 319 319 319 318 318 321 320 317 314 319 321 321 325 326 327
296 296 297 298 298 299 299 299 299 299 299 300 302 303 305 307 309 310 310 310 311 313 316 317 316 317 318 317 318 318 318 318 318 320 319 316 321 315 319 321 325 327 328
295 296 296 297 298 298 298 299 299 300 300 301 303 303 303 304 306 308 308 308 309 312 313 316 316 316 316 317 317 317 317 317 318 319 318 316 322 321 320 324 326 328 328
299 300 301 299 298 298 297 298 298 299 299 300 302 303 304 303 303 305 305 307 308 309 311 312 313 314 314 314 315 315 316 317 318 318 318 319 325 321 322 326 328 328 329
305 308 306 304 305 307 306 304 302 300 299 300 300 304 303 304 304 305 305 307 308 309 310 312 312 313 314 315 316 317 318 319 318 318 317 323 324 324 325 328 328 328 328
315 313 312 311 311 310 310 309 308 303 301 300 301 303 305 305 305 306 306 307 308 310 311 312 314 315 316 316 317 318 319 318 318 319 320 326 320 321 327 328 328 328 328
316 316 313 312 311 310 310 309 307 305 304 303 304 304 306 307 307 307 308 309 310 311 312 313 315 315 316 318 318 318 318 319 318 322 326 325 321 327 326 326 327 327 326
315 316 314 312 311 311 310 310 309 308 307 307 306 305 307 307 308 308 309 310 311 312 312 313 313 314 316 317 317 317 317 320 324 327 325 324 326 326 325 324 324 325 324
314 313 313 313 312 311 311 310 309 309 308 309 308 308 308 308 309 311 310 310 311 312 312 312 312 315 317 318 318 319 322 326 326 326 326 326 326 325 324 323 324 323 323
315 312 311 311 312 312 312 312 312 311 311 311 311 310 311 311 310 310 311 313 314 314 312 313 316 316 316 317 320 324 326 326 325 325 326 325 325 325 324 323 324 324 323

GFSGL_850_thetae_108.txt.gz
Theta_e
318 319 319 319 321 324 327 328 327 329 331 331 333 337 339 338 336 332 329 330 329 324 324 329 336 334 330 333 336 337 335 330 331 328 324 325 325 332 330 330 327 326 323
317 318 319 319 318 320 324 326 327 327 330 332 334 338 336 336 334 332 326 325 322 321 323 330 334 329 327 328 331 330 331 331 330 329 321 325 329 328 326 330 331 331 329
315 315 315 317 317 318 319 323 327 327 327 330 331 332 334 333 329 325 322 323 323 329 331 332 331 330 331 329 332 330 330 331 331 328 326 326 332 330 331 331 331 330 327
314 313 313 314 315 316 318 318 319 324 326 326 328 329 329 331 325 324 324 324 325 326 325 325 328 329 328 330 328 328 329 330 329 328 327 327 326 325 326 328 331 329 327
312 312 313 313 313 313 314 317 317 318 320 323 323 321 323 325 323 323 325 325 325 324 323 324 325 326 327 329 328 328 327 326 326 327 326 325 324 326 324 327 329 327 329
312 312 312 313 313 312 312 313 315 317 317 317 320 319 322 320 323 322 322 323 322 322 323 323 323 323 322 325 324 326 325 325 325 321 313 311 310 311 311 315 325 326 328
311 311 311 311 311 311 312 312 313 315 317 317 317 316 317 318 321 322 321 319 319 322 321 323 321 323 322 316 315 313 313 313 313 313 314 315 315 313 310 313 321 325 328
309 309 309 309 309 308 309 310 311 312 315 316 318 317 316 317 317 321 322 322 326 323 322 320 322 321 321 319 318 315 316 318 318 318 316 315 315 313 314 313 312 312 320
307 307 307 307 306 307 307 309 309 311 313 316 316 318 316 316 316 316 319 322 321 321 324 322 319 319 322 322 320 319 322 323 322 320 319 319 317 315 316 315 314 319 323
307 306 306 305 306 306 306 308 309 311 313 313 316 317 318 316 316 317 320 320 321 321 317 323 323 323 319 321 320 321 323 321 320 321 321 319 317 316 318 318 319 328 328
306 306 305 305 304 304 306 307 308 308 310 312 313 314 317 319 321 322 318 318 322 321 318 317 321 325 325 322 321 321 320 319 320 322 322 320 317 317 318 319 318 323 324
303 304 304 302 303 304 306 306 305 306 307 310 312 312 315 317 320 321 321 320 321 322 321 316 318 321 325 325 324 324 323 322 322 320 318 317 317 316 319 319 320 321 323
301 301 301 301 302 303 304 305 306 306 307 308 310 312 312 314 318 319 321 323 322 323 322 321 322 324 325 324 324 324 323 323 322 321 319 317 316 318 319 319 318 319 322
298 299 299 301 302 303 303 304 305 306 305 307 307 310 312 313 314 319 319 320 319 320 320 320 323 322 322 323 323 324 323 323 322 321 319 317 317 320 320 319 317 322 317
296 297 298 299 300 302 302 302 303 304 305 305 306 308 309 312 315 314 316 321 319 317 318 319 319 320 322 322 322 323 323 323 322 321 320 318 318 319 318 314 321 318 321
295 296 296 297 298 299 301 301 301 302 303 305 305 306 307 309 312 313 315 316 318 319 317 319 319 318 320 322 322 323 323 322 321 320 319 320 321 321 315 313 319 320 322
294 295 295 296 296 297 298 299 300 300 301 302 304 305 306 307 309 311 311 312 312 317 319 318 319 319 319 322 323 323 323 322 320 320 320 320 321 320 317 311 316 320 325
294 294 295 295 296 296 297 298 299 299 300 300 302 303 305 306 307 310 310 310 310 312 318 319 319 319 318 321 323 323 322 321 320 320 322 321 320 318 312 313 321 322 324
295 295 295 296 296 296 296 297 298 299 299 299 299 300 302 304 306 307 307 309 307 310 312 317 319 318 318 319 321 321 320 320 319 319 320 320 319 316 311 314 321 322 323
300 300 300 299 299 297 297 297 297 298 299 299 299 299 301 302 304 305 306 306 307 309 311 312 317 317 318 316 319 319 318 317 319 319 319 318 318 314 311 319 320 319 323
305 306 308 306 306 305 303 302 301 299 298 299 299 300 301 302 303 304 305 305 308 309 310 312 313 316 316 316 316 316 317 317 317 317 318 318 318 311 317 322 322 322 325
313 312 312 311 311 310 310 307 304 301 300 299 299 300 301 303 303 303 304 305 306 307 308 310 312 313 314 314 314 314 315 317 317 318 318 318 317 312 322 320 320 323 328
314 313 313 313 311 310 310 308 306 302 301 300 300 300 301 302 303 303 304 305 306 307 308 310 311 312 313 314 313 314 317 318 319 319 318 318 313 319 320 321 323 327 328
313 314 313 312 311 310 309 308 305 304 303 302 302 302 303 304 304 305 305 306 307 308 309 310 310 311 313 315 316 318 319 319 319 318 318 314 321 322 320 324 328 327 327
311 312 312 312 312 311 310 308 307 307 306 305 304 305 305 306 306 307 307 308 309 309 310 311 311 312 315 316 318 318 318 318 318 317 317 322 323 322 325 326 326 326 326
310 311 311 312 312 312 312 311 309 309 308 307 306 307 307 308 308 308 309 310 311 311 312 312 313 313 314 317 318 317 317 317 316 318 325 323 320 325 324 324 325 324 323

GFSGL_850_thetae_114.txt.gz
Theta_e
316 319 318 318 318 318 318 317 317 316 316 316 315 316 320 326 326 326 329 330 330 331 330 327 325 327 328 326 325 322 327 325 326 329 329 328 323 323 325 324 324 326 329
315 317 317 316 316 316 316 316 316 315 314 314 313 313 315 319 322 324 326 326 329 330 328 330 328 327 327 325 324 323 327 328 329 330 327 326 326 326 325 322 323 324 328
315 315 315 314 314 314 314 314 314 314 313 312 311 311 312 315 317 320 322 323 327 328 329 328 329 328 326 325 323 323 328 329 330 328 329 328 327 327 319 324 328 330 330
314 314 313 313 313 312 312 312 312 312 312 311 311 310 310 311 313 317 318 321 323 325 327 327 326 325 326 325 321 321 325 330 327 329 329 327 328 328 328 327 326 326 326
311 311 311 311 311 312 312 313 312 312 311 311 312 311 310 311 312 315 317 318 319 322 323 325 326 326 325 321 320 321 325 326 326 328 328 327 327 327 326 326 324 322 322
307 307 307 307 307 308 309 310 311 311 312 313 313 312 311 310 311 313 315 317 321 321 322 320 320 323 324 322 321 323 327 326 326 328 328 327 325 324 322 315 312 310 309
307 307 307 306 306 306 307 307 307 308 310 310 310 310 310 310 311 312 314 316 318 319 317 318 318 322 323 325 325 326 327 326 326 324 325 325 317 311 310 311 310 310 311
307 306 306 306 306 306 306 306 307 307 306 307 308 308 307 307 307 311 314 316 316 317 316 317 319 323 324 325 326 325 326 326 323 319 311 311 311 313 313 314 313 313 315
306 305 304 304 304 303 304 306 307 306 306 306 306 305 305 305 307 311 313 316 316 316 316 320 320 322 323 324 324 326 325 321 313 312 313 314 314 315 315 315 316 316 316
301 301 301 300 301 303 304 305 306 306 306 306 305 305 304 305 307 310 312 315 316 316 318 318 320 323 322 323 319 320 316 312 313 315 315 316 316 317 317 316 316 317 318
298 299 298 298 298 300 300 302 303 306 306 306 305 304 304 305 307 311 313 316 316 316 316 317 321 321 322 321 318 314 312 313 316 317 317 317 318 319 318 317 316 317 319
296 296 295 295 296 298 300 302 303 303 305 305 304 304 304 306 307 309 313 315 317 317 316 316 319 320 322 321 317 317 320 319 318 319 320 319 319 319 319 319 317 316 319
294 294 294 294 295 296 297 299 302 302 303 303 303 303 305 305 306 307 309 313 316 316 319 317 316 314 318 320 321 319 318 319 321 321 321 322 322 322 322 321 317 317 319
293 293 293 294 294 294 295 296 297 299 300 300 302 305 306 305 306 306 308 310 312 313 318 320 319 318 318 320 320 316 319 321 322 322 322 323 323 323 322 320 317 318 318
292 292 293 293 293 294 295 296 297 299 300 302 303 304 305 304 305 305 306 308 310 310 315 319 319 319 319 318 319 317 316 319 320 321 323 323 324 323 323 320 318 318 319
292 292 292 293 293 294 294 295 296 297 299 299 301 304 304 305 306 306 307 310 310 310 312 316 319 320 318 319 319 318 318 319 320 320 322 322 323 323 322 321 318 318 319
293 294 294 293 293 293 294 295 295 296 297 297 299 302 304 305 305 306 307 309 311 312 313 313 317 320 319 320 319 320 318 319 320 321 321 321 321 322 322 321 319 319 320
297 297 296 297 296 295 294 294 295 295 296 297 298 300 302 304 304 305 306 308 309 311 311 313 314 319 320 319 319 320 319 319 318 318 318 320 321 322 321 319 320 321 316
302 303 302 301 300 299 298 296 295 295 296 296 297 298 300 301 302 303 304 306 308 309 310 311 314 317 319 319 319 318 317 316 316 315 315 319 321 320 320 320 321 317 314
308 310 310 309 308 305 303 301 299 297 296 296 297 297 299 300 300 301 303 305 305 307 309 310 313 317 319 319 318 317 317 319 321 321 321 320 320 320 320 321 320 313 315
309 312 311 311 310 309 306 305 302 299 298 297 297 298 299 299 300 301 303 304 305 305 307 310 312 318 318 319 318 317 317 321 322 321 321 321 320 319 320 321 314 313 314
309 311 310 311 310 309 307 305 303 301 299 298 297 297 298 298 299 300 301 304 304 304 305 308 311 317 318 318 317 316 318 318 318 319 319 319 318 317 320 319 315 316 316
309 310 311 311 310 308 307 305 303 301 299 298 298 298 298 299 299 300 301 301 303 304 305 307 311 315 317 318 318 317 316 315 316 317 317 317 317 318 320 317 317 316 316
309 310 310 310 310 309 307 306 304 301 300 299 299 299 299 300 300 302 301 302 302 304 305 308 311 313 315 315 316 316 316 315 315 315 315 315 316 319 318 317 316 315 314
308 309 310 309 310 309 308 307 306 304 302 301 300 300 300 300 300 302 303 303 303 304 306 308 311 312 312 312 312 313 314 314 314 314 314 314 317 319 318 318 318 321 316
306 307 308 310 310 310 309 308 306 305 305 305 304 304 302 302 303 303 303 303 304 304 305 307 310 311 312 312 311 311 312 312 312 313 314 314 318 318 318 318 317 317 321

GFSGL_850_thetae_117.txt.gz
Theta_e
315 315 315 317 317 317 318 317 317 316 316 316 315 314 313 311 310 312 319 322 324 325 327 327 326 327 331 330 330 329 326 326 326 325 323 325 323 325 330 329 327 323 324
315 315 316 317 317 317 317 316 316 316 315 315 314 314 313 312 310 309 310 317 322 323 323 327 328 329 331 331 331 328 326 326 323 323 326 328 328 329 330 327 325 323 323
314 315 315 315 316 315 315 314 314 315 314 313 313 313 312 312 311 310 309 311 317 321 321 323 326 327 328 330 328 327 326 323 326 325 328 329 330 329 328 326 324 320 323
312 312 312 312 312 313 312 312 312 312 312 312 312 312 311 311 311 311 310 309 313 318 320 320 323 325 326 327 327 326 325 323 327 328 328 328 328 327 327 325 324 326 327
307 307 307 306 306 307 307 307 306 307 309 310 312 312 312 311 311 311 311 311 309 315 317 320 321 323 324 326 325 325 325 326 324 326 327 326 327 327 327 327 326 325 325
305 306 306 306 306 306 306 306 306 306 306 307 309 310 311 312 312 311 311 310 310 311 316 318 320 319 322 321 323 325 321 321 322 324 325 325 323 327 326 325 324 323 316
305 305 306 306 306 306 306 306 306 306 306 306 306 307 308 308 309 310 310 310 310 309 315 317 318 319 317 318 319 323 323 321 323 324 324 323 323 326 325 323 315 311 310
303 303 303 303 303 302 302 303 303 304 304 305 305 305 306 306 307 307 307 308 308 309 313 316 316 317 317 317 317 322 322 320 323 325 324 322 324 324 314 312 313 312 312
301 302 302 301 301 300 301 301 301 302 304 304 305 306 306 306 306 305 305 306 307 307 313 316 316 316 315 316 319 323 324 324 323 323 322 318 313 312 314 315 315 315 316
301 300 300 299 299 300 299 299 301 302 304 306 306 305 306 306 305 305 304 307 309 311 314 316 315 316 318 321 323 324 324 322 323 319 312 312 314 315 315 316 316 316 317
298 297 297 296 296 296 296 296 297 299 300 301 303 305 306 306 305 304 304 306 308 312 314 316 316 317 320 321 323 324 323 323 320 312 314 315 316 317 317 317 317 316 316
296 296 296 296 295 295 295 295 296 297 300 302 302 304 305 305 304 304 305 307 310 312 316 316 316 317 320 318 321 322 320 318 312 314 316 316 317 317 318 319 319 319 317
295 295 295 295 294 294 294 294 295 296 299 301 303 305 304 304 303 304 305 306 310 314 315 316 318 316 319 320 321 320 315 312 314 316 317 318 319 320 321 321 321 320 317
293 293 293 293 294 294 294 294 294 295 297 298 301 303 303 303 303 304 305 306 309 312 315 315 317 316 317 320 321 320 318 319 319 319 319 320 321 321 322 322 322 320 317
292 293 293 293 293 293 293 294 294 295 296 297 299 299 301 302 305 305 305 306 308 310 312 315 316 316 316 318 318 319 319 319 320 319 321 321 322 321 323 323 322 321 318
294 295 295 293 294 293 293 293 294 295 295 296 299 301 303 304 305 304 304 305 308 310 311 310 316 315 316 317 318 319 319 317 317 319 319 319 320 320 321 322 323 322 319
295 297 298 297 297 296 296 295 294 295 296 296 297 300 301 303 304 304 306 307 308 307 309 310 313 317 318 318 318 319 319 318 315 317 317 318 319 320 320 321 322 322 320
299 300 300 301 301 301 300 299 297 295 295 295 296 297 299 301 303 305 306 307 309 310 310 309 312 315 317 318 318 318 319 318 318 318 318 318 320 320 321 321 321 321 319
301 304 303 304 306 306 304 302 300 298 296 296 296 297 297 299 301 302 305 305 308 309 310 311 311 313 314 319 318 319 318 318 318 317 318 317 317 317 320 321 321 320 320
305 306 306 309 309 309 307 304 302 300 298 297 296 297 297 297 299 301 304 305 307 308 309 310 311 313 315 319 319 319 319 319 319 317 317 315 315 316 320 320 320 320 321
305 308 309 309 308 309 308 306 304 301 298 297 297 297 297 298 299 300 303 303 304 306 308 309 310 313 314 318 319 318 317 317 316 315 315 318 320 320 320 320 320 321 317
306 307 307 307 308 308 308 305 302 301 299 297 297 297 297 298 299 299 301 302 302 305 306 308 310 313 316 319 318 318 316 315 315 318 319 320 320 320 320 319 320 320 314
306 306 308 308 308 308 307 304 301 300 299 298 297 297 297 299 298 299 300 301 301 304 305 307 309 313 316 318 318 318 317 316 318 320 320 320 320 319 318 317 320 317 317
305 306 307 307 308 307 306 304 302 300 299 299 299 298 298 298 298 300 300 300 301 304 305 306 309 312 315 318 317 317 317 317 317 318 318 317 317 317 317 317 320 317 317
304 305 306 307 307 306 306 305 304 303 302 301 300 300 299 299 299 300 301 301 302 304 305 306 308 311 313 317 315 317 316 315 315 315 315 315 314 314 316 319 318 318 317
303 304 305 306 307 306 307 306 306 305 304 304 303 302 301 301 301 301 302 303 302 303 304 305 308 311 312 313 314 314 314 314 314 315 315 314 314 314 317 318 318 318 318

GFSGL_850_thetae_123.txt.gz
Theta_e
318 318 318 318 319 318 316 316 317 319 319 318 318 317 318 318 317 317 316 315 313 313 312 312 312 311 310 321 321 322 324 329 328 329 331 331 329 328 327 326 324 325 325
312 311 312 312 312 313 313 315 316 316 318 318 317 317 317 318 318 317 316 314 313 313 312 312 312 312 311 312 319 320 323 324 327 327 329 329 331 328 327 324 325 328 328
310 310 310 310 311 311 311 311 311 311 312 312 312 313 313 314 315 316 316 315 313 312 312 311 312 312 312 313 317 319 320 326 325 326 328 329 330 328 324 326 328 327 328
308 307 307 307 306 306 306 306 305 305 305 305 306 307 308 310 311 313 315 314 313 313 312 311 311 312 312 312 311 317 319 323 325 324 325 328 328 327 325 330 327 325 326
306 305 305 304 304 303 303 302 302 302 302 302 302 303 304 305 307 308 310 310 310 314 312 314 313 312 311 311 313 317 318 324 323 324 326 329 326 327 329 330 329 328 327
304 304 303 303 303 302 302 301 302 302 303 304 305 306 307 307 307 307 306 306 310 312 313 315 316 313 311 311 311 309 315 320 323 323 325 327 326 328 329 328 330 328 328
304 304 303 303 303 302 303 304 304 305 305 305 305 305 305 306 306 305 305 306 306 309 312 314 315 314 313 312 313 311 312 319 322 323 324 326 327 328 326 326 327 327 326
303 303 302 302 302 303 303 304 303 303 301 302 302 302 303 304 304 303 303 304 305 307 308 309 311 310 310 310 312 313 313 316 317 319 323 325 325 325 324 325 323 325 323
301 301 301 301 302 302 301 300 300 299 299 299 299 299 300 300 300 301 304 304 303 306 307 308 309 309 308 307 307 309 312 314 316 317 319 322 323 323 323 323 322 322 321
300 300 300 300 299 298 299 299 298 297 297 297 297 297 298 299 299 300 302 304 303 305 308 307 308 307 306 305 305 309 311 315 316 315 316 321 323 323 323 323 323 318 318
298 298 298 297 298 297 296 297 296 296 296 296 296 296 297 297 298 300 301 303 304 305 307 308 308 307 306 306 309 310 310 317 318 317 316 321 323 322 321 319 314 318 319
296 296 296 297 297 295 296 297 297 295 295 295 295 295 296 297 299 300 302 303 303 304 306 307 307 306 306 308 314 314 315 315 317 318 317 321 320 319 317 315 316 316 316
294 296 296 296 296 297 296 297 297 296 295 296 295 295 295 296 298 301 302 303 303 305 305 306 305 305 307 314 316 316 316 317 318 319 315 320 320 318 313 316 318 319 319
294 294 294 296 297 298 298 297 297 298 297 296 295 295 295 296 298 302 303 304 304 305 305 304 304 306 308 315 316 316 318 318 320 321 321 320 319 314 316 318 319 320 321
292 293 295 296 298 300 301 301 301 302 298 297 296 294 295 296 297 300 303 303 304 304 305 306 305 307 309 314 316 317 315 317 318 319 317 319 318 318 318 319 321 321 323
293 294 296 297 299 300 301 306 306 305 303 300 299 296 295 295 297 299 300 301 303 303 305 307 306 309 314 315 316 313 315 317 315 312 317 318 320 319 320 321 322 321 321
294 296 297 298 300 301 302 301 303 307 304 304 301 299 297 296 295 298 299 301 303 305 306 308 309 313 314 316 316 312 312 314 316 317 318 320 321 323 321 321 321 322 322
296 298 298 300 300 302 302 303 303 302 303 303 302 299 298 297 297 297 299 300 304 305 305 306 310 314 316 313 313 316 316 317 317 319 321 322 321 321 321 321 322 321 324
298 300 300 302 302 302 302 303 304 303 302 301 300 299 298 297 297 298 300 300 304 306 305 307 310 311 313 312 314 316 319 318 319 321 319 320 320 320 319 321 322 321 322
300 301 301 302 303 303 302 302 302 301 299 298 298 297 297 297 297 298 300 300 304 306 307 308 311 311 311 315 316 316 319 318 318 316 316 317 318 318 322 320 320 320 321
299 302 304 303 300 300 302 303 302 300 299 298 298 297 297 297 297 297 300 301 304 305 308 309 310 309 310 314 316 316 320 320 319 319 318 318 319 318 317 316 320 322 321
299 302 301 301 301 302 304 304 302 301 299 299 298 297 297 297 298 298 300 302 303 305 306 308 310 311 310 313 314 315 320 320 319 320 319 318 318 316 315 314 320 320 319
299 301 302 302 303 304 305 304 303 301 300 299 298 297 297 297 297 298 300 301 302 304 305 308 308 309 312 314 315 315 320 321 320 319 319 317 316 316 317 319 320 320 319
299 301 302 303 304 304 304 304 303 303 301 300 299 298 298 297 298 300 300 301 302 303 304 307 308 308 311 313 314 315 318 319 319 318 318 316 315 320 321 320 319 320 318
298 300 301 302 303 304 304 304 304 302 302 301 301 299 298 298 299 300 300 301 303 304 304 305 307 307 309 312 313 317 318 318 317 316 316 317 318 320 320 320 318 321 317
297 297 298 299 300 302 302 303 303 303 304 303 302 301 300 298 299 299 299 301 302 304 304 305 306 307 309 312 316 318 318 317 316 317 319 319 318 318 318 317 317 317 317

GFSGL_850_thetae_129.txt.gz
Theta_e
320 320 320 321 321 321 320 320 321 318 317 318 320 326 327 328 328 328 327 325 324 325 325 323 322 322 321 320 320 318 318 318 319 320 321 323 325 326 326 328 332 333 333
317 317 317 317 318 318 319 318 318 318 318 319 320 320 322 323 324 325 325 325 326 325 325 324 323 324 323 321 320 320 320 320 320 321 320 321 322 324 325 325 326 331 331
316 316 316 316 317 317 318 317 317 317 316 317 317 317 317 318 318 319 321 322 323 324 324 324 324 323 323 322 321 320 319 318 319 319 320 321 322 323 324 324 327 328 330
315 315 315 314 314 314 314 314 314 314 314 314 313 313 313 313 313 314 314 315 317 318 320 322 323 323 323 322 321 320 320 319 318 318 319 319 319 323 323 324 326 327 329
314 314 313 313 313 312 312 312 312 312 312 312 312 312 312 312 311 311 311 312 312 313 314 316 318 320 320 319 320 320 320 319 319 318 318 319 319 322 323 324 325 328 329
314 313 312 312 311 311 310 310 309 310 310 310 310 311 311 311 311 311 311 310 311 311 311 312 314 316 314 315 319 319 318 318 318 318 318 316 316 321 320 323 326 328 331
312 311 310 310 309 309 309 309 308 308 308 309 310 311 311 310 310 310 310 310 310 309 310 310 311 312 312 313 315 316 316 317 316 316 316 316 315 317 315 318 325 326 329
311 309 309 308 308 307 307 307 307 308 309 308 307 306 306 306 306 305 305 306 305 305 306 306 307 309 310 312 314 314 316 316 316 316 315 315 314 313 312 321 324 325 327
308 308 307 306 306 306 306 306 306 304 303 303 302 302 302 304 304 304 301 301 302 301 302 303 304 305 305 307 309 312 313 315 316 315 316 315 316 316 315 318 320 323 323
307 306 306 306 305 304 303 302 301 300 299 300 301 301 300 300 301 301 300 300 299 299 299 300 301 302 303 303 305 306 308 312 314 314 314 313 312 312 311 312 317 323 325
305 305 304 302 300 300 299 298 298 298 298 298 298 301 301 301 302 305 302 299 299 298 298 299 300 301 302 303 305 305 308 311 311 312 311 311 312 314 315 318 317 321 321
302 300 299 298 297 297 298 299 299 298 298 299 299 301 303 302 302 304 301 299 299 298 298 299 299 300 303 306 306 306 308 311 310 311 312 311 314 314 315 320 320 320 321
297 297 296 296 298 299 298 299 299 299 298 300 299 299 302 302 300 298 299 299 298 298 298 299 301 302 303 305 308 307 308 308 308 309 309 310 312 314 318 320 319 318 322
294 294 296 296 298 299 299 299 299 300 299 298 298 298 300 300 299 299 298 299 300 300 302 303 304 303 304 306 306 307 307 308 309 310 311 313 313 319 320 317 317 320 322
294 294 294 296 298 300 300 301 300 303 299 299 300 299 299 300 301 297 296 297 299 300 300 303 304 303 305 306 307 308 309 310 308 310 313 315 316 319 317 315 315 314 314
293 293 295 297 299 300 300 304 303 301 302 301 301 301 300 299 300 298 297 296 297 298 300 303 304 305 307 309 309 310 311 311 311 315 315 316 318 319 314 315 315 315 314
292 294 295 296 298 299 300 298 299 306 304 304 303 301 299 298 298 298 297 296 296 297 299 303 305 306 308 308 310 313 314 313 314 316 316 318 318 315 314 314 315 316 319
293 294 294 297 298 299 298 298 298 298 301 303 302 300 299 298 298 298 297 296 295 297 300 303 304 307 309 311 312 312 314 315 316 317 318 318 318 315 314 315 318 319 320
293 295 296 298 299 298 299 300 299 298 298 300 300 300 298 298 298 298 297 296 296 298 301 302 304 307 310 313 315 316 315 314 317 316 318 318 315 315 317 319 321 321 323
294 295 296 297 299 300 299 298 298 298 298 299 299 299 298 297 297 298 297 297 297 301 304 307 308 308 310 312 314 315 315 315 315 316 319 315 316 318 320 319 322 324 325
293 295 296 298 298 299 298 298 298 297 297 300 299 299 298 298 298 298 298 298 299 302 305 308 310 310 312 314 314 315 314 316 317 319 317 316 319 317 320 324 324 323 323
293 294 295 296 298 298 299 298 298 298 298 299 300 299 299 298 299 299 299 300 303 303 306 308 311 311 313 314 314 315 316 317 317 316 315 317 321 324 322 323 324 323 323
292 293 295 296 297 297 298 297 298 298 299 300 300 299 299 298 299 300 300 302 303 304 308 310 311 311 313 314 316 315 314 316 317 316 319 322 323 323 323 323 324 323 322
291 291 293 294 295 296 296 296 297 297 298 300 300 300 299 299 299 300 301 302 304 305 308 310 311 311 312 313 314 316 316 315 316 319 322 323 323 322 323 322 323 323 322
290 291 291 292 293 294 294 295 296 297 298 299 300 300 301 300 300 301 302 303 303 304 307 309 310 311 313 313 315 314 316 318 321 322 322 323 323 323 322 322 322 323 323
291 291 291 291 292 292 292 293 294 295 296 298 300 300 300 301 301 301 302 303 304 305 306 308 310 310 312 312 313 314 315 318 319 321 322 323 323 322 322 322 322 323 323

GFSGL_850_thetae_132.txt.gz
Theta_e
321 320 320 320 319 320 320 319 319 318 318 317 317 317 317 317 320 326 328 329 327 327 326 327 326 325 324 324 324 322 321 320 321 322 321 320 320 319 319 320 320 322 325
319 318 318 318 318 318 318 317 316 315 315 315 316 317 318 319 321 323 324 325 327 326 325 323 323 324 325 325 323 323 322 321 320 318 317 318 319 321 325 325 323 320 321
318 317 317 316 316 316 316 316 316 315 315 314 315 315 316 317 318 318 318 319 321 324 324 324 323 323 324 324 323 324 325 325 324 323 323 322 320 319 319 318 317 323 322
317 316 316 315 315 314 313 313 313 313 313 314 314 314 314 314 314 314 314 314 314 315 316 318 320 323 323 322 322 323 323 322 322 323 321 320 318 317 319 321 323 322 325
316 316 315 314 314 313 313 312 311 311 311 311 311 311 312 312 312 312 312 312 312 313 313 314 314 316 317 319 321 320 320 320 320 321 321 321 320 319 320 322 322 322 321
315 314 314 313 312 311 311 311 310 310 310 310 311 311 310 311 311 311 312 312 312 311 311 311 311 311 313 314 316 317 318 319 320 319 320 320 320 320 318 317 318 317 315
313 313 312 311 310 310 309 309 309 309 309 308 308 309 310 310 311 311 311 312 312 311 310 310 310 309 310 310 311 313 314 315 316 316 317 318 319 318 317 317 316 315 314
313 312 311 310 309 308 307 307 307 307 307 307 307 308 308 308 308 306 305 305 305 305 305 306 306 307 307 307 307 310 311 312 315 317 317 317 317 317 317 317 316 315 314
311 310 309 308 307 307 307 307 306 306 306 305 304 303 303 303 303 303 304 304 303 305 305 304 304 303 304 304 303 304 306 309 311 313 315 316 316 317 317 316 315 317 314
308 308 307 307 306 305 304 302 301 301 301 300 300 300 301 301 302 302 302 300 300 301 302 303 303 302 302 301 301 302 302 304 306 308 309 312 316 316 314 314 314 312 312
307 306 305 304 302 300 299 299 299 299 300 301 301 302 302 302 303 304 304 300 300 299 300 302 301 299 299 300 300 300 301 302 303 305 308 314 313 314 314 313 314 313 313
304 303 302 299 297 297 297 299 301 299 299 301 300 302 304 303 303 305 304 302 300 299 299 299 299 299 299 299 299 301 303 304 304 305 308 312 312 313 313 314 315 314 317
301 298 296 296 297 298 298 298 300 300 299 300 299 300 303 303 303 303 303 301 299 299 299 299 299 300 301 300 301 303 305 306 307 306 309 310 311 312 312 313 315 314 320
296 295 295 297 297 297 298 299 300 300 299 299 299 299 299 301 302 301 299 298 298 299 299 299 300 301 303 303 303 304 305 307 306 307 309 310 310 310 310 310 315 319 320
293 294 295 294 296 297 299 300 301 302 298 297 299 298 299 300 301 300 298 297 297 297 297 298 300 302 303 303 304 306 307 307 308 308 309 308 310 312 313 313 319 319 316
292 293 294 294 296 297 299 303 303 301 302 302 301 300 300 300 300 299 298 297 297 296 296 296 299 302 304 305 305 307 307 308 309 309 309 309 310 313 314 319 317 315 318
291 293 293 294 296 297 298 298 300 306 303 303 302 301 301 300 299 298 298 297 296 296 295 297 299 303 305 307 307 308 309 310 311 311 311 312 313 316 315 316 314 316 316
292 293 293 295 296 297 298 298 297 297 298 301 300 300 300 298 298 297 297 297 296 296 296 298 301 304 305 305 309 309 310 312 313 313 313 314 316 317 316 314 316 314 315
292 293 294 296 297 297 297 297 296 296 297 297 299 301 299 298 297 297 297 297 296 296 296 300 303 303 304 307 309 313 312 313 313 315 315 316 316 318 315 315 315 314 314
292 293 293 294 296 296 296 295 296 297 298 298 299 299 299 298 298 298 298 297 297 299 301 302 304 308 309 309 310 311 314 316 316 314 317 317 318 318 316 315 316 317 319
291 292 292 293 294 295 294 295 296 296 297 298 299 300 298 298 299 299 299 299 298 301 302 305 307 311 311 311 312 314 315 315 315 317 317 317 318 318 317 316 318 319 319
291 291 291 292 293 294 294 294 295 295 296 297 299 300 299 299 299 300 300 300 300 302 305 307 310 312 312 315 315 315 315 315 315 315 317 318 316 315 316 318 316 318 322
290 291 291 292 292 293 293 293 294 295 295 297 298 300 299 299 299 299 301 303 303 304 306 308 311 312 313 314 316 315 316 318 318 318 318 316 315 315 315 319 321 323 322
291 291 290 291 292 291 292 292 293 294 294 296 298 300 300 300 300 300 301 302 303 305 308 310 312 313 313 314 316 315 316 316 316 316 315 315 315 316 318 322 324 323 322
290 290 291 291 291 291 291 291 291 292 294 295 297 299 300 301 301 301 301 302 304 305 309 310 310 313 312 313 314 315 315 315 315 315 316 316 315 317 318 321 323 322 322
290 290 290 291 291 291 290 290 290 291 292 294 295 297 299 300 301 301 301 303 304 305 307 308 310 311 313 313 313 315 315 315 316 316 316 321 323 323 323 324 323 323 322

GFSGL_850_thetae_135.txt.gz
Theta_e
320 318 318 318 317 317 316 316 316 316 317 317 317 317 316 317 317 318 319 324 328 328 326 325 326 324 326 327 326 325 325 324 323 322 322 320 321 321 319 315 318 323 322
318 318 317 317 316 316 316 316 315 315 314 313 312 312 313 314 314 316 318 319 321 322 323 324 324 323 323 323 323 323 323 323 325 324 323 322 320 317 318 322 322 321 320
318 317 317 316 316 315 315 314 314 313 312 312 312 311 311 311 311 311 313 314 316 316 316 317 318 321 323 323 323 323 322 321 321 321 323 324 322 323 323 320 318 314 318
318 317 316 316 315 315 314 313 312 312 312 311 311 310 310 310 310 310 312 312 313 313 313 313 313 314 316 318 322 323 323 322 322 321 322 322 322 323 322 321 319 319 319
317 316 315 315 314 313 312 312 311 310 310 311 312 312 312 312 312 312 312 312 312 312 312 312 312 312 313 314 314 316 317 318 320 321 321 321 321 321 320 320 319 319 322
316 315 314 313 313 312 311 310 309 309 309 309 309 309 309 309 309 309 310 310 311 311 311 311 311 311 311 311 311 311 310 311 313 314 316 319 319 319 318 319 320 318 318
314 313 313 312 312 310 309 309 308 308 307 307 307 307 307 307 307 307 308 309 309 309 309 309 309 309 310 310 310 310 310 310 309 311 313 315 317 317 318 319 320 319 318
313 312 312 310 309 309 308 308 307 307 307 306 306 305 305 305 305 305 305 304 303 304 305 305 306 307 307 307 306 306 306 307 308 309 309 311 315 315 317 318 318 318 318
311 309 309 308 308 308 307 307 306 305 303 303 304 304 304 306 306 305 303 303 302 303 304 304 304 306 307 306 302 301 301 303 306 306 306 308 311 313 315 316 316 317 317
308 308 307 307 306 306 306 305 303 301 301 302 304 304 305 306 308 306 305 303 303 304 305 305 304 304 303 301 300 299 299 300 301 302 303 304 306 310 312 313 316 316 316
306 306 306 305 305 304 302 301 300 302 302 303 304 305 305 305 307 306 305 302 302 301 301 304 304 303 302 300 299 299 299 300 300 300 301 301 304 307 310 311 315 314 315
304 304 303 303 301 300 300 301 300 301 301 302 301 304 306 305 304 304 303 302 300 298 299 300 302 301 300 300 299 300 299 299 299 300 302 303 305 308 309 311 311 313 314
302 301 300 299 299 299 300 301 300 299 299 301 300 300 302 303 302 301 301 301 301 299 298 299 299 299 300 300 301 302 302 301 300 302 303 304 305 308 311 313 313 313 314
297 297 297 297 298 298 298 298 299 300 300 299 298 298 299 301 302 302 300 300 299 298 297 298 298 299 299 300 302 303 302 303 304 304 306 307 306 308 310 311 312 313 314
293 294 295 296 297 298 299 299 300 302 298 298 299 297 297 298 300 300 299 298 298 297 296 296 297 298 298 300 303 303 304 305 305 306 306 307 309 310 311 311 312 312 312
292 294 294 295 296 297 298 302 302 302 302 301 300 297 297 298 299 299 298 298 298 297 296 296 296 297 298 301 303 305 306 306 307 307 308 308 309 308 309 310 312 312 312
292 293 293 294 295 296 298 299 302 305 303 303 300 299 299 299 299 298 297 297 297 297 296 296 296 297 300 302 304 305 307 308 308 309 309 309 309 308 309 310 313 314 316
292 292 292 293 294 296 296 297 297 297 297 302 302 300 299 299 299 298 298 297 297 296 296 296 297 299 302 303 305 305 307 309 309 310 311 311 311 313 314 316 318 317 317
291 292 292 293 294 294 295 296 294 295 296 296 298 300 299 299 299 299 299 298 296 296 297 299 302 303 304 307 309 309 310 312 313 314 313 313 313 315 315 314 315 316 318
291 292 292 293 293 294 295 294 295 295 295 296 297 298 299 299 299 299 299 299 298 300 301 301 302 304 307 310 311 311 311 312 314 313 314 314 315 315 317 316 314 315 316
292 292 292 292 292 293 293 293 294 294 295 296 297 299 299 299 299 299 300 299 301 303 304 305 306 308 312 312 314 314 314 315 316 316 315 316 316 316 316 314 316 315 315
292 291 291 291 292 292 291 292 292 292 293 295 297 299 299 299 299 300 300 302 303 304 306 308 308 311 312 313 315 315 315 315 315 315 317 317 316 316 315 314 315 315 315
291 291 292 292 291 291 291 291 291 292 293 294 296 298 299 300 300 300 300 302 303 304 307 309 311 313 314 316 315 316 317 316 316 315 315 316 318 315 315 315 316 317 318
290 290 291 291 291 291 290 289 290 290 292 294 295 297 298 300 301 301 301 302 303 304 308 309 311 314 315 315 315 316 316 316 318 319 318 318 317 316 315 316 317 318 318
290 291 290 290 290 290 290 289 288 289 290 292 294 295 297 299 301 301 301 302 304 305 308 309 310 312 313 312 314 315 315 315 315 316 316 316 315 316 316 316 317 320 321
290 291 291 290 290 290 290 289 289 288 289 290 292 294 296 298 300 301 301 302 305 306 308 308 309 310 311 310 312 315 315 315 315 316 315 316 316 316 317 319 321 322 320

GFSGL_850_thetae_138.txt.gz
Theta_e
319 318 318 318 316 316 316 316 315 315 314 313 313 312 312 312 311 312 314 316 318 319 322 324 326 327 327 325 325 324 323 325 326 326 325 325 324 323 322 320 320 319 316
318 318 317 317 317 316 315 315 315 314 312 311 311 311 310 310 310 310 310 310 311 312 316 318 318 318 320 323 323 323 322 323 323 323 323 323 323 323 323 319 318 320 321
318 318 317 317 317 316 314 314 313 312 311 311 310 311 312 312 311 311 311 310 310 310 311 312 313 314 315 315 316 319 321 322 323 323 324 323 322 322 320 319 317 322 320
318 318 318 317 316 315 313 312 311 311 311 310 309 310 310 311 311 311 311 311 311 311 311 311 310 311 311 312 312 313 315 318 320 320 320 321 321 321 321 320 321 322 322
317 317 316 316 315 313 312 312 311 310 310 309 309 308 308 308 307 307 308 308 308 309 309 309 309 309 310 310 311 311 311 311 311 312 313 315 318 319 319 320 320 319 318
315 315 314 314 313 312 312 312 311 310 309 309 308 308 307 306 304 304 305 305 306 306 306 306 308 309 309 308 309 309 309 310 310 310 310 311 312 315 318 318 318 319 319
313 313 312 312 312 311 311 310 309 309 308 307 307 306 303 303 304 305 305 305 305 305 305 305 306 306 305 305 306 306 306 306 306 307 307 308 309 310 311 315 317 317 318
312 312 311 311 310 309 309 308 307 306 306 305 303 302 303 306 307 307 307 305 304 305 305 305 305 304 304 304 304 305 305 305 306 306 305 306 307 308 310 312 314 317 317
310 310 309 308 308 307 307 306 305 304 303 302 303 305 305 307 306 305 304 305 305 306 306 305 304 304 303 302 301 301 302 302 303 304 304 304 304 307 309 312 314 316 315
307 307 306 306 305 304 304 303 302 302 302 304 304 305 305 306 306 306 305 303 304 304 304 305 305 303 303 302 300 300 300 302 301 300 300 301 302 303 303 305 309 310 314
304 304 304 303 303 302 301 301 302 302 303 304 305 305 305 305 306 306 303 301 301 300 300 302 302 302 301 300 300 300 300 300 300 300 300 299 300 301 302 303 305 307 310
302 301 301 300 300 300 300 301 302 302 302 303 303 305 306 304 303 303 302 301 301 299 299 300 300 301 300 299 300 300 300 300 300 300 300 299 300 303 303 304 305 308 309
298 299 299 299 299 300 301 301 301 301 302 302 302 302 304 304 303 300 300 300 300 299 299 298 298 298 299 299 299 300 300 300 301 302 302 302 303 304 304 307 309 308 310
296 297 297 298 300 300 299 300 301 301 300 300 299 299 299 300 300 300 299 299 299 298 298 297 297 296 297 297 298 299 300 302 302 302 303 304 304 305 306 308 310 311 310
295 295 297 298 298 299 301 301 301 301 299 299 299 297 296 296 299 299 299 298 297 296 296 297 297 297 297 297 298 300 302 303 303 304 305 305 306 306 307 309 311 313 313
293 294 295 296 297 298 299 304 303 302 301 300 298 296 296 296 298 298 298 297 297 296 296 296 296 296 296 298 299 303 304 304 306 306 306 306 307 308 309 311 311 311 311
292 293 293 294 295 296 297 297 299 305 302 300 298 299 298 299 299 299 299 298 298 297 296 296 296 297 298 300 302 303 305 305 307 306 306 307 308 308 308 309 310 311 311
292 292 293 294 294 294 294 295 296 297 301 303 301 300 300 300 299 299 299 299 298 297 297 298 299 301 303 304 304 305 306 308 309 309 310 310 311 310 309 309 310 310 313
291 292 292 292 293 292 293 294 295 295 296 297 299 300 299 299 300 299 300 299 299 300 300 301 302 304 305 306 308 309 310 311 311 312 313 312 312 312 313 313 314 312 313
291 292 291 292 292 293 293 294 294 294 294 295 296 297 298 299 300 300 300 300 301 302 303 305 306 308 309 310 311 311 312 312 313 313 313 313 314 314 314 315 315 315 317
291 291 291 291 291 292 292 292 292 292 293 294 296 297 298 299 300 300 301 302 303 304 304 306 308 310 311 312 314 315 314 314 315 314 314 315 314 315 315 316 314 314 316
290 291 291 291 291 291 291 290 290 290 291 293 295 298 299 300 300 300 301 302 303 304 305 307 309 311 313 315 315 315 315 315 315 315 315 315 316 315 316 315 315 315 316
290 290 291 291 290 291 290 289 289 289 290 292 294 296 298 299 300 301 301 302 303 304 307 309 309 311 313 314 316 316 317 315 315 315 317 316 316 316 316 315 315 315 315
290 291 291 291 290 290 290 289 289 288 288 290 292 294 296 298 300 301 301 302 303 305 308 308 311 311 310 314 316 316 316 317 316 315 315 316 315 315 315 316 316 315 316
290 290 290 290 290 290 290 290 289 288 288 288 290 293 295 297 299 300 301 302 304 306 307 308 310 310 310 310 314 316 315 316 318 318 317 317 316 315 315 315 316 317 318
289 289 288 289 290 290 290 290 290 289 288 288 289 290 293 296 298 300 301 302 304 306 307 308 308 309 309 309 310 314 315 315 316 316 315 315 315 315 315 315 317 317 319

GFSGL_850_thetae_141.txt.gz
Theta_e
321 319 317 317 316 316 315 315 315 313 312 311 310 309 309 309 309 310 310 310 310 310 311 312 315 317 319 320 322 325 325 325 324 323 325 324 323 322 320 320 323 321 321
318 318 317 317 317 317 316 316 315 313 311 310 310 309 309 309 309 309 309 309 309 309 309 309 309 309 310 313 315 316 317 319 323 323 322 323 323 322 320 320 321 321 319
318 317 317 317 317 316 315 314 313 312 311 311 310 309 309 309 308 308 308 309 309 310 310 310 310 309 309 308 309 310 311 313 315 318 320 321 320 320 321 321 322 321 320
317 317 317 316 315 315 314 313 312 311 311 310 310 309 308 308 308 307 307 306 305 306 306 307 308 309 309 309 308 308 308 309 311 312 313 315 317 320 318 317 319 320 319
316 315 314 314 313 313 312 312 311 310 310 309 308 307 307 306 305 304 303 302 302 303 303 303 303 304 305 306 308 308 308 308 308 309 310 310 311 311 313 315 316 316 315
314 313 313 313 312 312 311 311 310 309 309 308 307 306 304 303 302 303 304 305 305 306 307 307 307 307 307 307 306 305 305 306 307 308 308 307 308 309 310 311 311 314 317
313 313 312 312 311 310 310 309 308 308 307 306 305 303 302 304 306 306 305 305 306 306 306 306 307 307 306 305 305 303 303 304 304 304 304 305 305 306 307 308 309 310 312
312 311 310 310 309 308 307 307 306 305 304 303 302 304 305 307 306 306 305 304 305 306 306 306 305 307 306 304 303 302 302 302 303 304 303 304 305 306 307 308 310 311 310
308 307 307 306 305 305 305 304 303 302 301 303 304 306 306 308 305 305 304 304 305 304 304 305 304 305 305 304 301 301 301 301 301 301 301 301 303 304 305 307 308 311 312
305 304 304 303 302 302 301 301 301 302 303 304 305 305 305 306 305 305 304 302 302 302 302 302 302 302 302 302 300 300 299 303 301 301 300 301 300 300 301 303 307 307 308
301 301 300 300 300 300 300 301 302 303 303 304 305 305 305 305 305 304 302 300 300 299 300 301 301 301 300 300 300 299 299 300 300 299 300 301 300 300 300 300 302 304 305
299 299 299 298 299 299 300 302 302 302 303 303 304 306 305 304 303 303 301 300 299 298 298 299 299 299 298 298 298 298 299 299 299 299 300 301 301 301 301 300 302 302 303
297 297 297 298 299 300 301 302 302 303 302 301 300 301 304 303 303 301 300 299 299 298 297 297 296 297 297 297 297 298 298 298 299 300 300 302 302 301 302 302 303 304 304
296 297 298 299 300 300 301 301 302 302 301 301 300 300 300 301 301 300 299 298 299 298 297 296 296 295 295 296 297 298 298 299 300 300 302 302 303 303 303 304 304 305 307
296 296 297 298 298 300 300 299 299 300 298 298 298 297 296 298 300 299 298 299 299 298 297 297 296 295 295 296 297 298 299 300 302 302 303 304 305 304 305 306 306 307 308
294 295 295 296 296 297 298 300 299 299 299 299 297 295 297 297 298 299 299 299 299 298 297 296 296 296 296 297 298 300 302 303 304 305 306 306 305 306 307 307 308 310 312
292 293 294 294 295 295 296 296 299 301 299 299 298 298 298 298 299 299 299 300 299 299 299 300 301 301 302 302 302 303 304 305 305 305 306 306 307 307 308 310 310 312 311
292 292 292 293 293 294 293 293 293 293 296 299 298 299 300 299 300 300 300 300 301 301 301 301 302 303 304 304 304 304 305 307 308 308 308 308 308 308 309 309 310 311 312
292 292 292 292 292 292 292 292 292 293 294 296 299 301 300 300 300 301 300 301 302 303 304 305 306 307 307 307 309 309 309 310 311 310 309 310 310 310 309 309 309 310 311
291 291 291 291 291 291 290 290 290 291 292 294 296 297 299 300 301 301 301 302 303 304 305 306 308 309 309 308 311 312 313 314 313 313 313 313 311 312 311 311 311 311 312
291 291 291 291 290 289 289 289 289 289 290 292 294 295 297 299 300 300 301 302 302 304 305 307 308 309 310 310 313 313 313 313 315 315 313 314 314 315 315 315 315 314 314
292 291 291 290 290 290 289 289 288 288 289 291 293 296 298 299 300 300 301 302 302 304 306 307 309 310 309 310 313 315 315 315 314 315 315 315 315 315 315 315 315 316 316
291 291 291 290 290 290 290 289 288 288 289 289 291 294 296 299 300 300 301 301 303 305 307 308 309 310 309 312 313 315 316 315 315 314 315 315 315 315 315 315 315 315 316
291 291 291 291 290 290 290 289 289 288 288 288 290 291 293 296 299 299 300 301 303 305 307 308 309 309 309 311 314 315 316 317 315 315 316 316 316 316 315 315 315 315 316
289 289 289 289 289 290 290 290 289 289 289 288 289 290 292 294 298 299 300 301 302 304 306 307 308 309 309 309 312 315 315 317 317 315 316 316 315 315 315 315 315 316 316
288 289 288 288 288 288 288 289 289 289 289 289 289 290 291 292 295 298 299 300 301 303 305 307 307 308 309 310 310 312 315 315 315 316 316 316 316 316 316 316 316 316 317